GFSGBSN_700_spd_000.txt.gz
Wind_Speed
22 22 22 20 18 18 18 16 17 16 17 16 17 17 20 22 22 23 22 18 17 17 19 20 22 28 29 34 38 32 17 16 22 31 30 32 34 36 40 36 28 37 26 27 25 22 22
25 22 22 22 20 18 19 17 17 17 17 16 15 18 22 23 24 22 19 16 15 15 14 16 19 23 28 36 35 34 36 31 21 14 30 34 34 32 28 32 36 27 30 25 23 24 22
26 25 23 23 23 20 19 19 17 18 17 17 15 16 24 23 22 21 18 16 15 14 13 15 17 22 28 29 28 28 29 31 29 30 26 33 31 32 32 30 32 30 21 20 24 24 21
26 26 24 23 24 23 20 19 18 19 18 18 16 15 21 20 25 24 21 16 14 14 15 17 19 22 30 23 25 29 30 28 24 30 34 31 35 34 32 25 23 32 26 28 23 19 22
27 25 25 23 24 24 22 22 19 20 18 19 17 15 19 17 23 22 17 16 12 14 17 19 23 23 31 27 25 23 26 28 26 31 33 32 41 38 36 32 25 29 27 30 22 19 19
30 28 24 24 23 23 23 22 21 21 19 19 17 16 16 18 22 24 21 18 15 20 21 23 25 22 28 18 14 21 24 27 29 27 30 35 45 42 38 40 41 24 28 18 24 18 17
30 31 27 23 23 23 23 23 22 22 20 19 17 17 18 21 24 24 22 22 22 27 32 31 21 27 25 15 10 18 25 28 28 32 34 37 47 53 46 44 30 29 25 20 16 17 13
30 30 33 25 22 22 22 23 23 21 20 18 16 16 19 20 22 26 23 27 29 30 30 27 33 31 25 23 13 18 21 31 30 36 30 33 51 45 31 44 32 25 25 24 18 19 16
32 29 32 28 23 22 21 22 22 21 19 18 16 16 19 19 18 23 23 26 25 31 30 30 31 31 24 25 23 16 18 27 30 35 30 46 50 33 30 43 34 26 23 20 13 12 13
32 31 30 31 26 22 21 21 22 21 19 18 16 16 18 20 20 21 19 20 27 25 17 15 27 27 26 27 28 25 17 25 24 30 27 36 28 36 44 39 33 29 20 15 14 10 8
32 29 28 30 28 24 21 21 22 18 18 18 16 17 17 20 21 22 19 23 18 19 5 5 17 15 21 32 14 23 20 28 25 28 26 34 33 32 43 38 36 24 25 16 12 9 9
30 30 27 27 28 24 22 22 21 19 16 17 16 17 17 17 19 20 14 12 15 11 7 9 11 24 18 28 20 14 23 30 20 20 18 28 23 27 32 34 34 17 19 15 11 5 9
27 28 26 27 27 24 22 22 20 18 16 16 15 17 18 15 16 18 17 20 9 8 5 9 13 20 22 28 25 19 29 35 25 17 22 37 18 28 26 36 32 24 22 6 7 5 6
27 25 26 26 28 25 22 21 20 18 16 16 15 17 18 14 16 16 18 17 11 9 16 6 13 19 18 20 22 23 23 30 36 10 20 23 7 31 38 35 28 36 24 7 5 6 6
28 24 23 25 27 24 23 21 20 18 15 15 14 17 17 15 16 17 22 24 10 10 10 16 17 21 14 21 16 21 24 28 35 12 7 25 3 31 32 30 24 25 23 9 5 3 3
26 25 24 22 23 24 23 21 19 17 16 15 14 16 16 13 12 17 27 25 16 12 5 16 12 17 17 25 18 22 23 24 30 23 8 24 6 18 23 27 26 21 24 10 5 5 5
29 25 24 22 22 24 23 21 19 16 16 15 14 14 13 9 10 25 33 22 25 16 13 19 11 17 16 25 19 23 20 11 35 27 13 17 5 14 22 18 30 20 26 12 11 4 3
13 25 24 22 22 24 23 21 19 16 15 15 13 13 11 7 19 29 34 26 10 9 18 14 11 14 19 21 23 19 21 10 27 30 21 22 9 15 20 12 21 20 18 19 14 6 5
14 28 24 23 24 24 24 21 20 16 14 14 13 11 10 9 15 25 23 20 10 20 18 16 16 14 22 23 15 21 23 26 28 33 25 21 10 14 8 9 18 26 23 24 16 15 15
29 30 28 23 24 24 24 22 20 15 15 15 14 9 14 18 20 19 14 13 13 19 20 15 13 13 18 25 18 24 21 26 15 30 24 19 11 19 18 17 21 25 29 27 25 20 15
35 11 31 25 25 23 24 22 20 16 16 16 17 15 15 15 16 15 16 20 23 26 26 19 22 21 21 21 24 18 24 21 28 24 26 18 7 17 14 12 20 26 29 31 31 30 21
34 22 31 27 24 24 26 23 20 17 17 19 18 20 15 16 15 18 17 21 28 27 34 27 22 24 18 28 30 26 26 24 30 32 43 23 8 15 17 18 16 21 24 30 32 30 32
27 17 32 27 23 25 25 22 20 19 18 19 16 19 19 17 13 15 16 12 14 34 32 25 24 25 23 20 19 16 20 17 18 38 47 27 13 9 5 11 15 14 27 26 27 31 33
24 19 31 28 24 25 26 22 22 20 17 17 15 16 19 19 14 14 14 12 7 15 22 16 21 21 22 18 18 15 23 16 14 31 44 30 17 10 3 6 5 9 16 23 27 27 32
19 23 35 31 26 22 26 22 22 20 17 18 17 16 15 15 11 12 13 9 13 12 15 21 21 25 26 24 20 21 18 22 24 24 32 32 23 11 6 12 8 9 16 19 25 25 27
20 36 28 34 25 26 28 24 23 21 18 18 18 17 16 14 8 7 11 6 14 18 23 24 22 29 22 27 21 15 9 13 15 18 27 25 29 17 14 5 4 5 12 10 13 17 14
19 28 25 37 25 25 29 26 24 21 19 18 19 17 16 15 11 6 7 9 9 23 25 23 29 31 34 21 19 19 7 18 14 18 32 23 15 21 15 8 7 13 7 7 8 7 7
19 33 19 40 35 25 29 26 25 22 20 18 19 18 16 16 8 8 8 8 9 10 30 30 28 24 32 14 12 11 11 12 12 18 25 27 17 16 18 10 12 15 13 12 11 12 9
19 32 23 36 33 30 29 26 26 23 20 19 21 18 17 16 11 11 7 9 9 12 18 29 24 20 23 19 11 10 8 14 13 13 19 20 22 21 16 15 15 11 17 17 17 15 9

GFSGBSN_700_spd_003.txt.gz
Wind_Speed
25 26 26 22 21 21 20 18 18 17 15 16 15 14 13 16 14 14 18 21 22 25 25 26 28 31 31 33 34 31 20 13 17 27 24 25 27 31 33 31 32 35 32 27 27 25 21
28 28 27 26 22 21 21 19 18 19 18 16 15 15 14 17 15 14 15 19 21 23 25 25 26 25 28 32 30 33 34 26 17 14 24 27 26 27 28 28 33 30 30 30 24 24 23
30 30 29 27 26 22 21 20 20 19 19 18 16 17 14 16 14 14 16 20 19 20 22 24 26 23 28 30 30 30 31 31 31 28 19 21 27 23 27 27 33 34 25 26 31 25 24
30 30 31 29 28 26 23 20 20 18 20 19 18 18 18 17 15 13 16 18 17 17 20 22 22 22 29 25 29 27 28 26 24 27 31 29 21 29 31 32 20 39 37 31 28 26 25
32 32 31 31 28 28 26 22 20 19 18 20 19 20 22 19 18 14 15 19 21 18 20 22 22 24 30 27 27 25 25 26 25 25 23 28 30 30 35 32 34 34 36 39 26 25 24
33 33 32 32 31 29 28 26 21 19 18 19 19 20 24 23 23 18 17 18 21 21 21 22 23 22 27 17 14 25 27 26 27 21 22 29 30 33 38 39 34 34 40 27 33 27 26
35 34 33 32 32 30 28 28 23 20 19 19 19 20 22 25 26 23 21 22 21 26 30 32 22 28 29 19 14 17 20 25 28 24 28 29 33 37 43 46 37 34 30 34 23 28 29
38 37 34 33 31 31 28 28 27 22 19 19 19 19 21 24 27 23 20 20 25 28 33 32 32 35 29 28 27 23 21 24 27 30 26 30 38 40 41 49 38 32 28 33 23 20 20
37 38 37 33 32 30 28 28 29 25 21 20 19 19 20 23 27 22 20 18 21 24 34 37 34 34 31 34 31 24 22 23 25 29 32 36 40 38 36 48 38 40 34 30 26 21 17
40 39 37 35 33 31 28 26 30 27 21 21 20 20 21 23 25 23 21 16 16 19 20 24 28 35 33 35 32 27 23 21 26 29 30 34 35 29 39 46 37 42 42 28 21 18 14
34 36 35 33 33 32 30 25 28 28 22 21 21 21 22 21 24 21 19 16 15 15 6 6 14 18 19 36 12 18 28 25 26 25 27 34 30 39 39 54 45 36 30 27 21 16 7
50 35 32 33 30 31 30 24 26 28 23 21 22 21 21 19 18 16 17 13 11 7 7 9 11 15 18 25 24 11 27 29 23 21 30 30 27 32 40 40 40 30 27 25 17 11 9
44 40 30 31 28 28 28 23 24 27 23 19 20 20 19 16 16 13 14 14 7 9 5 9 14 19 23 25 26 19 26 29 25 23 26 25 43 17 43 25 43 29 34 8 7 8 7
32 43 34 29 28 24 26 20 22 24 21 19 20 21 17 14 16 13 15 19 12 8 20 16 15 17 26 20 26 21 18 24 30 30 15 21 13 39 32 33 30 44 35 14 9 10 13
35 32 35 28 26 24 21 19 23 24 20 19 21 23 20 11 15 15 19 23 11 11 17 15 9 17 16 21 15 25 23 27 29 40 1 16 15 19 32 31 39 34 39 8 9 7 13
22 35 31 29 25 23 24 25 25 23 20 17 24 24 19 16 17 18 25 33 18 18 15 8 12 14 14 22 18 21 16 18 26 30 13 8 10 19 28 34 31 22 21 9 5 7 6
24 41 14 32 28 26 23 26 25 23 21 20 25 22 18 14 15 24 33 36 28 26 22 13 9 13 14 22 20 23 10 7 25 20 23 11 16 14 26 17 33 28 18 8 9 1 3
20 24 15 28 28 27 23 27 25 24 21 22 25 19 13 12 19 22 32 34 25 19 11 14 8 12 14 20 22 20 19 14 19 19 19 9 6 7 11 16 22 16 23 18 13 6 7
18 21 34 23 32 29 22 29 26 24 22 23 22 20 14 11 24 25 29 28 30 21 14 18 12 12 16 19 17 18 15 19 15 26 11 16 4 7 7 15 18 20 13 20 16 7 14
11 15 32 15 34 31 20 28 26 23 22 19 22 13 18 22 23 24 26 27 22 14 21 19 12 13 16 19 19 15 11 13 15 23 11 8 6 6 6 12 19 21 23 21 20 16 14
11 12 26 12 34 29 19 27 26 22 20 20 24 19 18 18 21 17 23 20 11 8 18 22 13 19 19 19 22 9 17 13 17 24 20 7 2 8 3 4 13 14 20 23 23 23 16
14 14 29 21 36 30 17 24 25 22 21 24 28 25 21 23 16 19 17 29 30 20 20 27 23 20 19 14 22 16 19 20 16 18 27 17 2 3 6 8 10 15 20 24 27 26 24
17 16 20 26 38 29 25 23 27 23 24 25 28 23 22 16 15 19 21 22 19 21 26 31 24 19 20 18 14 6 16 18 10 14 31 25 6 3 5 8 8 13 24 23 24 26 25
17 19 15 35 36 32 26 28 26 23 23 23 22 22 22 25 16 19 21 24 17 15 33 36 32 26 18 16 10 12 15 17 18 12 32 28 12 5 4 7 6 7 9 24 24 22 25
18 20 17 27 30 37 23 20 26 24 22 22 21 24 23 24 15 16 23 19 15 13 23 20 31 26 16 18 14 12 17 17 16 17 26 35 15 5 4 6 8 8 14 16 24 22 24
17 20 20 30 33 39 32 26 24 25 22 22 19 23 23 20 13 13 16 12 7 11 22 30 19 25 22 22 18 10 8 10 9 10 27 36 22 12 9 4 5 3 6 8 13 15 16
18 20 19 30 28 39 27 27 24 24 23 21 19 23 23 23 18 12 13 11 12 15 20 22 23 26 29 28 17 15 6 15 10 15 24 32 22 19 16 5 9 13 8 4 8 3 4
21 20 21 35 33 35 33 28 28 26 22 21 19 22 21 22 15 8 10 13 11 14 19 25 26 29 32 17 14 10 7 14 7 17 28 25 22 16 18 8 10 9 8 9 8 7 7
22 21 22 28 31 42 36 27 25 25 22 22 20 21 21 20 12 11 10 10 8 13 22 21 27 31 28 19 13 13 10 15 13 12 18 20 20 18 16 13 9 7 12 14 17 16 10

GFSGBSN_700_spd_006.txt.gz
Wind_Speed
27 29 29 29 26 24 24 22 20 20 18 17 17 18 17 16 13 13 13 15 17 15 15 18 21 24 30 36 38 38 28 17 16 24 29 24 23 23 31 27 28 37 33 29 28 28 25
29 28 29 30 29 26 24 25 22 20 19 18 17 17 18 17 14 14 14 16 15 14 15 18 20 25 29 37 31 33 37 34 25 12 16 23 20 21 22 21 29 30 36 34 31 28 27
30 30 29 30 31 29 26 24 25 23 20 20 17 17 17 18 16 15 15 16 13 12 14 18 20 24 31 30 29 26 32 30 26 25 15 11 25 19 10 22 24 32 31 31 39 31 30
33 32 32 30 31 31 28 26 25 25 22 22 20 17 17 18 19 17 19 21 17 15 14 17 19 24 34 25 29 27 31 25 23 29 30 22 16 28 27 19 26 27 32 38 39 32 34
37 36 35 33 32 32 31 29 26 25 25 22 22 19 17 18 21 21 21 23 23 23 19 18 21 26 34 23 30 24 26 23 21 23 24 27 31 26 20 31 23 30 32 46 41 29 29
35 39 38 37 34 32 32 30 29 26 24 24 23 21 18 18 21 23 23 23 25 25 21 23 23 23 24 19 14 20 25 24 23 23 23 23 23 30 32 31 38 30 30 32 39 39 27
40 39 37 39 37 35 32 31 29 28 26 25 23 23 20 18 20 22 25 23 24 26 26 24 26 24 28 19 15 18 16 21 26 27 27 22 25 39 42 40 39 31 31 25 35 26 30
42 37 34 37 39 35 33 32 30 28 27 26 23 25 21 19 19 22 25 21 22 25 28 27 27 34 33 31 28 25 20 23 25 31 27 23 36 38 34 34 31 38 31 34 27 26 33
46 42 34 39 35 35 33 32 30 28 28 27 23 25 22 20 20 21 20 20 18 20 30 39 32 35 31 36 35 30 27 26 26 27 29 34 40 29 30 30 31 36 42 38 34 32 29
43 43 46 33 30 34 30 32 31 29 28 26 23 23 24 21 21 18 18 17 18 14 18 27 27 26 34 39 42 34 30 27 30 30 24 30 35 31 27 35 33 38 44 42 34 37 20
38 43 50 51 40 35 31 28 27 26 23 24 21 23 25 21 21 18 15 15 14 5 6 8 10 15 14 31 33 24 31 28 30 27 23 32 30 35 39 40 37 43 41 40 38 22 26
24 33 43 49 52 37 32 30 26 24 22 21 18 22 24 21 19 15 14 12 8 5 8 8 10 9 14 17 24 24 20 28 25 27 28 30 25 27 38 45 40 39 35 34 35 35 12
22 24 29 45 42 38 34 32 29 25 23 20 18 19 19 18 16 13 14 9 5 9 7 8 14 15 18 20 21 20 18 31 26 19 28 28 35 31 30 28 35 39 29 13 9 10 4
25 22 28 29 33 43 34 32 30 25 23 21 17 15 15 17 15 14 13 10 11 11 15 15 14 17 19 21 24 25 15 28 29 24 9 20 18 37 38 36 29 42 44 6 4 3 6
22 24 26 19 25 37 31 28 28 25 23 22 15 19 19 19 13 16 15 19 11 10 20 20 18 13 18 21 5 21 25 24 26 31 18 11 18 11 29 31 24 28 44 44 12 20 7
20 21 21 14 20 31 29 29 28 25 24 21 21 22 21 14 14 19 19 29 21 13 24 17 9 9 10 17 12 18 16 11 24 29 33 29 6 16 21 25 34 21 41 25 16 6 6
24 21 18 19 29 4 31 32 32 27 26 21 20 22 23 18 16 24 32 33 31 31 25 16 9 8 12 14 22 21 12 17 15 20 31 27 25 7 16 28 35 26 24 19 11 5 6
25 19 20 12 33 11 33 33 26 19 20 23 22 24 20 19 20 27 33 31 31 23 13 9 12 13 14 15 19 17 22 11 12 23 30 27 7 7 19 25 27 32 33 20 4 3 8
22 21 24 17 25 7 33 32 35 28 24 26 25 22 16 18 20 26 25 30 35 29 17 12 15 9 10 11 14 20 16 13 10 25 10 11 11 3 4 26 34 25 20 15 3 4 4
21 23 24 22 34 13 22 33 36 32 22 26 25 20 19 21 23 22 24 30 33 27 19 21 16 10 11 13 15 4 17 12 16 18 24 9 13 15 6 10 31 18 22 15 8 2 3
23 23 21 20 23 14 28 31 26 29 24 26 33 26 23 19 23 27 26 24 21 15 14 17 20 21 15 14 13 20 12 12 14 13 22 12 8 10 14 12 26 23 29 24 18 12 3
21 20 18 18 21 11 26 29 29 25 26 28 29 26 22 21 17 17 19 29 30 28 13 19 24 15 13 17 16 20 11 14 12 12 17 13 9 11 11 14 14 16 20 24 22 18 17
21 20 17 18 23 21 32 25 24 24 26 30 30 26 27 16 16 20 25 25 23 21 18 26 27 18 19 15 9 12 12 15 9 10 14 13 5 12 6 6 8 4 17 19 19 21 22
19 19 17 19 20 20 17 23 22 17 26 26 27 24 29 25 19 18 18 22 25 25 24 30 25 28 16 14 19 15 15 18 18 12 14 20 12 3 3 7 2 2 5 22 21 17 17
18 18 17 20 20 26 11 29 29 24 26 19 24 24 28 28 23 15 15 22 28 29 17 30 26 26 20 17 12 11 11 17 20 18 15 15 17 3 2 5 6 6 8 11 22 21 18
20 19 17 19 17 26 24 21 22 18 24 18 22 22 25 24 20 14 18 19 19 13 13 23 36 31 29 20 14 9 7 7 8 5 15 21 23 9 6 1 2 1 4 3 10 17 15
21 17 17 17 16 25 27 22 27 21 21 25 20 20 25 27 23 17 20 21 13 8 11 20 23 30 28 23 15 10 9 8 8 11 19 24 24 22 11 4 4 8 5 2 8 1 4
22 18 18 17 19 29 28 23 23 21 19 23 18 18 22 24 21 16 14 16 11 10 12 19 25 24 31 27 15 11 7 13 9 9 20 20 17 14 16 8 9 6 11 6 6 4 2
22 20 17 17 23 28 32 26 31 27 23 20 19 17 19 21 17 10 16 16 11 8 14 12 17 25 21 23 17 11 11 17 12 10 13 19 22 15 18 13 5 10 6 8 7 10 11

GFSGBSN_700_spd_009.txt.gz
Wind_Speed
32 30 29 29 28 27 26 26 26 23 22 21 20 19 18 17 15 14 14 14 12 14 17 18 19 22 25 24 25 29 27 27 21 15 13 23 22 21 26 28 27 36 35 32 33 34 32
33 33 31 30 29 28 27 27 26 26 23 22 21 20 19 19 18 16 13 13 11 11 14 15 20 23 25 22 18 26 28 29 30 32 27 20 25 21 23 24 28 26 32 37 34 32 29
31 31 33 32 30 29 29 28 27 27 25 23 23 21 20 19 20 19 17 14 15 12 11 12 18 22 23 13 17 22 26 24 25 27 25 18 19 21 21 22 26 32 33 35 39 37 37
40 34 30 35 33 31 30 29 29 28 27 26 24 22 21 20 21 23 21 19 18 19 19 16 19 22 21 16 19 22 26 23 20 18 20 14 17 29 28 22 25 30 34 41 36 37 39
41 38 33 34 35 34 31 32 30 29 29 27 25 24 21 21 21 23 24 22 20 21 22 23 24 22 21 13 14 17 22 21 20 21 26 29 26 26 27 31 27 28 30 30 38 36 34
36 41 39 37 36 33 34 33 32 31 30 29 26 25 22 21 21 21 23 23 22 22 23 25 26 23 16 15 16 14 19 22 20 23 26 27 30 38 34 30 28 26 25 33 28 36 35
37 37 40 40 33 38 35 34 32 32 30 30 28 25 23 22 20 21 21 22 21 24 26 24 23 26 28 25 21 16 14 17 23 26 28 26 32 33 38 38 32 33 28 22 32 28 27
41 39 37 36 36 32 39 34 32 31 31 31 28 26 22 22 21 21 20 18 17 22 28 28 23 29 25 29 28 23 20 21 24 30 27 29 40 31 28 30 36 37 36 43 30 25 25
41 42 38 35 43 45 32 39 34 28 30 31 29 27 24 22 21 20 17 17 16 18 26 37 26 29 28 29 34 32 26 23 25 26 27 35 16 26 31 30 30 34 37 37 39 27 26
41 40 35 30 40 42 36 31 32 27 23 24 22 25 25 23 21 19 16 18 13 15 14 21 15 13 15 29 37 31 31 28 30 30 26 28 29 30 16 30 32 35 34 32 30 26 27
35 32 31 26 29 43 45 24 33 28 26 25 23 23 22 23 21 17 15 15 11 8 4 5 9 8 10 15 22 17 22 33 33 33 27 29 18 26 34 40 23 38 31 27 26 29 34
29 27 28 23 25 30 48 28 29 29 28 26 23 21 19 23 19 16 13 13 7 3 8 7 10 10 10 13 21 28 18 33 38 32 33 32 27 17 26 30 32 30 25 23 20 26 20
25 26 26 25 23 24 32 33 42 32 31 28 25 21 14 18 11 14 13 12 7 7 4 8 12 11 11 14 17 18 24 28 32 20 28 28 33 32 30 27 31 29 25 6 10 8 11
23 27 26 21 21 16 22 27 40 33 33 31 27 23 17 16 13 12 14 15 10 5 13 15 14 14 17 18 19 18 23 22 34 16 7 15 12 33 34 37 29 30 35 12 7 7 8
22 27 25 22 20 18 17 27 33 33 35 31 23 28 18 15 13 12 16 15 9 8 16 15 20 16 15 14 15 12 20 22 20 28 19 8 16 16 26 34 33 31 33 48 10 16 5
23 25 23 21 24 27 20 26 32 32 36 31 30 28 28 17 14 18 17 20 17 15 18 17 16 8 7 9 11 11 13 14 24 22 24 22 22 29 24 24 32 39 33 30 18 5 7
25 25 22 27 29 16 22 12 31 37 40 40 39 28 31 21 16 22 27 25 24 22 20 17 14 10 8 9 8 14 9 14 16 16 22 32 26 23 5 27 32 37 26 28 21 25 2
28 25 23 26 28 26 14 9 24 47 42 33 34 30 31 25 28 33 29 28 24 21 16 17 10 15 14 10 12 20 20 17 11 19 23 33 13 18 31 27 34 31 28 34 22 15 25
27 25 23 28 28 23 27 13 38 46 42 38 35 30 20 27 35 30 27 24 19 19 17 12 15 14 5 16 10 19 24 7 22 16 12 27 14 11 6 19 26 37 35 31 29 37 25
32 28 24 25 26 25 27 8 45 48 45 37 31 25 28 30 26 21 20 20 21 20 25 22 21 16 13 13 18 7 20 12 12 18 15 12 18 17 8 5 19 23 39 37 33 17 8
33 27 22 22 22 25 20 7 36 33 33 31 34 22 30 35 28 22 17 17 15 16 16 10 11 21 16 13 15 19 19 14 15 14 18 16 21 24 21 18 21 32 34 30 34 20 21
33 26 18 17 19 22 21 4 38 38 34 31 33 22 28 22 18 12 16 26 19 21 20 14 12 18 18 19 17 5 15 16 14 15 15 18 16 18 4 15 25 29 27 25 16 12 21
36 30 18 16 18 26 20 3 29 38 31 37 30 34 21 18 21 17 18 17 13 17 18 15 11 21 23 22 13 14 17 14 10 14 13 12 14 16 9 15 18 8 28 25 15 15 18
36 31 20 15 15 22 18 12 24 29 43 36 27 28 23 20 20 17 12 12 14 18 23 18 17 25 19 17 15 12 14 12 18 11 8 7 10 8 4 7 1 2 10 14 12 14 17
33 29 21 16 14 19 17 9 23 24 33 25 24 26 19 22 23 21 14 15 19 19 23 22 24 28 23 15 14 13 10 12 19 18 16 11 6 2 2 4 3 2 2 9 17 14 11
30 27 22 16 15 15 20 10 29 29 32 25 21 17 28 23 20 20 21 14 17 20 25 20 19 21 25 15 13 9 7 8 8 7 18 12 13 7 3 1 1 3 6 4 6 12 16
27 26 23 17 14 14 18 14 18 27 24 28 18 15 17 23 19 17 16 12 15 19 17 9 29 24 28 22 20 8 9 9 9 9 13 18 16 19 11 3 4 5 1 6 8 4 11
25 26 23 18 13 13 14 18 14 28 24 25 20 19 15 18 16 15 11 13 13 16 11 6 22 32 26 23 14 9 8 14 10 10 12 17 14 12 12 5 8 6 10 3 5 8 10
24 27 21 18 14 14 14 18 16 27 24 21 22 17 14 15 12 12 12 10 12 16 12 12 17 25 24 25 18 11 8 11 14 10 15 16 19 15 13 12 5 7 5 8 6 3 3

GFSGBSN_700_spd_012.txt.gz
Wind_Speed
27 27 25 29 31 29 29 29 29 28 27 25 23 22 20 19 19 20 20 18 16 14 15 18 20 21 20 21 24 22 23 21 17 12 12 12 19 27 28 28 30 40 41 40 40 39 38
36 31 31 33 27 32 31 29 29 30 28 27 25 23 22 21 20 20 21 19 16 14 15 17 17 16 15 20 20 22 24 23 23 22 24 24 22 21 28 28 30 33 36 39 38 39 39
34 35 38 32 26 27 33 32 30 30 29 29 28 26 23 22 20 21 21 21 18 16 15 14 12 9 10 5 17 22 21 19 23 22 21 20 16 22 26 26 27 33 38 35 40 38 37
32 35 36 39 36 32 28 33 32 32 30 30 29 28 25 23 21 21 22 22 22 20 20 21 21 17 12 12 17 22 19 19 19 18 17 15 18 26 28 25 20 26 33 37 36 32 35
32 32 34 37 39 35 33 29 32 32 31 31 31 29 28 24 22 21 22 21 23 24 24 24 26 22 18 18 14 18 20 20 19 18 17 18 23 25 26 27 27 26 27 25 27 31 29
33 33 33 34 37 38 38 40 34 32 31 31 31 31 29 26 23 21 20 20 22 25 27 28 30 23 15 14 13 14 16 17 20 21 23 30 30 30 28 27 34 29 31 32 33 19 25
40 37 34 35 35 38 42 45 41 34 33 31 31 30 29 28 25 22 20 19 21 26 28 26 23 22 24 23 20 15 18 16 20 25 26 27 34 36 41 38 35 35 31 35 25 10 29
43 41 39 37 38 34 41 41 36 40 32 31 29 29 28 28 26 24 21 19 18 24 24 25 24 26 24 26 26 18 19 20 21 28 27 29 36 32 29 30 38 38 37 37 33 26 22
45 41 38 37 36 35 36 43 42 21 38 30 28 28 27 26 27 26 20 18 17 21 23 28 23 30 27 27 27 22 22 20 26 26 29 34 26 25 35 31 31 36 41 40 36 29 32
49 44 35 30 26 27 24 42 48 44 29 32 31 28 27 27 30 24 20 16 17 16 13 16 10 11 9 20 25 24 26 24 28 28 27 28 31 23 18 32 32 36 31 28 28 20 17
45 40 30 19 24 25 23 25 43 45 43 31 30 28 28 27 26 23 15 16 16 9 3 5 8 6 3 7 10 10 8 27 31 31 29 26 25 29 38 35 26 31 30 27 25 23 24
40 36 21 21 30 27 25 20 36 33 37 39 32 31 29 31 25 22 20 18 14 6 6 8 8 6 7 8 11 12 12 17 26 36 36 41 26 23 26 27 36 17 14 20 18 18 15
36 38 21 23 30 21 22 21 22 36 22 39 32 32 30 23 18 20 20 20 11 8 6 8 9 8 9 10 13 14 15 24 30 24 31 32 38 32 24 19 20 25 24 5 8 9 9
42 39 25 23 23 20 26 29 22 26 45 36 17 30 33 20 21 20 23 24 10 6 11 9 6 10 13 13 17 15 18 23 25 28 8 19 10 32 29 36 26 30 33 10 6 3 7
42 39 28 22 19 20 23 16 18 24 41 29 22 38 37 28 22 20 26 21 9 14 12 10 7 9 10 11 11 9 18 25 27 29 25 9 13 16 18 22 33 26 31 39 12 17 10
40 42 30 21 21 28 27 18 14 20 27 33 22 43 36 30 25 21 28 24 15 15 12 10 8 6 7 7 9 9 13 9 22 23 23 17 13 18 15 20 23 36 28 16 23 5 6
39 37 31 20 22 32 29 26 6 15 29 42 17 35 46 32 27 34 36 24 22 19 13 12 10 10 10 10 11 11 8 8 12 17 26 27 23 11 18 24 29 33 33 20 21 20 3
37 37 31 20 25 30 29 31 15 10 27 36 13 40 39 41 38 40 38 27 19 14 11 13 10 13 15 13 12 13 18 15 8 14 20 26 15 22 36 29 26 37 44 37 18 14 24
36 37 34 24 21 24 29 36 13 9 33 24 26 24 30 41 41 36 30 29 23 18 13 8 9 12 11 14 10 10 12 13 16 15 9 19 16 12 12 18 26 34 40 45 39 22 22
36 35 35 25 20 18 25 26 14 10 23 23 30 22 33 41 43 33 23 25 24 15 11 13 16 14 19 18 17 9 8 5 13 21 18 20 23 22 17 6 15 34 42 40 38 28 23
34 35 35 25 16 17 22 24 15 9 29 43 36 20 40 47 43 33 24 17 14 16 10 10 8 23 21 19 19 21 17 18 18 22 22 21 25 26 32 34 29 29 36 40 39 27 30
32 32 34 24 15 15 19 18 9 9 40 27 33 21 37 14 33 31 21 21 20 16 13 16 12 9 15 30 19 1 8 22 21 20 22 29 30 25 14 13 17 25 26 32 34 34 27
30 30 31 25 16 14 18 19 11 10 44 21 23 27 31 23 29 27 22 17 9 9 11 3 8 11 20 23 19 17 17 14 15 17 20 25 23 16 7 13 15 15 29 35 37 35 23
28 29 29 26 17 12 14 14 2 15 26 21 24 30 23 23 24 21 16 12 11 13 13 14 14 11 19 20 20 19 19 19 16 22 20 12 14 14 7 8 2 4 4 19 15 11 7
26 27 27 25 19 13 13 11 1 11 32 18 38 29 30 24 17 16 16 14 16 14 17 15 18 17 11 20 17 12 17 17 12 15 19 13 14 7 6 6 3 5 10 22 22 16 19
25 25 26 25 20 12 10 10 8 12 27 21 24 24 22 24 21 17 18 13 16 13 15 16 23 25 18 23 17 9 7 7 6 6 18 17 12 7 4 3 3 4 4 10 13 14 17
25 23 25 26 19 13 9 10 7 12 24 30 24 14 14 20 20 15 13 11 12 13 16 18 13 14 23 30 13 9 8 11 6 7 6 13 9 12 9 3 3 4 4 8 7 4 15
25 24 25 26 19 12 9 10 10 15 25 28 26 18 18 18 15 16 11 12 9 11 13 15 7 21 27 21 17 9 9 14 9 8 7 15 11 7 8 4 6 8 6 5 6 8 10
26 24 23 25 19 12 8 11 15 18 22 19 23 15 19 13 11 15 14 14 11 12 15 16 12 11 16 24 13 15 8 9 13 6 12 11 14 8 9 4 6 5 5 8 10 7 6

GFSGBSN_700_spd_015.txt.gz
Wind_Speed
29 31 32 32 26 26 23 29 30 28 28 29 30 27 26 24 22 20 20 18 17 17 17 18 19 20 22 20 19 20 19 15 11 14 15 16 19 22 25 25 28 35 39 40 40 39 40
26 30 31 32 31 36 31 27 28 30 30 30 30 30 28 26 23 22 21 19 18 18 17 16 17 18 18 20 17 19 20 22 20 19 18 17 14 15 23 25 30 31 30 38 40 40 41
31 29 30 33 34 34 33 29 23 29 32 31 30 31 30 28 25 23 22 20 20 20 19 16 13 11 13 10 16 16 16 18 21 22 22 23 25 24 21 24 28 32 35 37 34 34 41
32 32 34 34 34 35 35 36 36 26 28 32 30 31 31 28 27 24 23 22 21 22 23 22 20 18 16 16 15 15 16 17 19 18 16 19 20 21 25 23 21 20 28 33 31 32 33
35 35 35 34 37 35 36 38 41 42 30 30 29 26 30 29 28 26 23 23 23 24 26 26 24 21 19 22 20 20 18 19 18 18 17 18 20 22 22 23 25 24 27 22 15 19 23
40 38 36 35 34 35 36 38 40 41 37 31 31 27 26 27 28 27 25 24 24 24 27 28 28 21 20 17 13 11 10 12 17 19 21 22 25 28 27 24 22 18 23 26 26 22 22
41 39 37 36 37 36 36 37 40 42 47 34 30 28 28 26 29 28 27 25 24 25 28 27 17 10 9 12 15 18 18 18 19 22 24 26 33 37 36 31 31 32 28 27 22 14 22
46 44 43 40 39 34 36 36 36 41 45 50 32 33 30 29 26 27 29 27 22 23 20 21 22 24 25 25 25 24 20 20 21 25 24 28 37 36 35 36 37 38 40 39 37 33 30
50 50 41 42 34 29 29 29 30 34 40 37 41 35 32 29 32 30 29 23 21 21 22 23 23 25 23 28 30 25 23 21 22 22 25 30 24 19 29 33 34 34 33 33 38 34 37
49 47 43 39 25 19 22 27 25 26 38 38 42 36 33 33 33 34 30 23 19 17 11 14 17 18 21 27 27 22 21 18 24 24 21 26 31 33 30 26 27 34 31 26 27 23 16
47 42 38 42 24 17 26 29 30 26 25 47 31 38 36 37 38 34 23 20 19 12 2 8 15 13 11 14 8 6 9 21 28 26 25 24 22 20 30 32 24 25 20 23 23 24 26
42 40 43 42 25 23 26 23 24 27 26 39 21 33 35 38 33 30 23 23 18 9 6 10 12 14 13 12 10 8 10 14 21 29 33 30 32 28 28 24 29 26 19 19 17 22 20
37 40 43 41 26 22 23 23 21 21 25 27 39 29 30 39 35 31 28 28 15 8 7 10 14 15 11 11 11 12 12 19 23 18 25 28 35 39 33 28 23 24 23 4 6 9 8
40 40 42 37 24 19 21 29 25 16 13 23 36 35 34 35 34 33 32 31 8 7 14 8 13 14 13 11 13 15 17 22 27 25 16 14 13 30 32 34 28 28 34 11 6 4 5
40 41 40 37 26 20 19 33 24 14 11 17 33 29 30 34 29 27 33 32 18 11 14 13 12 12 12 14 11 9 20 25 24 26 18 6 13 18 18 27 35 17 31 38 19 18 6
37 39 38 38 26 19 27 31 30 11 9 21 29 32 25 42 34 29 34 29 18 14 11 12 10 9 9 11 13 10 11 6 15 24 22 16 14 21 17 20 23 32 17 13 22 5 7
34 36 36 35 26 18 26 28 30 16 7 7 27 20 26 38 35 34 39 31 27 18 13 10 12 13 13 12 12 11 8 7 8 10 19 25 16 10 17 27 32 31 37 18 16 18 4
34 34 33 33 28 22 24 26 31 20 12 9 30 23 26 37 45 47 35 29 24 26 20 18 15 14 15 15 13 11 16 9 6 8 18 23 14 21 36 29 27 33 36 40 10 8 22
32 32 31 31 30 20 21 21 29 18 11 10 14 17 26 43 37 44 36 30 23 18 15 11 13 15 12 15 11 14 12 4 11 14 12 19 14 12 10 18 35 34 39 35 42 14 23
30 30 30 29 30 15 16 21 26 20 6 14 20 16 34 45 36 38 36 31 29 21 14 14 13 14 10 17 22 9 8 3 6 11 19 25 26 24 18 14 9 22 26 37 40 30 33
30 29 28 28 29 13 12 20 29 17 5 21 24 27 42 48 23 39 24 18 23 18 16 12 16 17 16 18 20 23 18 14 19 16 22 25 35 37 42 40 38 32 24 35 45 51 31
32 27 25 26 26 14 11 13 14 12 4 18 14 22 37 24 40 36 29 30 19 13 14 14 16 7 11 25 23 0 10 13 16 20 24 32 37 29 40 41 34 41 33 29 42 44 47
32 26 24 24 23 16 10 11 7 5 17 12 16 11 31 21 36 39 36 27 16 19 16 14 7 7 13 19 20 21 16 16 19 27 23 25 28 15 11 0 8 10 27 38 38 39 37
30 25 23 23 25 18 10 8 2 3 12 19 21 19 30 24 24 37 27 22 18 13 16 11 11 11 7 12 15 18 21 19 22 24 27 25 25 13 7 6 1 9 9 19 28 33 34
29 26 24 24 25 18 11 4 4 8 15 29 18 15 19 29 20 22 22 19 13 15 18 16 15 13 11 11 15 12 13 21 25 25 23 15 17 8 7 7 2 11 5 20 31 25 23
28 26 24 24 24 18 10 5 7 11 19 34 26 20 19 22 22 19 16 15 12 14 14 15 14 15 16 14 13 8 6 6 4 5 9 15 15 10 8 4 4 8 7 4 5 7 14
27 26 25 22 22 18 10 6 10 15 19 17 26 24 26 25 20 19 17 15 17 16 14 13 13 18 18 18 20 11 9 6 5 4 4 6 7 9 4 4 3 3 6 9 11 4 10
27 25 23 20 20 17 9 9 12 13 22 20 23 28 27 16 17 17 17 15 15 12 11 11 12 9 15 18 19 13 8 10 6 6 3 6 4 3 4 3 3 3 8 6 2 3 16
26 23 23 19 17 17 10 11 15 13 23 27 23 16 14 19 12 19 14 16 13 14 14 12 12 9 14 18 19 14 7 5 10 3 10 7 7 2 5 2 2 3 5 6 6 7 9

GFSGBSN_700_spd_018.txt.gz
Wind_Speed
29 28 29 30 31 30 30 25 28 28 27 28 27 27 26 26 24 24 20 20 20 19 16 14 12 15 17 17 18 19 16 10 7 15 19 19 21 21 23 23 25 27 29 33 35 37 38
29 30 31 31 32 34 32 31 34 34 27 29 28 28 24 24 24 25 21 21 20 20 18 15 13 14 15 17 16 18 20 19 15 13 14 17 17 19 22 23 25 27 27 28 32 37 39
34 35 35 35 34 34 36 35 34 35 33 27 26 26 24 24 26 25 24 22 21 21 20 17 14 11 12 9 15 15 17 18 17 17 14 17 20 21 22 21 23 27 29 30 33 32 33
39 40 39 38 38 38 36 37 36 35 39 40 28 30 25 25 27 25 25 23 23 22 22 21 18 16 13 11 10 12 14 16 16 16 17 20 24 25 28 26 21 15 19 23 22 25 29
42 40 37 37 37 38 39 36 37 36 37 45 45 27 28 26 26 28 25 24 24 23 23 23 22 19 19 19 19 20 18 18 18 18 18 21 24 24 25 23 23 22 23 18 18 5 14
43 40 38 39 37 36 36 37 36 37 36 39 49 35 29 28 26 27 26 25 26 24 24 26 24 19 22 13 15 20 19 21 21 21 20 21 22 25 23 22 17 17 23 22 20 15 19
50 48 47 40 34 34 34 34 37 36 36 36 43 41 37 32 28 26 28 27 26 27 27 25 8 15 17 13 19 20 16 16 16 20 21 23 27 30 27 26 27 27 23 22 22 17 24
49 49 49 35 42 38 32 29 29 26 30 32 40 43 45 34 29 30 29 32 28 23 20 22 23 23 24 22 20 19 19 21 22 23 22 26 33 29 29 26 25 29 32 34 36 34 34
48 47 44 36 41 42 36 21 21 23 25 25 32 48 32 37 30 34 32 23 26 24 21 23 22 22 21 24 27 25 22 22 21 21 22 26 24 7 19 31 31 35 37 36 37 30 32
45 45 40 41 46 43 33 20 27 30 26 28 25 44 32 39 28 38 35 24 23 19 11 13 18 24 26 27 30 24 25 22 23 22 20 22 26 29 30 28 22 33 32 30 28 21 12
42 41 41 44 45 42 25 22 24 24 28 26 24 37 35 44 37 42 32 19 18 14 2 9 17 19 19 25 16 8 15 19 22 20 20 20 18 14 22 29 30 28 22 22 17 20 25
39 38 41 44 41 35 22 24 28 27 26 24 19 38 30 40 41 38 33 29 18 11 6 8 12 15 14 17 16 10 12 15 18 22 27 29 26 28 25 20 19 22 15 16 17 19 15
37 37 39 42 38 33 27 25 25 37 27 15 18 31 29 38 35 43 31 34 19 8 8 9 14 16 18 17 14 12 14 18 17 13 23 29 31 34 32 28 25 19 22 4 8 9 8
37 35 37 39 36 34 26 23 31 32 22 12 10 19 25 34 36 42 38 31 7 11 13 9 13 16 17 13 14 16 14 20 25 25 23 13 11 17 26 33 25 23 32 10 5 4 4
37 35 36 37 34 34 23 20 31 34 34 10 10 17 29 26 39 43 38 36 16 13 27 13 17 17 17 15 10 12 18 25 23 27 17 10 12 15 25 17 22 18 31 34 20 18 7
34 34 35 34 33 32 23 21 29 32 32 9 12 13 20 16 32 37 37 25 23 12 11 17 13 12 10 11 14 12 11 5 12 21 20 13 16 19 21 17 21 32 13 8 19 4 5
35 33 33 33 31 30 23 19 24 30 31 2 7 11 22 27 35 43 38 28 25 16 11 12 13 11 11 11 15 11 7 5 8 9 13 26 19 10 13 23 30 30 38 28 12 9 4
33 32 33 31 29 30 22 14 21 27 32 6 2 9 13 28 39 40 32 31 27 19 15 13 10 12 11 11 10 15 14 9 7 8 13 22 13 21 33 32 27 27 34 38 21 9 13
33 33 33 30 27 29 18 11 16 22 29 3 1 17 10 37 30 38 30 27 28 25 21 13 11 13 11 13 10 15 13 8 11 16 6 13 13 10 9 13 27 31 40 40 42 23 29
33 33 33 27 26 25 18 10 13 20 27 6 6 11 23 43 15 38 28 29 23 21 17 14 9 10 9 14 18 8 12 8 3 5 15 18 24 26 21 28 22 19 32 39 42 30 38
32 31 29 25 26 25 18 9 12 19 7 10 9 13 32 37 33 34 33 19 23 20 16 11 9 15 14 15 15 23 24 15 17 19 18 21 33 36 45 47 43 42 34 26 43 47 25
31 30 27 25 26 25 16 6 7 18 10 14 11 5 33 18 24 32 33 29 14 19 20 15 17 8 10 20 23 7 9 19 15 11 17 26 37 33 45 43 40 41 44 37 35 36 48
32 30 27 26 26 25 16 4 2 16 11 16 16 11 29 16 37 33 34 23 21 13 14 15 11 9 11 11 11 14 15 14 12 17 23 31 32 20 25 28 10 4 23 35 33 36 32
31 29 27 27 25 24 16 6 1 5 4 11 12 22 26 21 30 35 28 30 19 16 12 7 10 10 7 5 9 11 15 24 24 25 27 31 33 23 22 18 3 18 9 8 26 28 26
30 27 26 28 24 22 16 6 2 4 8 12 15 22 16 27 17 23 28 24 22 22 20 14 15 14 12 12 8 6 9 17 23 25 28 27 28 13 6 14 10 19 20 1 14 13 26
27 26 23 25 21 18 16 9 4 5 12 16 16 15 2 14 26 8 22 20 15 15 14 17 14 15 15 12 9 5 5 5 4 5 7 9 13 15 14 5 4 14 11 10 8 9 8
27 26 23 25 21 17 15 8 6 8 14 21 14 12 10 12 6 19 13 17 14 16 15 12 8 10 11 19 12 10 9 7 5 4 3 3 8 17 12 6 4 10 8 9 7 4 7
28 25 23 26 18 15 13 10 9 11 14 16 19 20 14 13 10 13 13 16 13 15 17 8 6 9 10 12 12 9 11 11 11 11 4 4 5 5 5 4 3 4 2 4 10 7 9
30 24 23 24 20 17 13 10 11 12 16 17 18 22 16 16 12 13 13 19 17 16 15 12 12 10 5 13 10 10 9 6 10 5 7 5 6 3 4 3 1 1 3 5 7 4 6

GFSGBSN_700_spd_021.txt.gz
Wind_Speed
30 32 33 33 32 30 29 32 32 32 25 25 27 23 23 23 25 25 22 22 20 18 17 15 15 15 17 17 18 11 7 6 10 20 20 18 20 21 22 22 25 26 27 30 32 34 35
35 37 38 39 39 37 35 32 33 33 33 33 32 29 29 24 25 27 23 22 21 19 19 17 16 15 16 15 16 17 18 16 13 10 17 18 19 20 21 22 24 24 24 27 31 33 36
38 39 40 40 40 40 38 39 36 35 35 35 39 34 23 26 25 26 25 23 23 20 20 18 17 15 12 10 13 17 15 14 15 15 16 16 14 16 20 19 22 22 25 27 29 30 34
42 43 44 42 40 39 38 39 39 38 36 34 35 40 42 29 23 24 27 24 23 22 21 20 19 16 13 10 10 14 12 12 13 14 14 17 20 23 21 20 18 17 22 26 22 25 27
46 48 47 44 42 39 35 37 37 36 37 34 34 37 38 28 27 24 26 27 24 23 20 21 21 17 17 16 14 12 12 12 12 14 16 18 21 24 23 23 23 23 23 23 23 20 20
52 53 53 50 49 44 38 36 33 34 33 33 31 35 42 37 32 26 26 26 23 26 21 18 19 15 18 12 18 17 17 17 17 17 19 21 23 25 23 21 17 14 19 22 22 19 21
52 53 52 51 47 41 46 42 37 30 28 27 22 29 37 41 28 31 30 33 29 29 28 22 7 23 10 10 17 15 14 18 19 21 22 23 25 26 23 21 21 23 21 23 22 19 29
51 52 51 49 48 46 47 49 40 21 19 24 22 23 31 42 42 34 37 39 28 27 20 21 23 19 12 15 12 13 17 18 18 18 19 22 26 23 23 19 21 23 28 31 32 30 30
51 50 48 46 43 43 46 43 31 20 22 23 27 23 24 40 41 37 36 39 29 21 20 18 19 22 23 22 20 18 18 20 20 21 21 24 16 3 8 19 25 25 28 28 30 33 34
51 50 48 45 39 42 43 37 27 22 22 20 31 22 24 33 42 37 34 38 28 20 11 11 23 22 25 25 24 24 25 22 24 21 20 20 23 26 25 24 20 27 26 26 25 21 11
51 49 48 43 38 41 39 35 26 25 24 34 27 20 20 29 42 40 35 39 27 20 1 10 18 20 26 28 17 14 23 27 26 21 20 13 8 8 12 11 13 24 24 23 19 20 21
52 50 47 37 37 39 36 34 27 25 29 41 17 8 16 24 38 28 31 35 28 14 6 10 15 18 18 22 22 14 14 18 19 17 20 23 21 23 20 13 13 16 17 15 16 18 13
52 51 44 35 36 37 34 33 24 22 32 38 15 13 15 20 37 20 42 38 21 8 10 10 16 18 17 20 17 17 17 20 14 12 17 19 25 25 25 25 23 22 13 3 6 8 8
53 49 39 35 35 35 34 33 23 24 31 37 14 8 10 27 32 27 37 39 5 18 16 10 15 20 17 18 17 13 13 19 22 16 10 8 7 13 16 17 17 24 29 12 5 5 5
54 45 34 35 35 36 32 33 21 21 28 39 9 6 7 34 27 30 50 25 7 22 23 14 20 23 15 19 11 16 17 17 18 25 13 5 7 10 15 11 14 16 28 28 20 24 13
54 38 34 35 36 34 30 30 20 21 27 34 8 5 8 23 33 51 46 20 13 15 23 13 11 13 20 20 13 13 11 4 13 20 20 13 11 13 17 19 22 27 11 12 16 4 8
49 37 35 36 34 29 30 29 15 19 25 36 1 1 8 14 43 46 29 14 20 14 10 22 11 14 12 14 14 13 6 3 5 4 16 17 16 10 15 13 19 23 32 20 13 12 4
46 35 33 34 29 29 29 28 14 13 23 27 8 10 12 14 25 35 20 25 20 18 13 11 13 9 7 8 11 13 10 5 5 5 9 11 10 15 30 29 27 27 34 37 24 18 17
44 34 33 30 28 29 29 22 10 13 22 24 5 10 10 11 20 26 26 23 21 21 14 11 8 7 10 9 5 10 9 8 11 9 4 8 11 8 10 9 17 31 42 45 45 33 24
42 34 33 29 29 30 27 18 9 15 22 12 6 4 25 23 24 31 27 26 24 18 14 11 9 9 7 8 13 6 7 8 8 5 8 15 21 22 19 31 34 27 35 38 42 26 35
39 33 31 28 28 27 25 14 10 15 8 12 11 5 34 32 20 32 21 18 21 21 18 14 12 10 7 7 10 15 12 13 13 11 15 19 28 30 39 45 47 49 51 41 39 40 27
44 32 29 27 29 24 23 13 6 14 9 6 9 6 16 27 18 28 27 15 21 19 16 13 8 9 13 13 12 6 7 10 15 18 17 22 28 31 51 44 31 33 32 30 42 43 41
47 32 26 25 29 21 18 9 2 14 8 4 4 2 15 12 29 22 24 21 12 14 12 10 9 7 7 10 10 9 14 15 13 13 12 18 23 25 41 31 43 14 19 15 17 33 35
47 35 27 24 26 21 16 9 3 2 6 6 3 13 16 17 24 26 20 20 15 12 9 7 7 10 5 3 7 8 14 19 22 26 24 28 30 32 30 28 4 22 20 12 10 14 20
47 37 28 23 26 16 13 7 5 5 4 5 11 15 14 16 11 21 26 19 22 17 12 11 11 8 7 9 11 8 9 11 14 17 23 28 28 20 8 16 19 19 24 16 8 19 8
47 40 28 25 25 17 9 9 7 5 10 13 8 11 8 13 15 10 22 25 19 19 16 11 13 14 12 12 10 4 4 5 3 4 4 6 13 22 16 6 4 15 15 16 13 20 19
46 40 30 24 22 19 11 9 9 9 13 16 14 7 3 4 6 13 15 19 14 12 12 7 7 10 11 12 13 10 10 7 4 3 3 2 4 16 17 6 10 13 11 10 11 11 11
45 41 32 25 22 18 13 10 11 10 11 21 12 13 4 11 5 14 10 9 8 12 13 10 4 7 9 12 11 12 10 8 9 12 7 4 4 5 4 5 7 11 9 10 12 8 8
44 42 35 27 23 18 13 10 10 14 12 20 20 17 16 9 6 8 10 12 11 13 11 10 11 7 3 7 9 7 8 6 8 4 4 4 5 3 4 6 9 9 9 12 14 7 10

GFSGBSN_700_spd_024.txt.gz
Wind_Speed
33 34 36 36 36 37 35 34 33 31 34 33 31 30 23 25 22 23 26 26 24 21 21 20 20 18 17 19 21 12 14 22 23 24 22 20 19 20 18 20 24 24 26 28 29 30 32
35 36 38 40 41 41 41 41 40 34 30 33 33 32 36 33 26 26 27 27 24 23 22 21 21 19 17 18 16 22 13 13 15 23 24 22 21 19 20 23 22 21 24 27 29 30 33
38 39 40 42 43 45 42 41 40 38 34 32 34 35 39 41 29 34 28 27 26 24 22 22 21 19 17 15 16 20 24 23 16 13 17 20 18 17 18 21 24 22 24 25 27 28 31
44 46 48 50 51 49 48 42 37 35 34 34 35 32 33 39 38 37 24 28 27 26 22 24 23 20 18 16 16 18 19 20 19 19 19 20 19 20 20 20 16 13 17 13 20 21 23
46 51 53 54 52 47 44 40 35 35 33 32 34 30 29 34 43 43 31 25 26 23 22 24 24 21 19 18 14 16 17 17 17 18 18 18 19 20 20 18 14 16 13 14 16 19 19
47 50 53 53 51 48 40 38 39 40 34 29 24 24 23 31 38 28 34 27 25 24 22 22 22 18 17 21 18 18 16 16 17 17 17 19 21 21 23 19 13 10 14 15 15 11 20
48 50 52 53 51 49 47 36 39 43 34 17 17 22 19 26 35 33 32 26 36 31 27 29 13 23 12 18 17 23 19 18 18 19 21 22 22 23 19 20 19 15 12 16 16 18 27
50 51 52 51 50 47 43 37 38 37 30 21 19 20 18 20 33 39 35 31 48 29 24 26 23 13 20 14 18 19 18 20 22 21 21 20 22 17 18 19 20 19 20 22 22 20 22
52 53 52 51 48 41 38 37 37 31 26 21 20 22 24 20 26 42 35 30 38 31 18 22 25 24 17 16 17 15 17 19 17 20 17 17 12 7 15 20 18 20 21 20 22 20 25
53 54 53 50 43 36 37 36 35 31 25 24 26 30 24 22 28 29 48 35 43 30 16 18 23 26 28 24 19 18 18 18 19 17 17 16 22 23 21 17 17 20 19 19 18 14 10
55 56 53 47 35 35 35 34 32 32 20 23 28 24 16 20 19 18 42 28 38 30 7 14 27 22 24 27 15 25 24 23 20 19 17 10 8 9 20 17 11 14 15 11 12 17 20
57 57 53 34 34 35 34 34 31 30 17 21 30 32 14 15 18 21 33 31 35 16 6 17 25 26 26 29 24 15 24 26 23 20 21 18 19 17 16 12 13 14 12 13 14 13 12
59 58 41 35 36 36 36 32 28 29 21 24 31 36 13 13 15 26 24 30 28 6 12 16 24 25 23 29 23 20 19 22 13 12 17 14 21 23 22 20 17 17 12 4 5 8 8
60 52 37 38 37 36 31 29 28 25 20 26 30 17 7 8 14 29 34 36 7 11 13 13 24 23 16 21 20 18 17 20 20 14 5 6 5 14 16 22 8 16 21 9 6 6 7
58 47 36 36 36 32 30 31 29 17 17 28 36 7 4 10 23 38 42 25 6 21 17 21 25 25 19 24 18 18 18 22 19 23 9 6 6 9 9 6 15 11 23 20 26 33 21
56 44 35 36 34 30 32 31 24 13 19 26 18 4 3 13 27 29 43 12 8 22 20 22 12 14 15 26 15 19 17 8 17 19 20 9 7 11 18 18 21 21 8 10 16 6 12
55 40 35 35 32 32 32 31 15 13 20 29 6 3 8 21 26 32 27 10 21 17 21 13 12 14 12 26 14 16 8 5 10 8 18 16 12 6 13 17 17 20 29 26 21 19 8
54 40 34 33 31 31 31 26 10 15 20 20 7 13 13 13 35 32 23 22 21 19 20 11 9 9 15 14 16 11 12 9 11 10 15 16 9 14 22 17 18 21 22 25 20 16 19
52 42 33 30 30 31 28 20 12 19 23 10 12 16 6 15 16 21 22 25 22 18 17 14 10 8 9 11 6 10 9 13 11 10 5 15 11 6 7 4 10 19 25 33 43 34 33
52 44 35 26 29 29 24 17 14 22 16 10 13 9 11 12 21 23 23 22 18 14 10 9 8 5 4 7 8 6 9 9 10 11 15 9 16 18 15 24 25 29 38 36 35 31 39
50 47 37 26 26 24 21 14 15 17 10 12 11 9 11 10 22 16 18 18 17 16 12 8 5 4 4 5 8 11 11 8 11 12 14 13 21 25 33 35 36 39 42 42 40 48 31
49 47 38 27 24 18 15 12 10 7 8 13 14 17 11 11 17 22 18 14 14 16 11 9 7 4 6 8 6 5 6 10 9 15 22 24 23 23 40 28 22 36 40 25 22 29 42
47 45 39 30 21 16 11 8 6 1 5 8 10 8 8 15 14 21 20 11 12 13 10 9 5 4 3 5 9 9 9 13 14 11 13 18 18 17 15 22 43 11 21 19 18 18 18
46 45 40 32 23 12 7 6 3 3 2 8 7 5 8 15 18 22 19 15 10 7 9 7 4 9 6 4 3 7 8 11 15 18 19 19 16 17 25 28 4 19 22 15 15 16 11
43 44 41 34 25 17 4 5 5 2 1 3 4 10 8 10 10 22 15 12 13 10 9 7 6 6 3 3 6 6 5 4 4 10 20 23 24 15 7 11 20 14 28 21 15 18 17
41 42 40 35 27 17 9 6 6 5 4 6 9 11 8 7 6 12 19 14 11 13 15 16 11 12 8 7 8 3 3 3 1 3 4 8 14 23 11 5 4 11 23 18 10 16 21
39 41 39 36 30 21 10 8 8 9 11 14 10 7 7 8 8 8 15 17 14 14 11 8 4 8 10 10 9 6 6 7 3 3 6 4 6 18 19 9 12 11 15 14 9 12 12
37 39 40 36 31 23 15 9 10 12 15 17 13 10 6 7 9 12 10 16 13 9 8 6 5 7 7 11 5 6 6 6 8 10 6 5 6 7 6 6 6 13 11 12 11 5 4
35 37 38 36 30 24 18 10 13 14 16 21 17 18 9 9 6 15 13 13 12 9 9 7 6 4 5 5 5 5 6 7 7 4 6 6 9 3 7 7 12 10 8 10 12 2 4

GFSGBSN_700_spd_027.txt.gz
Wind_Speed
33 33 33 34 36 37 38 39 39 38 36 31 28 32 34 33 32 32 30 26 27 25 24 22 20 22 20 22 24 16 11 21 22 23 19 18 19 17 16 15 14 22 21 18 23 24 27
36 36 36 37 40 43 43 41 42 41 41 36 34 29 33 33 34 27 33 27 28 25 24 23 22 22 22 23 26 22 12 17 26 27 23 20 19 16 14 15 18 7 17 22 22 24 28
42 44 45 46 47 47 47 48 47 46 43 37 32 30 31 30 36 38 32 28 27 27 24 25 23 22 24 20 21 21 18 13 18 27 24 20 21 21 16 13 19 20 22 22 27 27 25
43 46 48 50 52 53 53 47 43 39 33 30 29 32 30 29 34 46 41 34 29 27 26 26 24 23 26 23 23 21 25 25 16 17 23 25 22 22 18 17 14 11 15 16 11 18 20
44 48 49 50 52 51 48 42 36 34 34 31 29 32 27 22 27 37 43 36 38 29 27 26 25 24 24 23 22 23 22 23 25 22 20 17 18 21 21 18 11 13 13 14 15 13 12
46 48 51 52 51 50 46 37 32 35 33 35 29 19 17 20 21 29 38 40 40 29 25 23 27 23 23 26 23 20 22 22 21 25 27 26 20 19 21 18 12 14 17 16 16 8 12
47 50 51 52 51 46 36 34 34 34 32 31 25 20 20 19 22 24 35 38 30 37 35 37 26 30 14 20 24 23 20 20 19 20 23 24 22 21 18 18 18 14 11 13 14 14 23
49 51 53 53 50 40 33 36 35 33 31 28 26 24 20 21 17 21 27 39 30 31 36 30 26 23 23 23 22 25 24 23 22 20 19 20 23 18 15 16 18 17 17 19 20 19 20
50 53 56 55 44 31 33 34 33 31 29 27 20 18 22 26 18 28 28 49 26 35 22 30 28 22 24 18 20 21 24 20 22 19 21 16 10 14 21 17 15 17 17 17 18 21 25
52 55 56 50 33 34 34 33 31 29 26 26 19 18 24 23 17 20 28 49 29 21 14 23 33 30 21 22 17 19 20 20 18 18 16 14 17 18 13 16 14 16 13 16 18 14 10
53 57 55 38 37 36 34 34 30 26 24 22 14 18 25 22 15 11 15 29 38 27 7 17 27 18 29 21 16 19 21 20 14 13 19 8 12 18 15 16 12 11 10 8 9 14 21
54 56 49 36 35 36 34 31 27 26 24 16 20 21 28 19 11 11 13 41 20 11 4 16 28 28 32 26 22 20 24 21 16 12 15 14 14 12 11 9 14 11 7 8 10 10 10
53 55 45 35 36 35 32 31 29 27 17 16 21 24 31 14 9 14 14 32 11 6 11 17 26 29 29 30 19 20 27 26 15 12 18 15 21 16 16 11 12 13 6 2 4 6 8
52 54 42 35 36 33 33 33 29 16 11 19 24 29 16 7 12 24 24 27 10 8 11 13 25 26 22 29 18 18 19 23 20 14 4 12 7 19 17 19 9 14 15 7 5 7 11
52 54 39 34 34 34 33 32 24 11 14 26 29 11 2 10 17 24 24 22 2 16 18 25 26 25 18 23 17 20 19 19 20 19 10 8 5 10 10 8 18 8 18 13 21 26 18
52 52 39 32 31 33 32 26 16 16 21 28 12 3 7 10 16 26 27 4 7 11 18 26 15 14 15 26 15 19 20 17 16 23 15 6 3 7 8 12 15 13 5 6 12 5 10
52 51 40 31 28 32 26 20 17 21 26 21 10 9 9 10 18 28 10 10 17 24 19 9 11 15 13 25 14 19 18 6 18 14 18 10 8 4 10 13 14 18 23 13 10 10 6
51 51 42 31 27 27 22 19 21 28 24 10 13 15 16 12 26 25 13 17 19 20 12 13 10 8 17 22 13 13 12 5 16 14 19 14 5 10 15 10 9 17 18 21 15 12 15
48 49 44 33 26 23 21 18 24 25 18 15 20 15 11 18 16 21 12 19 20 15 10 9 10 9 15 18 8 8 12 13 11 13 12 16 7 4 4 2 13 18 21 29 34 36 35
47 48 45 36 24 21 19 19 22 16 10 13 10 14 15 17 14 16 16 19 19 15 13 10 12 11 12 15 5 11 8 9 12 13 14 11 10 12 10 10 12 20 30 31 33 27 33
44 47 45 36 24 18 18 17 17 18 15 10 16 15 10 13 13 13 14 18 16 8 9 8 7 7 5 5 5 5 8 9 10 12 13 14 15 20 26 29 29 31 30 33 37 45 38
41 45 45 36 24 16 16 15 14 13 12 13 16 13 14 18 17 12 9 8 6 6 5 5 3 3 3 5 4 5 8 9 6 10 12 17 16 14 31 23 17 24 30 30 18 23 30
38 42 44 39 24 14 10 10 9 8 8 9 4 13 14 17 15 10 9 9 8 7 7 7 5 2 4 6 5 7 7 8 9 9 11 18 11 11 10 14 32 9 20 19 16 14 20
34 38 41 41 33 17 9 7 6 8 4 8 6 11 12 11 15 11 12 5 8 9 6 8 4 3 5 4 1 2 7 8 12 16 15 11 10 11 17 19 3 9 16 21 15 14 21
31 34 37 40 36 23 11 7 5 4 3 3 6 9 9 10 7 10 12 9 7 3 8 4 2 3 3 3 2 2 4 5 4 9 16 18 14 9 5 11 20 10 16 22 14 17 18
29 31 34 38 38 30 14 9 6 5 5 3 8 9 9 12 8 13 15 7 10 7 7 8 10 10 8 3 2 1 2 2 3 1 3 9 19 21 8 5 4 7 19 17 8 10 14
28 29 31 34 37 32 23 11 11 9 8 9 8 5 6 8 8 11 13 13 13 9 7 5 4 5 4 7 5 4 4 5 3 3 5 5 8 21 23 9 13 10 20 12 6 9 13
27 29 30 33 37 34 26 14 14 14 13 16 12 13 7 6 9 11 15 13 12 9 6 5 5 4 6 8 5 5 4 3 4 6 4 5 5 7 8 7 6 15 17 10 12 9 6
26 29 30 32 35 35 26 16 12 18 18 21 21 13 10 9 7 12 11 13 14 13 11 8 5 3 6 7 7 5 4 4 4 3 6 7 10 4 7 6 13 17 15 13 12 6 2

GFSGBSN_700_spd_030.txt.gz
Wind_Speed
33 33 34 36 38 40 40 40 40 40 38 39 39 36 32 29 29 31 34 35 32 28 25 24 22 22 21 22 22 17 11 17 21 21 18 18 22 22 19 15 17 20 21 20 19 28 26
36 38 41 43 43 44 48 51 54 52 46 44 41 38 29 28 30 31 33 34 34 31 27 26 22 23 23 25 21 24 19 9 22 23 18 16 15 14 9 14 15 13 20 24 20 24 34
38 40 42 43 44 46 48 51 52 51 43 30 28 27 28 27 29 31 32 33 31 32 27 23 24 23 26 22 21 23 16 16 20 24 23 20 18 21 20 13 18 25 19 19 26 30 29
39 42 44 46 46 47 48 50 49 42 34 35 31 28 25 33 26 23 30 37 34 31 26 27 25 23 29 26 23 19 19 17 14 24 23 21 19 23 21 20 10 17 16 20 19 17 20
40 44 46 47 50 49 49 46 38 36 38 36 33 30 26 23 16 19 20 35 45 29 26 25 24 23 26 27 23 20 18 23 15 15 24 25 21 21 19 17 11 12 14 15 12 13 15
41 47 49 51 53 52 45 34 32 35 35 31 29 28 23 22 18 19 22 26 34 33 26 25 23 20 28 26 24 20 21 24 28 19 18 24 20 23 19 21 13 10 18 15 16 8 14
43 48 50 52 55 50 36 33 33 32 31 28 27 24 20 20 21 21 21 20 30 29 34 38 24 27 14 27 23 21 21 22 23 26 24 17 19 22 22 21 19 13 13 14 9 11 18
46 50 54 56 50 38 37 36 34 32 29 28 24 21 16 18 18 21 22 18 27 36 28 34 18 19 24 16 21 22 21 23 21 21 19 26 27 22 10 10 14 17 16 18 19 18 20
47 52 56 56 40 36 37 36 34 30 27 26 22 21 15 19 25 17 22 16 36 15 15 35 25 24 25 15 23 25 23 21 23 23 22 15 8 19 20 17 17 17 14 15 18 20 24
49 54 57 54 36 36 38 35 32 29 26 22 21 15 12 19 24 16 5 14 36 4 10 30 32 22 21 21 14 21 24 22 22 21 17 15 12 11 10 19 13 9 8 13 13 12 6
50 54 57 48 35 38 36 35 33 32 27 22 15 12 13 20 26 10 2 15 40 9 4 33 34 21 19 23 22 21 24 21 17 17 21 10 13 14 14 11 11 10 13 12 10 10 18
50 54 57 46 36 36 35 35 33 31 21 10 11 15 19 21 20 5 4 8 26 6 1 16 31 24 28 19 18 25 26 22 19 14 17 10 9 10 11 12 15 11 9 10 9 9 7
49 54 57 48 34 32 35 31 27 21 15 17 25 25 21 18 2 10 10 17 13 8 21 20 31 30 33 23 19 27 30 25 16 15 18 19 17 14 13 9 8 13 5 1 4 3 7
49 54 56 48 31 29 29 24 21 17 18 23 28 23 10 3 9 11 14 23 3 6 5 21 32 31 27 25 17 21 24 22 18 12 6 13 5 19 15 21 7 14 10 5 5 3 4
48 53 55 45 28 26 24 21 19 21 24 23 17 11 6 7 12 16 14 21 7 13 17 28 30 27 23 23 17 21 21 23 24 19 9 8 5 6 10 7 15 8 17 10 8 15 9
46 52 54 42 25 25 24 23 26 27 21 19 7 10 10 11 13 15 20 6 4 8 21 31 19 18 19 29 18 19 20 14 15 22 14 7 3 4 8 9 13 11 8 6 7 3 6
43 49 52 41 26 25 27 27 28 24 21 18 12 14 10 13 15 19 7 7 19 25 18 7 13 13 13 28 11 19 13 2 18 18 18 9 6 5 14 14 17 22 18 10 7 9 4
41 47 50 42 27 26 25 25 25 25 22 19 16 16 16 16 21 10 6 14 22 14 14 12 10 11 18 26 13 13 12 1 15 11 23 16 4 9 17 6 7 17 18 19 8 7 13
38 43 47 43 27 25 22 21 24 17 18 18 19 16 18 23 14 7 18 22 21 14 9 10 10 6 20 22 12 7 12 13 20 16 12 17 7 3 1 4 15 17 20 24 27 30 33
35 39 44 44 28 23 20 17 20 23 16 11 16 17 17 12 13 9 16 14 17 14 15 15 19 19 17 10 9 12 12 11 15 20 14 9 8 9 5 7 4 14 20 23 27 23 31
32 36 40 42 33 21 18 17 18 19 20 13 18 18 13 16 10 6 7 19 13 13 16 13 13 14 13 8 7 8 7 10 13 17 16 14 10 15 19 21 22 26 25 22 30 37 36
29 32 37 40 39 22 14 14 14 16 18 8 7 14 17 15 13 6 8 10 9 10 8 10 11 9 10 9 6 9 9 5 5 11 13 14 9 11 25 11 7 18 25 25 26 22 29
27 30 33 37 38 32 14 10 11 9 9 8 7 19 17 15 15 5 3 4 4 4 4 8 8 7 8 8 5 4 10 11 8 9 9 10 7 8 8 9 20 8 10 11 15 11 14
24 27 29 34 36 36 25 9 6 9 4 5 6 7 15 13 14 2 5 3 4 4 5 6 5 5 1 4 2 4 4 7 10 13 11 8 5 6 10 11 2 3 15 17 19 13 16
21 24 27 29 33 35 32 17 8 4 7 1 7 9 11 11 13 8 7 7 6 4 5 5 4 2 1 4 3 3 0 1 1 9 15 15 11 6 4 7 16 4 14 21 18 10 20
19 23 25 26 30 34 34 26 11 10 8 5 5 7 9 12 13 11 9 8 5 4 4 3 4 4 5 5 3 2 2 1 3 1 8 13 17 17 4 4 3 3 17 24 17 6 21
17 21 23 25 27 30 35 30 19 14 12 12 11 9 8 13 14 15 12 9 10 9 4 4 3 1 3 4 4 2 2 4 3 5 9 10 13 23 18 8 11 7 14 17 6 11 19
16 20 22 25 26 27 32 34 25 15 18 16 15 12 9 9 9 12 19 15 16 7 5 2 2 3 5 6 5 3 5 5 5 5 3 5 6 7 9 6 7 9 20 13 16 15 15
16 20 21 25 26 27 29 32 29 18 19 21 18 17 13 11 8 14 14 15 14 13 10 8 5 2 5 4 6 5 4 4 4 4 10 8 9 4 8 5 5 14 16 17 13 14 9

GFSGBSN_700_spd_033.txt.gz
Wind_Speed
32 35 38 40 42 44 44 44 47 47 49 48 44 43 38 36 30 34 35 32 34 35 32 24 24 24 25 25 24 14 13 17 15 18 16 16 23 23 24 25 25 28 25 21 19 27 31
34 37 40 44 46 46 47 47 48 48 46 38 33 32 32 29 26 29 33 35 35 39 37 27 26 25 26 27 20 24 15 13 21 22 18 16 18 22 16 13 23 16 16 19 26 26 31
36 39 42 46 49 48 49 49 50 46 35 33 35 36 31 29 27 30 31 31 33 40 39 29 32 23 27 21 24 23 23 18 15 24 22 17 16 22 20 15 18 18 22 21 28 29 32
39 41 44 48 51 52 52 52 42 32 32 34 34 32 26 24 26 21 15 17 22 34 38 34 25 33 32 24 26 21 20 19 19 23 24 20 19 19 21 17 19 21 20 26 20 19 22
39 42 46 50 53 54 49 36 36 36 35 33 30 28 25 22 21 18 18 19 18 30 32 32 32 29 28 26 26 20 16 18 17 18 26 27 26 25 22 22 17 15 16 14 10 10 14
40 43 48 52 54 53 36 36 37 37 34 31 28 25 23 20 16 14 20 16 15 37 39 24 31 24 28 30 25 22 20 20 17 19 28 23 25 29 25 25 15 17 17 14 13 9 15
41 46 50 53 55 44 37 37 37 35 31 29 25 22 19 15 13 14 17 18 16 34 46 22 34 29 14 14 23 23 24 23 24 17 26 25 21 20 18 19 18 17 9 12 13 9 18
43 47 52 55 53 38 38 36 34 33 30 27 23 19 18 15 18 20 22 21 13 19 38 16 23 30 12 20 23 25 25 27 31 28 19 22 25 25 14 13 13 14 17 20 19 18 22
44 48 52 54 44 36 33 32 33 32 32 24 19 17 14 13 17 21 10 9 15 27 5 24 28 21 22 18 20 27 26 25 23 26 27 24 8 15 13 11 12 17 20 20 18 22 24
44 49 53 52 37 33 29 31 29 28 25 21 11 11 10 14 17 20 6 6 19 12 10 23 28 22 22 19 22 23 23 21 23 23 21 15 19 9 17 21 21 18 14 15 15 14 9
44 49 52 49 35 29 27 28 25 23 18 14 12 12 15 16 20 16 2 3 29 18 3 20 34 22 25 23 26 28 25 23 25 27 22 10 16 13 10 11 19 14 14 14 16 18 22
45 48 51 48 32 27 28 26 22 19 17 16 15 21 19 15 17 5 2 0 16 4 2 17 24 31 33 16 23 32 25 21 21 15 17 10 8 12 16 12 16 13 15 12 10 8 5
44 47 52 47 30 28 30 27 24 25 26 26 24 19 11 9 3 6 7 17 15 3 1 24 33 34 30 26 21 36 29 26 18 16 17 15 10 11 9 11 16 16 7 1 2 2 7
44 47 50 43 29 29 30 28 28 27 26 22 17 12 12 9 13 12 21 21 6 9 3 28 36 35 29 22 25 29 27 26 19 14 19 16 5 18 14 18 9 17 11 4 5 3 5
42 45 48 39 29 29 28 27 31 26 25 16 13 16 15 12 13 15 11 3 5 5 29 31 36 33 27 19 18 23 24 23 22 18 7 9 5 3 4 9 14 12 13 6 4 8 3
40 44 46 39 28 28 26 27 30 30 26 15 14 14 15 9 11 16 8 2 8 15 23 33 21 20 22 21 17 18 21 18 23 21 10 9 6 4 9 8 18 8 7 8 5 3 5
37 41 43 40 28 26 24 27 25 28 22 13 11 13 12 12 11 9 6 7 14 19 17 11 11 13 23 25 13 16 16 2 17 18 16 10 6 8 12 14 19 21 13 8 5 6 3
34 38 40 41 26 24 23 23 28 22 18 13 13 18 14 13 8 10 16 16 20 19 17 13 10 16 23 24 14 14 11 2 10 10 26 12 6 10 18 4 3 15 19 17 6 3 11
31 35 36 39 27 21 22 24 26 20 17 18 22 22 17 12 15 30 24 24 21 13 12 11 9 13 15 24 11 13 13 9 17 14 22 18 8 3 3 6 12 15 17 17 19 22 26
27 32 33 36 33 17 19 21 22 20 21 13 21 16 13 12 16 14 22 21 20 21 19 19 19 24 28 12 7 14 16 12 18 16 13 12 8 6 5 4 8 12 16 19 19 16 26
24 29 31 32 35 20 13 15 16 14 16 11 12 10 8 9 14 13 18 18 19 18 21 22 15 13 15 11 12 13 11 15 22 21 14 14 8 12 13 15 17 20 22 21 27 33 29
22 24 27 29 31 29 12 10 10 9 7 5 2 17 14 14 13 12 9 13 11 12 16 16 18 15 10 12 5 12 9 14 12 23 19 17 8 10 15 1 4 10 13 16 18 22 30
20 21 23 26 28 29 21 9 6 5 7 3 9 14 11 12 11 5 7 5 5 7 7 12 11 10 9 9 8 9 9 9 5 8 15 12 6 6 4 6 11 7 2 6 11 14 19
20 19 19 22 25 27 26 17 8 3 2 1 8 11 11 13 9 6 5 5 3 3 6 8 6 6 5 8 7 8 6 6 7 6 6 5 5 4 7 8 1 5 10 15 16 12 13
20 19 18 19 22 25 25 23 14 8 7 5 7 13 16 20 11 8 5 5 5 4 8 9 5 4 5 8 7 6 7 4 5 11 11 9 9 3 3 6 11 3 5 14 20 12 17
21 18 17 16 18 21 26 25 20 11 9 9 9 12 17 15 15 13 11 8 4 4 4 4 5 3 6 8 6 4 4 4 4 4 8 11 13 11 3 3 3 3 11 16 17 6 20
21 20 17 16 16 19 23 26 26 18 9 13 13 13 13 17 14 16 17 13 8 9 5 5 3 2 8 8 7 4 3 3 3 6 8 12 14 21 21 8 10 7 10 18 7 9 19
21 20 18 17 17 18 20 22 23 24 16 13 17 16 16 15 14 19 19 15 13 13 8 5 3 2 6 7 6 4 4 6 5 6 4 7 9 8 12 8 9 4 10 14 20 15 16
23 21 18 19 18 20 22 22 23 20 21 15 17 19 17 17 16 19 19 19 17 17 12 9 4 1 6 5 5 4 4 4 6 2 7 9 11 4 8 4 2 15 13 14 16 14 13

GFSGBSN_700_spd_036.txt.gz
Wind_Speed
34 36 36 38 41 44 46 47 46 48 46 40 32 32 33 29 29 28 26 35 36 33 36 34 29 22 28 29 26 10 17 21 22 23 23 24 27 27 29 32 29 36 35 34 30 28 27
36 37 37 39 43 47 49 49 49 43 37 32 31 32 35 32 28 31 25 28 34 34 35 35 33 26 32 32 18 23 12 19 21 21 21 24 22 22 23 24 30 23 32 28 28 28 32
37 39 41 43 46 50 51 45 37 34 35 35 34 34 31 26 22 23 22 22 23 25 35 39 33 24 33 21 22 22 19 15 21 22 20 18 18 23 20 18 18 22 15 20 25 27 32
37 39 42 46 49 51 48 37 37 33 32 33 32 30 27 22 21 20 20 16 13 17 31 42 36 19 33 24 24 25 27 21 18 24 21 18 21 25 21 14 17 19 20 23 24 20 24
38 41 45 48 51 51 39 35 30 29 28 30 28 25 22 20 19 17 16 15 13 17 17 41 38 33 37 28 29 24 23 23 23 19 25 25 24 23 22 20 12 19 16 18 20 18 23
39 42 47 50 53 46 33 30 28 29 28 29 26 21 17 15 16 12 12 12 13 14 16 42 41 30 25 34 24 24 20 25 23 23 27 28 28 26 26 26 19 18 22 21 20 16 15
41 44 49 52 54 39 30 27 28 28 26 29 26 16 13 13 11 12 13 18 14 13 24 38 38 26 16 22 27 28 23 24 23 24 32 31 24 32 33 25 17 13 12 12 12 13 22
41 45 49 53 54 35 30 28 30 27 25 26 18 10 11 11 12 16 19 10 11 12 28 36 20 26 14 20 31 28 27 28 25 26 25 28 30 26 19 21 17 16 16 21 20 19 23
40 45 50 54 52 32 29 29 29 26 21 19 11 6 7 11 11 13 16 13 8 14 22 31 29 24 19 23 33 35 33 30 29 24 29 27 17 18 17 15 16 15 17 16 18 23 27
40 45 51 54 44 32 31 32 31 28 21 16 12 9 10 13 14 15 12 8 8 20 12 20 31 28 27 25 28 31 30 27 29 23 11 13 14 13 19 20 16 16 16 18 20 21 11
40 45 50 54 38 33 33 33 33 29 25 24 23 22 22 18 19 16 2 3 17 20 5 24 25 28 28 28 30 31 31 26 24 25 20 12 15 14 11 18 17 15 16 15 15 17 22
39 44 48 52 36 35 32 32 33 31 25 25 22 16 12 12 12 5 9 14 19 6 1 12 25 32 29 18 32 34 28 21 18 21 18 13 12 13 13 12 14 16 15 14 15 15 5
38 43 47 49 34 33 31 31 35 34 28 21 17 16 9 7 8 11 12 21 8 3 4 24 35 35 27 32 31 30 28 26 17 20 17 15 12 11 11 15 13 15 9 2 3 1 7
36 40 45 48 33 30 31 31 34 30 26 20 21 17 16 14 11 16 20 7 4 6 4 13 39 33 28 27 31 30 26 26 17 14 20 13 6 14 11 13 8 15 11 4 4 3 5
35 39 42 45 31 29 30 33 28 25 23 22 21 15 16 19 15 16 10 6 5 10 13 33 37 29 27 22 20 28 25 25 19 17 10 14 5 7 5 10 12 12 11 9 4 5 3
33 36 39 43 29 28 30 32 24 21 25 24 18 15 17 20 20 14 9 6 10 14 31 36 20 15 20 19 23 23 25 20 20 17 10 11 7 7 8 7 12 7 10 6 7 1 4
30 33 36 39 30 25 29 30 24 22 20 21 20 22 24 20 14 13 12 13 19 37 24 11 7 18 23 19 18 20 20 7 26 19 10 12 5 11 11 11 16 18 11 8 4 4 3
27 30 33 35 33 22 26 26 24 25 21 21 18 23 21 29 27 23 22 19 23 24 12 11 9 22 23 16 18 13 18 3 21 21 17 13 7 7 15 5 6 17 19 14 5 3 7
26 27 30 30 32 17 19 18 21 20 22 19 22 25 21 24 29 26 23 22 17 13 11 12 10 13 16 19 13 11 12 8 13 12 23 17 6 5 3 10 18 15 20 21 18 19 17
21 25 27 27 27 20 11 13 12 13 11 11 13 13 16 17 21 21 21 19 18 12 8 9 13 13 25 16 6 15 15 11 16 12 20 9 9 5 5 1 5 12 13 18 22 14 14
19 19 24 25 23 25 10 6 6 3 8 7 5 9 10 11 17 19 18 16 19 20 23 23 23 20 17 11 10 16 16 16 16 16 14 14 8 13 15 12 12 12 14 17 26 31 26
24 15 20 24 22 21 19 5 3 2 4 4 3 11 13 16 14 13 12 13 11 14 12 14 16 12 10 14 5 18 17 16 13 19 18 16 7 9 11 8 12 20 21 22 25 27 33
24 19 16 20 22 20 19 15 3 3 6 2 11 10 7 12 10 9 7 5 9 11 10 11 11 9 10 6 8 8 7 13 6 10 22 16 7 6 4 5 10 12 7 1 8 12 16
20 21 17 17 21 20 18 17 13 6 6 5 11 14 10 10 10 10 7 5 4 4 7 9 9 8 9 8 8 8 7 9 6 6 9 10 11 6 6 6 2 6 1 7 13 12 9
20 18 19 17 18 19 20 18 16 13 10 10 11 15 14 15 13 11 10 8 6 6 9 9 7 6 7 10 9 7 7 5 7 9 10 12 9 5 4 6 10 5 0 6 15 8 6
25 16 19 17 17 18 18 19 19 15 11 13 15 16 18 18 19 15 14 12 7 7 8 12 10 7 9 11 8 5 6 7 6 4 12 12 12 13 3 3 3 4 3 10 14 5 14
25 16 15 17 17 18 19 19 18 19 17 11 16 19 22 24 22 21 18 16 13 10 8 7 7 6 11 12 10 7 5 6 6 7 12 15 17 21 16 6 9 5 5 9 4 8 22
25 22 12 16 17 18 18 21 20 18 22 21 14 21 23 24 20 25 24 20 18 16 13 9 6 7 9 11 8 6 6 8 7 8 6 14 10 9 10 7 9 5 7 9 14 17 17
25 25 16 14 16 19 19 21 22 22 22 23 26 22 27 28 23 29 29 23 20 17 17 12 6 4 8 10 8 6 6 6 9 5 12 8 10 4 9 4 3 8 13 12 14 17 15

GFSGBSN_700_spd_039.txt.gz
Wind_Speed
34 34 36 38 41 45 48 49 50 43 36 31 28 27 30 31 32 34 32 31 28 30 32 36 39 42 28 33 29 9 19 25 25 27 29 30 31 33 33 34 35 39 36 35 33 31 32
35 36 37 39 43 48 51 51 43 37 31 30 25 26 30 28 26 25 23 24 25 25 28 31 40 44 25 32 17 25 9 23 26 27 28 30 30 27 26 29 34 29 35 32 30 31 30
35 37 38 42 46 51 53 48 36 33 31 28 25 28 28 24 21 19 20 18 19 20 17 22 40 39 25 24 19 25 20 15 23 24 26 26 24 27 23 26 24 29 15 29 33 27 30
36 38 40 44 48 52 56 41 33 31 32 29 26 28 25 22 17 17 17 16 15 16 14 21 38 42 31 24 23 22 23 20 25 24 20 19 23 25 21 17 16 18 22 17 22 27 27
38 41 42 46 50 55 52 37 34 34 32 27 28 28 22 17 14 14 13 10 12 13 14 17 43 41 32 25 27 25 29 21 24 25 25 25 24 25 21 17 16 18 14 24 20 20 21
39 41 43 47 52 55 46 36 34 32 29 25 27 25 12 11 10 9 8 7 10 14 13 16 46 30 24 28 26 27 28 27 21 26 28 28 27 28 28 23 20 15 19 19 19 16 20
40 41 45 49 53 50 42 37 36 33 27 23 26 15 9 9 10 13 13 12 6 12 14 18 40 23 25 17 28 27 26 27 25 21 28 28 30 30 28 27 22 16 13 13 14 16 24
41 41 45 48 53 45 40 37 36 35 27 21 20 13 10 10 11 14 13 16 8 10 15 23 26 21 21 24 29 28 26 28 25 27 27 25 33 24 24 26 25 14 13 13 13 18 22
40 42 45 49 51 42 38 37 36 34 31 23 20 18 15 12 15 17 14 15 9 10 10 28 28 33 25 24 32 32 30 25 25 25 28 22 17 21 26 31 25 21 16 14 16 19 24
40 41 45 49 49 40 39 35 38 34 29 27 24 21 22 19 20 18 15 7 8 17 12 29 24 23 29 25 32 33 29 20 22 26 23 20 22 16 13 14 21 14 13 13 16 15 9
41 40 44 47 45 38 38 34 36 33 31 32 27 24 14 13 11 16 4 4 20 16 7 16 30 27 28 26 30 33 30 26 20 24 23 12 20 17 15 15 16 12 11 12 15 15 17
41 39 43 46 41 38 36 33 33 33 29 30 30 25 15 7 2 5 5 16 18 4 5 13 22 27 32 16 35 37 25 20 18 17 5 9 11 11 11 13 13 12 14 13 15 15 3
41 37 40 44 38 37 35 32 29 27 27 26 28 25 19 16 15 18 18 14 5 5 9 20 29 36 28 30 31 33 21 24 14 18 17 17 18 14 11 13 12 14 10 2 3 2 5
37 36 37 40 36 35 33 27 23 24 24 24 26 25 25 18 21 21 16 8 4 9 11 28 40 35 28 26 30 22 23 23 14 11 21 12 7 13 10 15 12 15 13 4 5 2 4
34 32 34 36 32 32 30 24 20 23 20 23 26 21 26 21 18 18 11 14 8 9 23 35 32 29 23 23 22 26 25 22 15 14 6 10 5 15 7 11 11 12 11 11 1 1 2
32 31 31 31 28 26 25 20 16 21 22 22 20 18 22 17 13 15 25 25 30 36 39 29 19 15 19 20 21 15 20 21 16 12 15 9 7 10 11 12 15 9 11 6 6 1 3
26 27 29 28 26 22 20 17 15 20 22 21 21 24 24 28 27 25 28 30 32 32 22 10 10 22 24 22 16 17 21 14 20 15 13 11 6 11 12 10 15 14 13 7 5 3 3
27 23 26 26 24 21 17 13 10 16 25 23 23 23 22 22 24 28 26 24 21 15 14 12 9 22 21 21 18 21 17 10 24 19 13 13 6 8 13 9 10 16 13 12 4 4 3
23 23 23 25 23 22 13 11 5 7 12 16 13 19 15 15 20 23 19 19 13 10 11 9 10 18 14 13 14 20 20 7 20 25 14 12 5 6 4 11 14 14 21 20 16 7 8
24 20 22 22 22 22 19 10 8 6 3 8 8 7 12 13 14 16 15 13 9 5 5 7 10 14 16 12 5 18 15 15 11 23 18 10 8 5 6 1 4 11 19 18 21 9 9
26 16 19 20 23 20 19 15 11 7 7 4 5 0 3 7 5 8 12 12 15 14 8 9 11 11 17 7 8 12 15 13 15 12 17 15 6 11 12 9 9 8 9 13 22 27 17
25 19 15 18 20 20 19 18 11 11 10 9 6 3 10 12 11 11 9 8 8 14 17 19 20 16 7 8 6 12 16 15 11 15 16 16 7 5 7 9 13 20 20 21 20 22 30
25 23 19 16 17 20 19 18 17 11 10 9 9 9 10 10 10 9 9 6 8 9 10 9 8 6 11 5 3 9 8 10 3 11 18 15 6 5 2 5 8 14 13 12 10 10 13
25 24 23 21 13 18 18 18 17 15 12 10 9 13 12 12 11 10 8 7 8 6 8 10 10 9 9 5 8 7 6 13 6 5 9 10 8 6 5 4 2 3 7 4 8 12 10
26 28 27 23 17 13 18 17 16 15 15 12 13 16 18 15 14 14 12 10 8 8 11 11 10 9 8 9 7 5 6 6 7 7 7 10 10 3 2 5 13 8 8 3 8 7 4
24 30 27 23 22 13 14 16 17 16 13 14 12 17 20 22 20 16 14 12 8 9 12 13 12 10 11 12 9 5 5 5 6 5 12 13 13 10 3 4 3 8 5 6 9 1 8
27 27 23 20 23 15 16 15 15 17 18 16 15 12 21 25 23 23 20 17 13 11 10 13 14 12 12 14 11 6 6 7 5 7 11 15 13 16 14 7 8 4 6 6 2 5 16
27 23 20 21 24 19 16 19 18 17 17 22 24 20 19 24 24 28 28 25 22 16 13 9 11 12 12 13 9 7 7 10 7 8 7 14 11 10 11 8 8 7 3 5 9 11 16
25 22 22 23 23 22 16 19 20 22 23 24 26 30 31 31 22 31 34 31 26 24 18 14 10 6 9 11 10 7 7 7 11 5 14 8 14 4 10 4 4 7 9 12 14 13 16

GFSGBSN_700_spd_042.txt.gz
Wind_Speed
34 35 36 37 39 42 46 51 47 39 34 33 32 31 29 27 28 29 28 25 28 27 28 25 30 41 42 31 34 7 17 27 30 31 31 33 34 36 36 37 36 38 37 34 31 33 35
37 37 37 39 41 46 49 49 40 35 33 30 33 30 27 29 28 26 23 19 19 19 19 24 25 41 51 25 27 24 8 24 29 30 31 31 33 32 30 32 33 31 37 34 33 35 36
39 39 39 41 45 48 51 43 39 33 35 30 30 29 30 29 24 22 18 15 17 17 17 15 18 36 45 37 23 26 18 20 26 27 30 30 28 27 25 27 26 30 22 29 34 32 30
44 40 41 43 46 51 46 41 37 35 35 30 31 29 29 24 17 16 14 14 13 12 13 15 16 38 35 40 24 31 24 20 27 26 25 25 26 25 21 18 18 24 23 17 22 30 31
46 41 42 45 46 49 42 41 39 39 36 29 27 27 25 14 12 11 10 8 8 11 8 14 16 33 30 47 20 24 27 19 26 25 22 23 24 25 21 20 15 19 13 30 22 17 20
47 42 43 45 49 44 42 41 38 40 35 29 26 24 16 11 7 11 16 15 10 11 10 15 15 27 28 37 26 21 23 24 29 27 27 27 27 29 27 22 18 16 16 13 22 19 24
49 43 45 47 50 42 40 40 39 40 30 28 24 21 18 13 12 13 14 12 12 4 10 14 16 20 27 28 24 27 25 27 30 29 31 31 33 35 32 23 15 12 13 14 13 17 22
47 42 44 47 50 41 40 39 37 36 28 29 27 22 20 17 13 11 15 13 14 4 12 12 29 21 31 24 30 29 31 27 27 27 15 37 31 27 22 23 19 13 12 10 9 14 21
48 42 40 44 46 40 39 38 34 33 29 31 28 24 18 16 16 17 16 15 7 9 6 17 35 21 24 24 32 30 30 26 25 23 20 13 18 21 21 23 24 16 12 12 12 14 19
46 41 43 44 42 41 37 34 34 32 30 31 31 26 17 9 11 14 13 7 7 14 9 21 21 14 23 21 23 29 26 19 22 20 16 11 15 13 25 21 22 22 19 16 14 10 6
44 38 38 42 42 40 35 32 31 30 28 30 31 26 24 11 8 7 4 12 18 13 6 17 20 17 24 21 35 29 26 18 21 23 20 10 12 10 15 21 19 18 12 11 10 11 13
41 33 32 36 39 38 32 30 29 27 28 28 35 25 23 22 14 11 15 21 5 4 5 9 19 24 22 13 34 34 24 17 18 21 16 11 16 13 12 14 8 8 10 8 11 11 2
39 34 34 35 35 34 27 27 26 24 24 29 29 29 27 28 27 19 18 7 5 8 10 18 18 29 20 29 30 26 20 18 12 15 17 14 19 12 11 13 14 12 8 2 2 1 3
37 29 30 32 32 31 26 23 25 24 22 21 23 21 19 22 20 13 12 10 12 11 10 15 31 26 24 27 24 27 14 26 11 8 16 9 5 12 11 11 7 15 11 4 4 1 3
34 28 27 27 28 27 27 23 23 22 22 24 20 12 7 16 15 11 24 24 10 12 24 30 29 25 21 20 20 11 17 17 14 10 5 7 5 14 12 12 11 12 11 10 1 1 1
31 27 25 27 25 25 23 20 23 20 20 20 20 18 15 11 13 26 31 30 31 33 35 29 14 14 16 21 15 14 15 15 13 14 8 10 7 18 11 12 12 8 6 5 6 1 2
29 29 24 24 23 24 19 15 15 17 18 19 18 15 16 15 19 21 29 34 30 28 22 13 9 21 20 22 12 16 14 13 16 15 13 7 5 9 11 10 13 12 12 6 5 2 3
27 28 24 23 21 21 22 13 10 10 12 15 16 16 16 11 19 23 26 19 19 17 14 9 7 19 22 22 18 15 13 5 18 12 11 9 5 6 10 7 8 11 11 13 4 4 3
28 28 23 21 21 18 21 18 12 11 11 10 10 12 14 12 13 18 19 16 14 12 10 7 12 14 13 18 11 17 13 14 8 17 9 10 4 6 3 8 12 12 18 16 13 5 8
28 28 25 24 22 16 17 19 17 11 11 9 9 5 7 12 11 9 8 8 8 5 6 5 11 11 12 11 10 15 16 15 5 20 15 9 6 4 5 1 2 10 16 19 19 8 8
28 29 27 25 24 20 14 17 18 14 12 12 9 6 6 2 4 6 8 6 2 4 5 7 11 10 12 8 6 10 16 18 10 21 14 13 6 8 11 9 8 8 7 13 23 23 13
28 29 26 24 23 22 16 15 16 17 12 12 12 8 4 4 4 6 5 6 7 7 4 8 10 12 13 6 5 7 13 13 11 17 15 14 8 5 5 9 12 17 16 18 17 18 24
30 29 29 26 25 23 18 13 14 15 13 12 10 10 9 7 7 5 5 2 5 9 11 11 10 8 6 4 6 6 11 8 3 7 15 12 9 3 2 5 7 14 12 20 19 15 11
31 30 31 28 28 24 20 15 12 13 12 10 11 9 13 12 11 9 8 6 7 5 4 8 7 7 6 2 7 9 8 8 8 6 12 7 10 5 5 3 1 2 3 6 4 6 10
30 30 32 29 28 22 19 17 13 11 12 10 9 12 14 18 14 15 12 11 11 9 8 11 9 9 8 7 9 7 6 9 9 6 8 12 11 3 3 4 11 8 9 3 4 2 5
31 30 33 30 26 20 17 18 18 12 11 11 10 9 15 18 20 18 16 16 14 12 11 14 13 12 10 12 9 6 7 7 7 6 11 11 12 10 4 3 4 4 12 6 5 3 5
32 32 32 29 24 19 17 21 17 17 15 14 13 13 13 13 18 21 22 20 17 15 13 14 15 14 14 14 12 7 6 9 8 10 12 15 14 17 11 6 7 6 4 8 2 1 7
33 31 28 25 23 21 20 19 25 18 18 19 20 18 19 20 16 19 25 26 23 20 16 11 14 17 15 14 11 7 8 10 8 9 9 13 13 9 11 7 9 8 9 4 1 7 8
31 28 26 24 23 19 19 21 25 28 23 25 24 28 30 30 24 22 23 32 32 26 22 17 14 6 12 10 12 9 8 7 11 6 15 9 11 6 9 3 4 9 10 5 10 11 10

GFSGBSN_700_spd_045.txt.gz
Wind_Speed
42 45 39 37 39 43 47 43 38 37 36 34 32 29 32 31 28 28 27 24 22 24 25 23 25 21 35 41 45 17 22 28 32 32 31 32 35 37 39 39 38 38 35 35 30 31 31
44 46 39 38 41 44 45 39 37 36 34 32 28 30 31 28 30 27 21 19 19 18 18 17 18 22 31 45 33 16 16 29 33 33 32 29 34 34 32 34 36 29 35 30 28 31 33
45 49 41 39 42 45 39 38 37 34 34 34 28 28 27 27 25 17 15 14 13 13 14 14 15 17 30 44 41 27 15 28 32 27 30 28 30 32 29 27 26 31 20 27 31 31 32
45 49 43 42 45 43 39 39 36 36 37 31 26 30 23 23 15 12 12 13 10 10 10 10 14 15 35 37 20 29 21 21 32 25 27 26 23 24 24 19 20 22 25 23 24 32 34
44 48 42 42 45 41 41 38 37 37 37 29 28 27 20 17 11 9 12 16 7 6 8 7 18 16 30 31 37 11 26 20 29 29 25 28 24 25 23 21 17 22 17 28 21 18 19
43 47 41 42 45 40 41 39 38 39 35 30 32 27 22 16 12 11 11 11 9 12 8 7 9 11 25 17 39 21 25 17 29 30 28 29 25 28 26 26 22 20 19 11 23 25 23
42 46 42 43 46 41 41 39 39 38 36 32 34 28 21 20 13 11 9 12 10 8 7 10 6 11 17 21 36 31 30 22 29 32 36 33 34 38 33 26 9 16 15 18 13 20 18
41 43 39 42 44 41 39 38 38 36 36 33 31 28 21 14 10 9 11 14 11 1 8 7 14 17 25 24 29 28 24 28 35 37 32 31 34 28 27 22 19 13 14 10 10 12 16
40 41 36 38 39 38 36 38 36 35 36 35 28 28 22 13 6 8 13 12 3 8 11 14 31 22 24 24 23 31 26 24 23 31 27 29 26 23 25 25 19 13 13 11 9 9 12
39 39 36 37 36 35 33 38 35 34 35 34 30 31 23 16 9 6 7 7 16 14 10 19 20 21 19 25 26 28 11 25 16 21 14 13 28 22 23 27 23 16 13 12 10 5 3
38 36 34 34 36 33 32 36 35 32 33 31 32 35 35 22 15 15 19 19 13 8 5 16 12 19 19 16 27 24 16 12 15 15 7 8 6 12 16 23 24 16 19 16 10 6 7
36 36 32 31 33 30 30 33 32 30 31 26 26 29 29 24 19 20 16 12 9 6 6 3 16 22 19 11 26 27 17 14 15 13 13 11 11 10 13 13 18 17 16 10 5 4 2
32 34 31 30 30 27 27 29 29 28 29 27 19 20 20 18 17 19 19 15 8 10 6 11 17 21 17 28 24 28 15 19 11 14 14 12 17 6 12 13 13 14 13 3 1 2 3
30 32 32 28 27 26 21 24 27 27 26 29 25 16 15 17 18 17 22 22 16 9 13 15 24 19 26 24 23 19 20 17 9 9 18 8 9 16 10 10 6 14 9 2 3 3 1
31 32 31 28 26 24 19 16 21 24 25 28 25 18 13 14 10 19 21 16 6 14 20 26 21 23 19 14 20 13 10 15 11 13 5 7 6 11 12 8 8 12 10 7 4 1 1
31 31 31 29 26 23 20 13 13 18 20 24 24 18 13 11 6 9 16 16 13 26 27 19 11 10 16 14 16 9 4 18 13 11 8 9 9 11 13 11 10 7 10 5 6 3 3
34 31 31 30 27 24 20 16 11 10 18 20 20 19 14 6 8 15 27 23 24 28 16 7 5 15 18 20 15 11 11 13 13 13 11 9 4 11 11 11 12 12 12 5 6 3 3
34 31 30 31 29 25 22 18 14 12 12 17 17 16 12 6 10 17 16 13 17 13 9 4 6 14 16 21 17 11 10 5 15 10 12 9 5 7 13 8 11 14 13 13 5 5 5
31 31 29 29 30 25 20 18 17 13 12 10 13 8 11 4 5 11 12 13 11 7 3 2 6 10 13 18 8 12 12 6 16 13 8 9 5 7 4 8 14 14 17 16 15 7 9
29 29 28 27 29 27 22 17 16 15 12 9 10 7 6 5 5 3 4 7 6 7 6 1 10 8 11 14 13 13 13 12 8 12 13 9 8 5 6 2 4 11 15 19 19 9 7
29 28 28 28 28 29 25 16 16 14 14 11 6 6 8 3 2 4 4 2 5 8 8 6 10 8 10 9 11 9 16 15 11 12 15 13 8 8 8 8 7 6 7 13 24 25 13
27 28 28 28 27 29 27 22 15 12 12 11 8 6 5 4 3 5 2 4 5 3 5 9 8 10 10 7 5 5 14 16 15 13 19 16 6 9 8 10 13 16 15 17 16 19 24
28 29 30 31 30 30 30 24 14 12 10 12 8 8 8 7 7 6 5 4 6 7 7 5 7 7 6 5 4 4 8 8 5 6 18 13 11 5 4 5 8 14 14 22 21 20 13
30 31 31 32 30 31 30 25 15 12 9 8 9 7 9 12 11 10 7 5 8 5 6 7 5 6 4 1 4 8 9 7 6 5 10 10 9 5 3 3 2 4 2 1 7 6 9
32 33 32 34 32 30 28 23 17 13 12 10 8 6 10 14 15 14 14 11 11 10 7 9 7 8 5 4 6 6 6 7 8 6 10 13 9 4 3 4 8 7 7 4 5 6 6
31 34 33 34 33 30 24 21 18 15 14 13 11 9 8 9 16 19 16 15 14 13 11 12 13 11 9 9 9 5 6 6 8 6 12 13 13 11 4 3 4 4 9 10 5 8 9
32 34 35 33 29 26 22 20 20 19 15 15 14 13 13 12 9 13 17 20 19 18 17 15 16 15 14 12 13 8 6 7 7 9 12 16 15 18 13 5 8 9 16 12 4 6 1
32 34 34 30 27 23 22 21 19 19 20 17 19 16 16 18 16 17 17 22 23 22 19 15 16 21 17 16 11 9 9 11 7 8 10 14 13 11 15 8 10 9 13 11 9 2 2
33 31 29 28 27 24 20 19 19 17 23 22 18 25 26 23 21 22 19 20 27 26 26 23 17 8 17 12 14 10 10 7 12 6 15 11 12 6 9 3 4 9 11 12 6 3 4

GFSGBSN_700_spd_048.txt.gz
Wind_Speed
37 41 43 37 38 41 40 39 36 34 32 31 30 28 23 25 25 25 25 20 19 19 20 21 22 22 21 27 42 22 23 34 32 33 34 35 34 34 32 35 39 40 28 36 29 32 27
38 41 43 39 40 43 39 38 35 33 35 34 29 27 26 26 20 21 19 15 13 12 14 15 18 21 21 26 44 23 16 24 32 35 34 32 35 32 26 27 35 35 28 28 34 27 31
37 42 43 39 41 40 39 36 36 36 36 31 29 29 26 23 19 13 10 11 10 8 9 10 15 20 23 19 35 43 25 26 36 36 35 30 31 32 28 29 32 14 27 29 25 29 31
37 41 42 39 41 38 36 36 36 36 37 32 30 30 28 18 14 7 8 14 6 5 7 9 12 17 22 19 33 38 33 27 33 31 28 26 27 32 22 20 22 26 16 17 28 32 31
37 40 40 37 40 37 35 38 37 38 38 32 33 31 28 21 11 8 7 10 7 5 4 6 12 16 12 27 36 33 26 18 29 31 28 25 24 30 26 20 15 22 17 25 13 23 27
37 40 39 37 39 35 34 39 38 38 40 36 36 29 26 18 11 9 8 6 8 10 6 4 11 11 13 29 30 19 22 21 30 34 28 28 27 26 24 26 26 25 23 18 20 19 21
35 39 39 35 37 34 33 38 38 38 41 38 36 29 23 16 13 9 4 6 8 6 6 5 8 12 22 23 35 22 30 28 33 34 36 34 29 34 28 25 12 15 19 13 15 24 22
34 38 39 34 34 33 32 36 37 37 33 37 41 34 23 18 9 3 3 9 5 4 9 7 11 21 29 26 30 28 36 31 35 39 30 33 31 23 22 22 12 13 15 14 15 14 19
33 36 39 33 33 31 33 35 35 35 29 31 35 33 29 18 9 5 6 5 8 11 8 10 20 25 12 26 25 25 25 21 34 34 32 37 26 22 25 21 17 13 14 14 8 13 13
33 34 37 34 31 29 30 34 35 33 29 26 29 29 26 30 22 20 19 18 17 12 9 15 17 14 24 22 20 33 16 37 37 33 32 23 19 25 24 22 17 14 15 13 11 6 6
32 33 36 36 29 28 25 31 32 31 32 27 28 28 28 28 30 26 23 19 15 6 3 8 11 14 19 17 25 17 9 18 29 45 20 14 29 27 23 25 20 12 17 12 8 6 6
33 33 34 36 29 26 24 26 29 29 31 31 27 26 27 25 22 20 20 13 10 7 9 9 10 18 20 14 18 17 10 28 23 14 7 16 21 26 32 31 24 17 15 10 8 4 4
32 34 33 35 31 25 25 20 24 24 30 32 31 23 22 16 14 11 15 16 16 10 6 8 21 17 13 19 17 15 13 15 12 15 12 9 16 15 15 22 23 20 17 4 3 4 3
31 34 32 34 32 25 23 21 19 21 25 28 30 29 24 12 10 14 17 22 15 13 15 20 17 19 15 15 18 14 14 12 11 6 18 5 5 11 18 17 11 21 20 4 4 4 3
31 32 30 31 33 26 21 22 18 19 20 23 26 25 21 12 10 10 15 17 7 10 18 15 15 13 14 8 16 8 17 14 12 13 5 6 6 11 12 10 13 14 8 7 4 1 1
28 30 28 28 31 28 21 18 20 18 16 19 21 20 15 15 10 1 13 15 12 24 19 9 4 7 6 14 13 7 9 12 12 11 10 8 9 10 12 12 11 9 13 5 5 4 4
29 31 28 26 28 28 25 17 19 19 14 14 15 16 13 12 10 5 10 18 22 17 9 3 1 9 10 15 13 7 5 13 11 11 8 11 5 11 12 10 11 12 10 7 6 3 2
29 30 29 27 26 28 26 21 16 17 15 11 9 9 9 9 4 10 15 12 17 5 3 2 1 5 15 17 14 9 8 8 13 12 10 9 7 9 11 11 14 16 13 11 5 5 5
28 26 27 26 27 28 28 24 13 17 15 8 6 5 7 4 1 6 7 12 8 3 2 2 2 6 9 16 10 11 9 7 16 14 10 10 6 8 5 9 15 15 19 19 18 8 7
23 25 26 27 29 29 28 27 18 15 14 10 5 2 3 2 2 3 5 8 7 6 4 4 3 5 8 14 10 12 12 10 15 14 11 8 8 6 4 2 5 12 18 20 20 9 9
24 25 27 28 29 30 30 27 24 12 15 11 5 4 1 2 2 3 5 6 9 10 9 6 5 5 7 10 11 9 13 13 13 13 13 12 7 10 6 4 4 4 8 17 25 24 10
25 24 27 28 30 31 31 28 24 12 11 11 7 7 5 5 5 7 5 3 2 3 8 10 10 9 9 7 7 6 12 17 13 13 12 13 7 8 7 9 11 15 16 16 16 23 29
21 26 28 29 30 33 32 31 23 15 9 11 8 7 10 9 10 8 6 5 4 4 3 6 8 10 10 9 6 4 6 8 9 12 12 13 10 6 3 8 9 14 20 26 24 23 18
23 28 29 29 32 33 32 30 24 17 11 10 7 5 10 12 12 12 9 7 8 5 4 7 7 6 6 5 6 7 9 10 5 6 8 6 10 8 3 2 4 7 7 7 13 20 20
28 30 31 31 33 35 32 28 24 15 13 11 10 7 6 12 15 15 13 11 9 10 7 9 8 7 6 5 8 8 7 6 7 5 7 10 9 3 2 6 12 9 10 6 5 9 11
27 29 30 32 34 34 30 25 21 18 14 13 14 11 9 8 13 18 18 17 15 14 13 12 12 11 10 9 8 5 6 7 8 6 13 14 13 8 4 3 4 3 8 10 7 6 12
27 30 31 33 33 31 26 24 21 17 15 14 14 15 14 13 11 11 17 20 19 19 16 15 16 17 15 13 11 8 6 8 8 9 12 17 15 15 12 7 10 10 10 11 6 7 15
33 31 31 32 31 28 25 23 21 19 14 14 14 14 20 22 15 17 15 17 22 22 22 18 17 21 19 17 11 10 10 11 9 9 10 14 12 10 12 8 10 10 14 13 10 8 8
33 31 31 28 28 25 25 22 16 15 16 16 17 16 17 20 20 18 18 18 18 25 25 26 24 14 20 14 17 11 11 10 13 7 14 10 13 8 12 7 6 8 15 17 15 12 9

GFSGBSN_700_spd_051.txt.gz
Wind_Speed
35 38 40 36 35 36 34 34 35 35 35 36 32 30 29 27 25 20 18 18 17 14 13 18 22 24 24 26 28 19 40 29 34 33 33 33 30 33 26 28 26 31 14 25 20 32 30
35 38 40 36 36 36 32 34 36 35 36 34 29 32 32 29 30 16 9 12 13 10 8 11 17 22 23 23 18 20 28 40 34 28 33 33 30 28 22 17 24 23 19 18 21 26 26
35 38 39 36 36 35 32 35 36 35 32 34 31 35 34 28 27 8 2 9 7 7 5 7 12 17 20 19 17 29 25 41 30 29 33 30 24 27 21 19 24 12 23 14 21 23 27
34 37 40 38 36 34 34 35 36 33 33 36 32 34 31 24 16 7 3 6 8 7 3 6 8 13 21 19 22 33 27 30 34 33 31 29 26 25 14 22 19 14 18 22 20 24 28
34 36 39 38 35 34 34 34 35 33 31 36 40 40 25 22 12 7 7 6 7 6 6 3 9 11 11 17 28 32 25 21 25 31 28 26 29 31 22 19 14 22 18 24 16 24 22
34 35 38 38 34 34 34 34 34 32 29 34 38 42 30 21 8 10 6 5 7 8 5 2 6 7 7 12 26 42 28 22 29 34 31 29 27 32 21 23 25 26 28 21 26 15 26
32 34 35 37 33 33 33 33 32 32 30 32 38 37 34 22 9 7 2 4 7 5 2 5 7 10 13 20 26 35 36 28 30 34 36 32 28 35 33 29 16 17 23 18 17 21 15
33 33 33 36 34 32 31 31 30 33 31 30 34 36 33 25 12 3 3 7 2 3 4 3 10 13 20 22 19 20 26 31 35 35 31 29 31 25 22 22 19 9 19 19 14 20 21
33 34 33 35 34 30 30 30 29 31 31 30 32 34 29 28 22 15 6 6 9 7 4 1 7 23 15 23 13 24 25 22 30 32 34 32 28 26 23 24 19 14 16 18 8 17 13
33 35 34 34 34 29 29 28 26 31 31 31 28 30 22 22 25 30 21 15 12 11 8 7 4 15 26 16 15 21 24 30 31 29 26 20 16 22 23 22 20 16 14 14 10 11 10
32 33 34 33 32 29 26 27 24 27 32 31 29 23 14 13 12 15 15 12 7 6 3 3 7 15 12 11 21 21 16 30 25 34 28 11 22 22 22 20 18 12 18 12 9 8 3
34 33 34 31 30 30 24 25 23 24 29 31 30 22 18 6 12 10 11 10 9 6 7 6 14 12 16 26 9 15 15 30 21 30 28 9 28 22 21 24 19 15 18 13 9 3 5
30 32 31 29 29 30 25 23 23 20 24 28 28 23 20 12 16 11 10 11 10 9 9 12 15 9 15 18 21 19 20 24 19 12 6 19 25 21 29 30 22 19 18 7 5 4 3
29 29 30 28 29 30 28 21 23 21 16 24 25 21 17 14 16 11 11 17 13 12 16 15 10 9 17 13 11 14 14 15 16 11 13 4 7 19 23 32 23 20 20 6 6 6 6
26 28 30 28 28 29 28 25 21 21 16 17 20 18 12 11 11 11 5 11 7 10 13 13 8 8 10 6 8 6 12 7 8 10 4 4 5 7 22 25 26 28 19 7 1 3 2
29 27 31 28 28 28 29 26 23 20 18 11 14 15 13 12 5 5 3 11 9 16 12 5 2 4 4 8 6 8 7 8 9 11 6 5 8 8 10 10 7 12 19 8 3 4 5
25 27 27 27 27 29 28 26 24 18 17 9 10 9 9 11 14 4 2 15 16 7 6 3 1 4 5 10 7 4 3 9 11 11 6 11 4 8 12 8 9 11 8 7 4 2 3
23 22 22 25 27 28 28 27 25 21 16 12 6 5 5 6 6 7 10 17 10 6 6 7 4 5 7 9 7 3 5 6 11 9 5 5 5 7 7 13 14 13 10 12 5 4 4
17 21 22 24 25 28 29 28 25 22 16 13 5 4 3 2 2 5 8 8 7 3 4 7 5 0 5 6 3 5 6 4 11 11 6 6 2 6 3 7 13 17 17 11 12 6 6
18 21 23 25 25 27 30 30 27 22 17 14 7 5 5 2 2 4 5 8 7 6 4 5 2 1 3 5 7 6 5 6 10 13 9 6 5 5 1 1 5 13 18 20 20 9 8
21 23 23 26 25 26 30 32 30 23 17 13 10 7 6 5 6 6 7 6 10 8 9 6 3 3 4 3 4 3 6 8 10 13 12 9 6 10 9 6 5 4 11 19 25 25 13
23 21 25 29 28 28 30 32 32 25 16 14 11 9 10 9 7 6 6 5 7 10 12 9 8 7 6 3 5 6 8 8 8 14 12 12 7 9 11 13 13 16 16 15 19 23 26
20 24 29 31 31 31 33 34 31 28 18 12 13 10 11 10 11 9 8 7 5 2 2 8 9 6 6 8 8 8 6 9 9 9 10 10 9 6 3 8 10 15 22 24 23 20 18
24 27 28 29 31 34 35 35 30 26 17 11 12 10 9 13 15 16 13 12 10 7 3 3 6 7 9 7 7 8 6 8 9 11 10 8 9 7 4 2 5 8 9 8 19 21 23
28 23 22 26 29 33 35 33 27 23 17 12 12 12 10 10 14 17 17 14 11 10 7 8 7 6 5 3 5 5 5 5 7 6 10 11 8 4 5 9 13 11 10 9 7 8 16
22 21 23 29 28 30 30 29 24 18 15 13 13 13 14 12 12 14 18 18 16 9 12 12 12 10 8 6 7 4 6 6 6 6 13 13 12 9 4 4 4 1 6 8 5 3 7
19 23 26 27 26 25 26 25 25 19 14 12 12 14 15 18 17 14 14 19 20 18 15 15 16 15 13 11 9 7 5 7 6 8 9 14 12 15 12 6 9 9 7 8 5 5 12
24 26 28 28 23 24 23 24 21 18 15 11 11 13 16 18 21 22 18 16 19 21 19 16 15 20 19 16 11 10 10 9 9 7 9 14 10 10 13 7 9 7 12 9 11 10 12
22 23 26 24 21 21 22 21 19 16 15 11 14 16 18 20 17 22 29 21 20 21 26 26 21 12 15 12 14 10 12 9 11 7 13 10 12 9 11 6 10 7 12 17 14 12 13

GFSGBSN_700_spd_054.txt.gz
Wind_Speed
34 36 37 38 36 35 33 32 36 36 34 33 37 32 33 36 30 25 22 15 14 14 14 15 16 20 25 26 30 9 21 41 28 29 28 29 29 31 29 34 26 31 14 25 17 25 29
33 36 37 38 36 34 33 32 36 35 34 34 37 34 34 32 24 20 6 5 10 9 8 9 11 17 20 22 20 18 22 37 40 34 29 30 28 29 24 11 25 27 20 15 22 28 27
34 36 37 36 36 33 32 33 35 36 34 35 38 36 36 28 19 10 3 1 7 8 4 6 9 11 19 21 16 27 28 34 37 36 29 30 27 23 18 19 23 11 26 15 23 27 27
35 37 38 36 37 33 32 32 35 36 35 36 39 37 37 24 17 6 4 3 7 8 6 4 4 9 14 19 19 32 33 34 34 34 31 28 31 28 17 22 18 19 21 22 17 18 19
37 38 37 35 36 33 32 31 34 35 35 34 36 38 36 22 15 2 4 4 8 8 9 4 3 4 4 11 15 34 24 33 33 29 27 29 32 32 20 20 20 21 15 30 19 22 23
37 39 38 35 36 34 32 30 32 35 32 30 33 36 33 23 16 3 3 4 9 11 4 3 3 3 3 7 13 34 18 33 31 30 32 33 34 30 28 24 25 27 21 28 26 26 23
35 38 38 35 36 34 31 31 29 34 32 27 29 31 32 21 14 7 5 5 8 7 5 5 2 3 9 14 15 36 27 30 30 35 35 33 34 41 37 32 14 13 25 20 23 13 22
34 37 37 36 35 33 31 31 26 31 33 28 23 24 30 27 15 9 6 8 8 5 5 5 3 7 9 13 19 20 31 30 39 40 36 33 34 30 25 19 18 12 13 25 14 25 21
35 34 35 34 34 33 31 30 25 28 32 31 20 16 21 27 26 24 18 14 10 8 7 7 0 5 12 19 20 24 19 16 35 28 32 27 22 25 25 21 21 14 12 22 18 16 18
32 32 35 31 31 32 31 30 28 25 29 31 27 15 12 15 20 18 19 16 12 10 7 7 7 7 19 19 9 22 21 24 33 28 22 18 14 26 27 25 23 17 13 12 17 12 4
29 31 30 30 29 31 30 31 28 24 25 30 29 20 13 17 17 12 10 6 9 5 2 4 10 19 15 1 22 30 11 30 31 31 22 13 22 30 26 28 25 14 20 12 10 9 3
26 28 30 30 28 29 30 30 31 25 22 24 28 21 18 19 16 13 9 7 9 6 6 8 6 11 21 14 14 15 21 24 25 24 19 13 20 21 14 24 21 17 19 14 9 7 3
25 27 28 30 29 29 30 29 31 26 23 19 23 21 17 19 16 18 11 5 8 8 7 15 8 16 24 16 11 9 19 24 17 14 20 7 18 23 17 22 20 20 18 6 3 3 3
25 27 28 29 30 30 31 28 29 28 22 17 18 19 16 13 11 15 11 9 12 9 16 13 17 15 20 20 15 11 28 23 18 13 13 7 6 25 26 22 15 21 21 4 4 4 4
23 25 26 26 28 30 30 27 28 27 20 17 15 16 12 11 9 11 7 9 5 8 15 9 11 6 8 4 9 14 18 16 9 11 9 5 4 21 22 26 19 23 24 11 4 2 5
20 22 20 23 26 29 31 29 26 28 19 17 12 12 10 14 9 8 7 7 7 13 8 8 4 6 4 7 6 7 6 9 11 9 6 5 7 7 20 28 26 23 22 9 6 2 3
19 16 19 22 25 27 30 33 28 25 25 16 11 10 10 9 10 8 3 8 13 8 7 6 6 4 6 6 9 5 3 9 13 10 9 10 4 6 10 7 16 25 19 13 8 4 2
16 17 19 21 25 24 27 31 32 25 23 16 12 9 8 8 8 7 3 11 8 6 8 8 7 8 6 7 4 4 7 7 12 10 9 8 8 8 7 10 11 13 11 22 6 4 5
18 19 21 21 24 24 26 29 30 31 27 21 11 8 5 6 4 7 1 6 3 4 6 5 3 5 8 9 3 3 4 6 13 11 7 6 4 8 3 8 16 18 19 18 17 9 7
18 21 20 21 26 27 28 27 29 30 30 22 11 7 6 4 2 2 4 5 5 4 2 2 3 5 8 5 6 7 6 6 10 10 8 6 6 4 4 3 6 14 21 21 20 11 6
18 20 22 24 27 29 31 29 30 28 28 20 12 7 8 7 5 7 8 6 6 6 7 5 0 4 6 4 5 5 8 8 8 9 10 9 5 7 8 7 6 5 8 20 26 26 12
18 20 22 25 26 28 30 34 34 31 26 18 11 9 7 11 9 5 2 5 5 9 10 6 5 3 5 2 5 6 6 5 5 10 11 12 5 6 10 11 13 15 14 15 18 23 28
21 24 24 24 25 25 28 32 34 32 27 19 13 8 8 8 11 6 8 8 4 2 5 8 7 5 5 9 10 7 9 10 7 9 13 11 7 4 3 7 8 14 21 23 23 20 18
22 23 24 23 23 30 30 30 30 27 24 18 12 12 7 7 10 14 14 15 13 8 4 1 7 9 9 11 9 7 7 8 12 12 10 10 9 7 3 3 2 5 8 9 12 20 22
25 22 20 21 26 29 30 29 26 25 21 17 13 12 10 8 7 15 20 16 13 10 7 6 6 5 5 5 5 3 2 1 4 7 13 10 7 3 4 8 12 17 14 8 7 8 13
26 24 24 24 26 28 27 25 25 21 19 15 12 12 12 9 14 11 12 17 15 9 9 11 9 8 5 6 6 5 5 5 6 3 12 14 14 10 7 4 3 4 7 5 6 6 7
31 27 24 24 26 28 28 26 23 21 17 14 12 13 12 13 13 15 16 13 19 17 12 5 11 12 9 8 8 6 5 6 6 6 7 14 13 16 12 8 9 10 12 5 4 6 5
29 24 23 24 26 26 24 26 24 20 15 12 11 13 16 15 14 14 20 19 15 19 20 14 13 13 15 15 9 9 11 9 9 8 8 15 11 11 14 8 10 9 7 10 8 8 8
29 22 21 22 25 27 25 24 23 21 17 14 14 15 19 19 17 19 18 21 25 20 20 25 14 11 15 10 14 8 10 8 13 8 15 12 15 10 11 9 10 7 7 13 12 8 9

GFSGBSN_700_spd_057.txt.gz
Wind_Speed
35 37 38 37 34 35 34 32 31 33 33 30 32 38 38 36 27 20 18 10 5 8 12 14 14 15 21 25 28 14 19 27 42 31 35 31 34 34 36 36 35 39 31 36 21 27 21
35 38 37 37 35 36 34 32 31 33 32 30 32 37 39 32 22 15 8 4 6 6 8 9 10 10 17 25 20 16 20 40 46 39 35 32 34 31 33 28 31 33 21 21 25 32 23
36 37 37 37 35 36 34 31 30 32 33 29 31 36 38 31 21 10 3 5 8 7 6 6 5 8 16 14 10 21 22 34 39 32 39 32 27 32 27 18 26 9 27 20 29 26 28
36 36 38 37 34 35 33 31 29 30 34 28 29 33 37 32 19 6 3 5 8 9 9 7 3 4 2 12 15 24 26 35 42 34 24 26 28 26 28 19 25 16 23 24 35 17 25
35 35 36 36 34 34 33 30 28 30 33 29 26 31 35 31 19 7 4 6 11 13 9 5 2 1 4 10 19 17 23 35 40 36 30 29 31 28 20 23 28 22 19 32 28 30 26
34 35 34 35 32 33 33 31 29 28 33 32 24 27 31 34 17 8 5 6 11 12 7 6 4 4 5 9 20 22 32 35 40 40 35 38 33 31 28 30 31 38 26 36 31 27 28
34 34 33 34 31 32 33 31 30 28 31 33 26 21 27 33 24 11 8 8 10 9 10 12 5 6 1 7 8 25 31 18 39 41 41 37 40 45 39 34 21 27 28 20 29 20 28
33 33 33 31 30 30 33 32 29 29 28 33 30 20 22 24 25 21 18 13 13 10 11 14 9 4 3 6 7 29 25 23 28 45 43 38 40 39 36 22 17 16 22 21 17 25 22
30 31 30 31 30 31 32 33 30 29 26 29 30 24 16 21 20 19 21 18 14 11 12 14 8 3 2 6 13 27 17 24 24 35 37 33 27 32 30 31 20 16 18 17 21 26 25
28 29 30 30 30 32 34 33 32 29 27 24 28 24 18 17 15 16 15 14 13 10 6 14 11 8 12 10 13 20 12 27 28 27 26 18 21 31 27 29 22 19 15 5 21 22 19
27 28 29 29 30 31 32 31 31 29 24 22 24 21 20 17 17 19 17 11 9 9 4 6 4 17 18 10 17 21 10 20 28 35 23 12 24 29 32 30 21 14 13 12 15 15 9
26 28 27 28 27 29 32 30 29 27 22 21 20 20 18 13 15 21 19 12 7 4 4 2 4 4 9 13 12 20 20 29 30 25 15 15 20 23 27 31 22 13 18 13 12 9 4
24 26 26 23 24 28 30 30 29 28 20 21 19 20 15 16 13 19 17 10 6 9 11 21 22 22 18 20 16 20 26 26 18 16 13 9 20 22 23 27 23 21 21 4 1 1 6
23 23 23 20 23 25 29 31 29 26 21 20 16 18 17 17 11 15 12 9 14 9 16 18 19 24 22 10 17 20 19 19 19 13 18 7 6 20 18 26 23 25 24 9 6 4 4
21 21 19 21 22 25 25 28 28 27 25 17 14 14 13 17 11 12 7 8 8 8 10 11 9 10 11 13 14 23 18 17 15 12 8 11 7 17 17 21 25 28 23 12 2 3 3
20 19 20 21 22 23 23 25 28 27 26 19 15 11 11 12 12 10 7 8 9 12 9 10 8 8 9 10 8 9 10 4 18 10 12 6 6 13 23 23 22 24 25 10 7 2 4
20 20 19 21 22 23 25 25 25 26 27 25 16 11 10 11 11 10 5 17 15 9 6 5 6 5 8 12 10 8 5 9 9 12 7 9 4 8 19 20 28 22 25 15 9 5 4
17 18 20 21 22 25 26 27 25 23 27 28 18 9 8 8 9 10 13 13 10 9 8 7 8 7 7 10 7 5 9 8 13 10 11 9 6 7 8 10 21 30 26 26 10 5 4
17 19 20 21 23 24 27 29 28 29 29 25 19 10 7 5 2 6 6 7 5 7 6 6 5 7 11 7 3 3 7 12 19 16 13 9 7 8 3 3 10 19 32 27 25 9 9
18 20 21 23 24 26 26 28 28 29 29 25 18 7 4 5 4 2 3 1 1 1 1 3 6 8 12 9 5 6 7 11 15 11 11 10 10 6 10 3 10 19 21 19 20 13 15
19 20 21 24 23 23 24 26 30 30 28 22 16 7 7 4 3 5 5 3 4 3 2 3 4 9 8 3 6 6 9 10 12 13 12 10 8 10 7 5 6 8 16 28 30 28 17
19 20 21 20 22 23 26 27 26 27 25 22 16 11 7 7 6 3 5 3 4 5 7 5 7 7 9 6 8 9 6 8 9 13 14 14 7 9 9 11 11 14 15 16 27 31 34
21 24 26 24 23 24 27 29 29 26 25 23 18 12 8 7 7 7 9 8 5 6 2 7 8 10 12 9 9 8 8 8 7 8 13 12 12 7 5 8 9 15 24 27 25 25 23
22 25 26 24 25 25 27 29 30 29 27 22 16 11 7 6 7 9 11 12 12 11 7 3 11 12 9 11 11 11 10 12 14 11 9 10 11 8 4 5 1 3 4 6 14 19 27
23 26 25 26 25 26 28 28 28 27 24 21 17 11 8 7 11 12 14 17 16 12 9 6 6 11 8 8 5 4 5 7 10 13 15 12 10 5 4 8 13 14 12 13 12 11 14
25 26 25 27 26 28 28 27 28 25 25 21 19 14 11 10 9 11 12 9 13 13 12 10 9 8 6 8 8 5 5 5 6 4 12 16 12 9 7 4 4 3 3 6 8 12 10
24 25 27 29 27 28 28 27 27 26 23 20 19 17 13 11 8 10 14 13 11 15 15 15 12 12 10 11 10 7 6 7 5 8 8 16 19 18 14 7 11 11 8 6 6 4 4
21 21 23 27 27 27 26 28 27 24 22 20 19 19 18 15 15 9 12 17 19 15 19 16 9 14 14 14 9 9 10 11 12 9 9 12 13 13 16 6 10 6 9 10 6 4 2
19 17 20 23 26 27 27 27 26 25 24 21 19 20 21 18 17 20 18 17 19 23 19 22 16 13 15 13 14 8 10 7 12 7 15 10 16 11 12 7 7 4 7 7 8 4 7

GFSGBSN_700_spd_060.txt.gz
Wind_Speed
32 33 35 35 32 32 31 32 30 28 31 30 27 29 39 38 29 19 13 8 7 4 5 8 12 13 15 21 21 13 30 29 33 42 33 34 38 38 39 39 38 39 31 36 35 35 33
32 33 36 34 32 30 31 32 29 28 31 32 27 30 38 35 26 13 8 10 10 9 8 7 7 9 13 22 17 23 27 28 32 46 32 32 37 34 36 38 37 37 18 20 29 26 15
32 34 36 34 30 29 32 33 30 28 32 33 27 27 36 32 23 10 7 10 12 13 12 8 7 7 8 4 12 30 22 25 41 49 33 31 32 32 33 31 34 18 25 23 29 26 21
32 35 36 34 28 29 32 33 31 28 30 33 29 24 32 31 20 7 4 9 13 16 12 7 4 1 5 13 11 21 15 21 46 39 35 30 32 25 31 23 28 14 31 24 30 33 28
32 35 35 31 28 29 32 33 30 29 27 33 31 21 27 28 20 7 7 7 12 15 10 8 2 3 6 13 13 19 17 26 48 43 40 34 38 28 33 23 31 22 27 33 27 32 35
31 34 33 31 29 29 30 32 31 28 27 30 31 23 22 24 21 11 8 10 10 7 8 6 3 4 6 8 19 18 16 32 29 48 42 37 43 34 35 35 32 34 31 36 32 36 31
30 31 32 31 30 30 29 29 29 29 27 27 29 25 20 21 21 16 13 13 9 12 12 10 5 9 6 7 10 17 19 29 20 35 33 39 43 44 43 35 17 30 28 35 31 27 33
28 30 31 31 30 30 29 28 28 28 24 23 26 23 22 19 18 17 16 15 18 15 17 15 10 9 6 6 3 13 16 25 31 27 41 39 35 38 33 32 14 27 26 29 34 23 22
27 29 30 28 27 29 30 29 25 26 23 21 23 22 19 20 19 16 13 14 15 12 15 18 11 9 7 5 3 13 27 20 26 21 44 35 30 35 31 28 25 23 26 23 22 25 28
26 28 29 25 23 27 30 31 26 27 21 20 20 19 17 17 20 18 15 15 17 14 9 15 10 8 13 11 14 18 5 18 33 30 34 19 22 31 32 25 22 16 15 17 21 14 22
25 26 26 21 21 24 29 30 27 26 23 21 18 19 17 17 20 17 14 13 10 8 5 8 13 7 9 3 9 9 12 19 37 36 21 16 22 30 30 27 20 13 13 12 15 20 21
24 24 23 19 20 22 25 28 28 25 25 20 17 20 17 16 17 17 13 16 9 6 5 11 13 7 7 10 12 12 23 20 25 28 15 20 23 26 26 27 22 14 12 8 14 17 8
23 23 21 18 20 21 22 25 27 27 25 20 18 17 18 19 13 13 11 12 9 9 6 13 15 14 13 7 17 26 27 32 22 19 20 19 22 25 28 26 23 15 18 4 3 4 5
21 21 19 18 18 20 20 23 25 24 25 22 19 15 15 17 11 9 6 11 12 12 15 13 14 13 9 14 17 13 19 20 23 12 22 12 11 25 28 30 24 23 23 8 6 4 4
19 19 21 19 19 19 21 21 21 21 23 24 19 17 12 13 12 5 2 4 7 10 8 7 11 9 5 7 10 12 15 13 17 15 7 10 8 20 15 25 27 31 28 16 2 4 1
19 20 21 20 19 20 22 22 20 18 20 23 19 15 11 10 10 6 4 6 10 10 9 7 6 8 9 10 13 11 10 12 16 13 12 12 8 16 17 18 29 26 28 13 9 3 4
18 19 20 19 19 20 22 23 23 19 21 21 20 12 10 9 8 5 5 14 11 7 6 5 7 10 10 11 9 9 6 9 17 16 15 12 6 11 20 20 24 28 28 15 11 5 3
16 16 17 18 19 20 23 23 23 19 22 21 18 11 8 6 5 7 14 13 10 8 6 8 8 13 11 9 8 5 11 7 17 14 15 10 6 9 17 17 23 25 29 30 10 6 7
12 15 17 18 19 20 20 23 25 23 21 17 17 10 6 4 2 7 9 8 6 5 3 6 7 11 15 9 4 6 9 10 16 13 11 10 7 9 6 11 19 27 31 31 31 19 15
11 15 16 18 17 17 18 20 20 21 19 19 16 7 5 3 4 4 7 5 4 4 1 1 5 10 13 12 6 7 8 14 15 13 11 10 9 7 10 3 12 23 33 34 30 24 25
10 14 16 17 17 17 19 19 20 21 20 19 17 6 4 2 6 8 7 5 6 4 6 4 4 8 11 8 8 6 10 12 18 14 12 11 6 13 7 5 6 9 18 26 39 45 25
12 15 18 19 18 18 20 21 20 23 22 21 17 12 5 7 9 9 9 10 8 8 9 8 8 10 10 6 7 5 9 11 12 17 16 15 8 11 12 12 12 14 14 20 29 31 35
12 15 17 19 19 20 22 23 24 24 24 22 18 14 5 5 8 11 11 10 9 9 7 9 13 12 12 10 8 7 8 8 9 12 14 15 13 8 5 11 12 16 26 30 29 31 33
12 15 19 19 19 21 22 24 27 27 24 22 20 17 11 4 7 8 10 14 13 10 10 7 13 13 14 13 11 10 10 11 10 12 10 11 13 10 3 4 2 8 9 9 18 28 32
11 13 17 19 19 21 22 25 27 27 26 24 21 18 15 8 8 11 14 17 17 16 14 9 10 15 12 12 13 11 13 14 15 14 14 12 11 5 4 8 18 16 11 12 14 17 17
9 12 14 15 18 22 22 23 24 25 25 23 23 23 17 13 7 11 12 13 12 17 17 15 12 13 13 10 10 7 7 6 7 7 16 15 13 11 8 3 5 3 2 4 9 17 12
8 11 12 14 19 22 22 22 23 23 23 22 19 20 17 13 9 11 13 13 15 13 17 14 17 14 13 14 13 9 7 7 6 8 10 18 17 18 14 8 12 10 10 6 5 4 4
6 7 10 14 18 21 22 24 25 24 23 23 19 20 19 14 15 11 12 13 14 18 18 14 15 16 17 15 11 9 10 10 10 8 8 11 13 13 17 9 10 4 8 9 6 7 6
6 7 9 12 17 20 23 25 26 26 25 26 23 24 23 18 15 17 18 17 17 17 23 20 15 13 15 15 14 8 9 7 12 7 15 13 15 8 12 6 5 4 4 6 6 7 4

GFSGBSN_700_spd_063.txt.gz
Wind_Speed
28 32 35 34 28 27 29 30 28 25 25 29 27 23 28 31 26 19 11 12 14 15 13 8 6 10 13 16 16 9 22 36 27 46 36 32 36 38 38 38 31 34 36 37 35 40 33
28 32 35 32 28 27 29 30 28 26 25 29 29 23 26 29 22 15 7 10 11 13 13 10 6 7 10 14 11 20 23 36 31 47 45 31 35 35 35 33 33 31 29 31 36 35 36
29 31 34 31 28 27 29 29 28 27 26 28 31 22 24 26 19 13 9 10 13 14 12 9 8 5 4 6 15 24 24 35 32 44 48 31 33 35 31 28 33 18 22 21 25 35 36
28 30 32 31 29 30 29 29 27 27 26 26 29 24 20 22 20 13 12 15 15 14 9 7 5 3 5 11 13 25 25 31 34 42 52 32 33 33 22 24 32 14 19 24 23 26 28
28 29 31 31 29 29 29 28 26 27 25 25 28 24 18 19 19 15 12 13 13 10 10 9 6 1 2 4 7 9 16 26 29 42 54 28 34 30 26 27 28 23 21 25 21 24 22
28 29 30 31 28 27 29 28 25 24 23 23 23 23 19 17 16 13 13 10 7 9 8 6 6 1 4 5 6 5 11 21 25 39 37 31 37 31 32 31 36 41 33 33 30 31 28
28 28 29 29 26 26 28 29 25 25 22 22 22 22 20 19 16 12 13 12 9 12 13 11 8 8 10 5 6 7 12 20 30 39 36 24 43 42 39 34 11 33 32 33 29 31 36
26 26 27 26 24 24 27 29 25 25 21 21 21 21 20 20 19 14 11 8 9 10 17 12 11 11 11 7 3 3 13 22 32 34 34 33 40 36 36 29 12 20 25 26 26 21 26
25 24 24 24 22 23 25 27 27 24 23 20 20 21 20 20 20 17 13 8 7 12 14 16 14 11 9 5 1 5 8 27 19 40 27 37 33 33 35 26 18 20 27 27 25 20 26
24 23 22 21 21 22 23 24 26 26 23 19 19 20 19 20 19 18 12 7 8 6 7 16 11 9 11 12 15 15 12 19 14 37 24 18 25 32 34 28 22 20 18 15 20 27 18
22 21 20 20 20 21 22 22 23 25 25 23 19 19 19 17 18 16 13 11 9 7 5 10 11 10 7 10 21 7 12 10 12 30 19 20 26 32 29 29 25 10 11 17 19 15 14
20 20 20 19 19 20 20 23 23 21 25 24 19 17 17 15 15 13 9 11 7 6 5 9 12 9 16 14 6 9 15 16 17 25 19 28 27 25 27 24 21 14 12 10 8 15 9
19 20 19 19 19 20 19 21 22 19 20 23 21 16 15 13 11 9 10 7 4 8 4 7 9 12 9 10 15 20 31 22 17 21 23 20 22 19 27 22 21 12 16 5 2 4 4
19 18 18 18 18 20 20 19 19 17 17 22 22 15 12 12 11 8 3 7 8 7 12 12 13 8 12 13 17 17 14 19 14 14 25 11 13 24 25 27 21 21 21 7 6 4 3
18 17 18 17 17 18 19 19 17 17 16 18 22 16 10 9 7 8 2 3 7 6 5 7 8 9 6 5 13 20 19 19 12 24 6 11 7 25 16 26 23 25 21 15 2 2 0
15 15 16 17 17 18 19 19 16 17 17 20 18 14 9 7 7 7 1 5 8 8 5 2 4 5 5 9 13 14 11 17 18 19 7 12 9 23 23 26 27 19 25 13 9 3 4
12 12 14 17 18 18 19 19 19 17 18 18 15 14 9 8 6 3 2 6 12 9 7 3 3 7 7 7 9 11 9 13 17 17 15 10 6 12 18 17 30 29 28 22 12 8 4
9 10 13 17 18 18 18 16 17 16 14 15 15 13 11 5 4 2 7 9 6 5 6 5 8 10 8 6 6 5 6 6 16 17 14 12 7 8 21 19 20 29 31 32 18 7 12
6 7 11 14 16 15 14 13 14 14 11 13 14 12 9 5 1 6 9 7 6 4 3 7 8 13 9 11 4 6 8 5 18 15 11 13 6 7 4 18 21 26 31 32 32 19 18
4 6 9 11 13 12 12 14 13 13 13 13 12 9 9 4 5 7 10 8 4 4 2 2 6 12 11 9 5 7 9 11 16 15 12 10 5 8 14 4 15 33 33 32 35 29 28
3 5 6 9 12 13 13 13 13 13 12 13 12 10 10 6 7 7 11 8 6 5 5 3 3 8 12 9 8 6 9 13 17 16 14 12 9 14 13 9 8 13 20 31 40 43 29
3 1 5 10 15 16 15 13 13 13 12 14 12 11 11 7 10 11 12 14 10 9 9 8 8 9 11 9 6 2 7 11 15 20 16 16 8 8 11 13 12 15 14 17 25 37 46
5 4 8 11 14 15 16 15 14 14 13 13 11 10 10 8 8 13 15 14 13 10 11 12 12 10 12 9 6 6 6 7 9 12 16 17 12 9 5 11 14 17 24 27 28 29 32
8 6 7 9 13 15 15 15 15 15 15 14 11 9 8 6 8 12 14 16 16 15 14 10 9 12 12 11 10 8 7 9 8 11 11 11 12 12 5 4 2 11 13 15 20 26 32
10 7 6 9 13 16 16 18 19 19 20 20 17 14 12 9 9 11 13 15 18 19 17 14 11 12 12 11 11 10 12 13 15 14 13 11 11 7 5 8 17 20 16 13 16 20 16
13 9 8 8 12 15 17 21 23 24 25 23 20 18 13 13 6 9 11 15 16 21 20 19 15 13 14 13 12 6 5 5 5 5 16 13 12 11 5 3 4 2 3 6 11 15 9
16 11 7 5 10 14 17 21 25 27 27 26 24 21 17 14 11 9 12 12 14 15 17 19 18 15 15 16 12 10 6 6 5 5 9 16 17 17 15 8 12 9 11 10 5 5 10
16 11 6 4 7 11 16 21 26 30 29 28 24 23 21 16 15 9 8 11 12 12 15 18 14 21 16 14 12 11 9 9 9 8 6 11 12 12 14 8 10 4 5 8 6 10 9
16 13 8 5 6 9 12 19 25 29 29 29 24 23 23 18 13 10 9 10 14 16 16 20 16 12 18 14 15 10 10 7 12 6 12 11 13 4 11 6 5 5 4 8 9 8 8

GFSGBSN_700_spd_066.txt.gz
Wind_Speed
26 28 30 32 31 30 29 27 27 26 25 24 27 22 19 22 22 18 12 13 16 18 19 11 8 4 6 10 10 9 9 26 35 31 41 35 31 34 35 33 32 37 34 42 45 38 42
26 28 30 31 31 30 31 30 27 25 25 24 27 24 19 21 20 17 12 13 17 19 18 11 6 5 6 9 13 16 10 29 36 31 46 35 30 31 32 30 30 28 27 28 41 34 35
25 27 29 30 29 29 31 32 27 24 24 24 26 24 19 19 18 18 14 13 17 18 11 9 7 5 6 12 16 17 17 25 38 33 46 36 28 29 28 26 28 13 24 19 33 31 35
23 27 29 29 27 28 30 32 27 23 24 22 23 23 22 20 17 17 16 13 14 12 11 6 4 3 4 8 12 12 20 24 39 30 43 34 26 30 17 21 28 17 18 23 25 27 27
24 25 27 27 25 26 28 30 28 24 22 21 22 22 21 21 16 14 16 12 11 10 9 6 5 3 2 2 4 7 23 21 34 26 46 33 31 34 21 27 29 22 22 26 20 24 32
24 25 26 26 24 24 25 28 29 24 24 21 21 22 21 20 18 12 15 12 10 11 8 4 8 3 2 1 2 2 17 21 28 30 48 42 17 36 27 31 39 36 26 28 27 28 28
24 24 24 24 23 23 25 26 29 28 25 22 20 21 21 20 19 13 10 12 11 12 9 7 6 8 5 2 1 6 9 24 29 23 39 51 18 41 35 35 7 34 28 24 23 21 26
23 24 23 23 22 22 23 23 26 28 26 23 21 20 20 20 18 14 8 8 8 11 14 10 6 10 11 9 8 7 10 26 18 24 38 34 28 33 31 31 11 25 29 21 20 19 21
21 22 22 23 21 22 23 23 23 26 26 23 21 18 19 20 17 13 9 5 1 6 7 13 11 10 8 7 7 8 11 10 17 21 22 36 28 32 29 28 12 21 26 22 19 20 19
21 20 20 22 22 21 23 22 23 22 25 23 20 16 18 19 17 14 9 7 2 2 4 12 11 7 11 17 17 16 14 13 16 9 19 22 27 30 28 22 17 14 14 17 17 18 13
19 19 18 21 22 20 22 22 23 20 22 21 21 17 15 17 16 15 11 7 6 5 4 10 11 10 10 13 17 16 23 10 13 20 13 11 30 29 28 20 15 12 13 11 15 19 15
18 17 17 19 20 20 21 22 22 20 19 22 22 19 13 15 14 14 11 8 6 3 3 7 10 12 12 10 13 17 10 7 9 18 11 29 30 25 28 22 17 10 12 13 13 9 6
18 16 16 17 19 20 21 22 22 21 19 21 24 20 14 13 14 11 10 11 4 6 3 6 9 8 10 8 12 13 10 10 12 18 25 22 22 20 28 22 17 16 18 5 1 2 4
16 15 15 16 18 20 21 21 23 22 18 19 22 18 13 10 13 11 8 6 4 6 7 8 8 9 13 14 13 17 13 12 10 20 29 11 13 20 24 25 18 17 17 6 5 3 3
15 14 14 15 18 19 20 21 21 21 19 18 19 14 11 8 11 11 6 2 3 6 5 6 10 6 5 4 10 17 18 17 13 28 7 10 8 18 22 25 19 20 19 9 4 1 1
15 12 12 14 17 18 19 18 18 20 18 15 15 13 8 6 9 11 3 1 5 4 4 1 3 3 3 8 14 10 13 16 21 16 11 12 10 20 19 25 23 16 21 10 6 1 3
14 12 11 12 16 17 17 16 13 15 14 13 13 14 11 6 5 7 3 4 7 7 5 3 1 3 5 8 10 10 7 15 19 13 7 12 4 14 20 20 24 22 19 16 11 8 4
13 12 11 11 14 14 14 14 13 11 13 12 12 11 12 6 5 5 1 7 7 5 4 3 5 6 4 6 7 6 6 6 16 16 12 9 6 10 17 22 21 29 26 25 13 6 10
12 11 11 10 10 9 10 11 12 10 9 11 10 10 9 5 3 5 6 6 5 4 4 7 10 8 4 7 4 6 6 8 13 16 11 12 5 8 4 11 19 26 29 31 30 25 24
13 11 10 7 5 5 8 9 9 9 9 9 9 7 8 5 5 6 9 7 6 5 2 4 5 12 7 6 3 4 7 7 13 15 12 9 7 5 8 1 4 14 32 28 33 29 24
14 11 7 4 1 4 9 10 10 10 8 9 8 8 6 5 5 7 11 7 9 5 6 4 4 10 11 8 7 4 7 8 15 15 13 10 6 7 12 11 12 14 15 29 35 38 34
16 12 8 8 3 4 7 9 11 10 10 11 11 9 8 6 6 8 9 10 9 8 8 6 5 5 6 8 6 2 5 7 12 15 14 14 6 6 8 12 15 16 15 18 23 31 43
19 13 11 9 4 3 5 8 11 12 13 13 12 12 9 7 6 7 10 13 12 12 9 10 9 8 6 8 6 5 5 6 5 9 15 13 10 9 5 10 11 14 22 25 28 27 27
21 16 12 10 5 5 6 9 13 15 16 15 14 13 10 9 8 7 11 11 15 14 13 9 8 6 9 9 8 5 5 7 7 9 10 11 13 12 6 6 2 8 10 11 16 19 20
23 19 15 11 6 5 6 11 16 19 21 20 19 14 9 9 9 9 9 13 15 17 15 13 12 7 9 10 9 7 9 10 12 12 11 11 10 5 4 6 16 22 17 12 13 15 14
26 21 18 11 8 4 6 12 19 22 25 24 22 18 15 12 8 11 11 11 12 15 18 19 15 11 8 11 10 6 4 4 4 5 16 15 12 11 6 3 4 4 4 5 9 8 5
28 23 20 13 7 3 6 12 17 23 26 26 23 22 21 17 11 11 11 11 8 9 11 18 19 15 13 15 13 8 7 6 5 5 7 16 17 18 15 8 11 12 9 9 5 4 10
31 26 21 14 8 3 5 11 17 23 25 25 24 24 24 19 13 9 6 7 7 8 10 10 11 17 11 14 10 8 8 9 8 8 4 10 10 10 13 9 10 3 4 4 4 9 11
32 27 21 14 9 3 3 8 15 21 24 27 25 24 24 17 16 10 8 7 4 8 9 11 14 5 16 12 12 8 9 6 11 5 13 9 12 4 10 4 5 5 5 9 14 9 10

GFSGBSN_700_spd_069.txt.gz
Wind_Speed
23 24 25 26 28 27 29 31 31 23 23 22 21 22 21 21 19 21 21 18 18 20 22 19 12 4 3 2 9 7 9 16 24 33 28 34 33 31 31 33 33 38 24 34 30 32 38
24 23 25 26 27 25 28 30 31 23 24 22 21 21 20 22 20 19 21 19 19 19 17 16 11 7 3 6 11 13 7 18 28 35 32 35 36 29 27 34 30 32 26 30 37 34 36
23 24 25 25 26 25 26 29 30 26 26 22 21 22 21 23 20 17 20 19 18 17 13 14 11 9 6 6 8 12 15 16 32 35 36 36 29 33 26 25 29 11 32 27 26 34 42
22 24 24 24 25 26 25 26 27 27 25 24 22 22 23 21 20 16 18 18 16 14 11 10 10 7 4 3 5 11 14 15 35 36 37 35 29 29 24 22 27 18 21 24 21 25 30
21 25 25 24 24 26 25 26 27 27 26 26 22 21 23 21 19 15 14 16 14 14 12 8 9 4 2 2 2 8 15 16 26 30 34 40 22 26 26 26 28 22 21 28 23 21 24
25 24 24 24 23 24 25 26 25 27 27 27 22 21 22 21 19 15 10 12 13 13 11 8 6 3 2 3 6 6 13 17 24 22 33 36 24 29 28 32 36 32 24 27 23 27 27
20 24 22 24 23 23 24 25 25 25 27 29 24 21 22 21 18 16 8 8 12 12 11 9 4 2 2 4 3 6 14 19 18 22 30 45 23 37 34 34 9 28 22 23 21 18 21
21 22 22 23 22 22 24 25 25 25 25 26 25 22 21 22 18 16 9 4 5 9 11 11 6 2 2 11 11 6 16 16 22 20 35 26 19 34 29 26 12 25 26 21 17 13 13
25 23 21 22 22 22 24 25 24 25 23 23 25 22 20 21 18 14 11 5 4 7 9 7 5 5 4 7 7 14 21 16 23 25 29 35 14 27 24 25 13 23 28 23 18 14 10
31 24 21 20 21 21 23 25 25 25 22 22 22 23 21 20 17 14 10 8 5 3 3 12 16 7 14 14 9 18 14 19 12 18 26 30 4 27 22 25 10 16 18 19 18 16 10
26 19 20 20 20 21 22 25 26 25 22 21 22 23 21 19 17 14 9 8 4 4 4 8 12 10 4 13 15 19 18 5 12 22 14 15 21 23 22 23 12 9 16 17 14 14 12
19 19 19 20 20 21 22 23 26 26 23 21 21 20 20 17 15 14 11 9 4 1 2 4 6 8 11 10 19 18 11 8 8 18 12 27 28 22 20 19 15 12 17 16 13 11 6
21 21 19 19 20 21 23 22 25 26 24 20 20 21 16 15 14 13 12 9 2 4 5 4 6 7 8 11 15 9 7 14 13 11 20 24 26 18 24 22 15 17 21 5 3 3 4
29 22 20 18 20 21 22 21 23 24 25 21 18 17 15 13 12 12 10 5 2 3 4 7 7 7 7 9 12 9 10 13 17 15 28 12 15 18 26 22 14 16 18 6 6 5 3
26 20 20 17 19 21 21 20 21 20 20 18 16 16 14 11 12 11 8 2 2 4 6 9 8 5 5 3 7 10 9 7 20 27 5 10 8 20 22 23 18 22 16 6 4 3 1
24 19 19 17 17 21 20 18 18 17 16 17 17 15 11 11 11 10 6 3 2 5 4 1 2 3 5 7 8 10 8 17 23 17 10 13 11 21 19 22 21 18 22 8 3 1 3
22 20 18 16 16 20 17 15 14 15 14 14 16 15 11 10 8 8 4 2 5 6 4 2 1 2 4 13 9 11 4 11 24 12 6 15 9 16 21 18 20 18 20 11 6 4 2
21 20 18 16 15 18 13 11 11 12 11 12 15 12 13 8 7 7 2 3 4 4 2 2 4 5 3 6 11 6 5 7 18 13 6 10 7 14 18 15 24 23 22 22 10 5 8
22 20 17 15 15 14 9 7 7 8 9 11 13 13 9 7 3 4 1 3 3 3 3 4 6 6 2 2 3 5 5 8 16 14 7 9 6 9 6 13 18 24 31 30 27 16 14
22 19 16 14 14 10 3 4 6 7 9 10 11 8 10 7 3 4 4 4 4 3 2 4 6 8 5 6 2 1 4 7 9 15 11 11 9 4 10 4 12 25 26 29 32 22 22
22 18 16 14 14 8 3 3 6 9 10 10 10 10 10 8 6 5 7 5 7 5 4 3 3 8 11 7 6 2 2 5 9 14 12 7 6 7 6 7 7 8 12 13 26 36 25
23 19 17 15 14 8 5 2 5 9 12 12 12 12 10 9 6 6 7 9 8 8 6 5 4 5 8 9 7 3 4 5 6 14 12 12 5 5 3 6 10 14 14 15 16 21 35
25 20 19 16 16 10 5 2 6 10 13 13 13 10 7 6 5 5 7 9 9 10 7 8 8 8 6 8 7 5 4 4 4 8 12 13 8 3 3 6 8 12 15 18 24 26 23
25 21 20 18 17 11 5 1 7 12 15 16 12 10 6 4 4 5 6 8 11 13 12 9 6 6 9 10 9 6 6 5 6 7 8 6 5 7 6 6 1 7 9 8 12 14 16
25 24 23 20 17 12 6 2 8 12 16 16 16 14 11 6 5 5 5 8 10 13 13 13 9 8 9 13 11 7 8 6 10 10 10 10 10 5 4 7 12 19 16 10 11 13 10
31 28 26 22 18 13 7 2 8 13 17 17 18 18 15 8 5 6 6 6 7 11 15 17 14 8 8 12 13 8 6 5 5 5 17 15 13 10 6 2 4 2 3 6 8 4 1
33 31 28 25 20 14 7 3 8 13 18 19 19 21 18 11 12 6 4 5 6 7 9 12 16 15 11 10 8 6 7 7 5 5 6 14 15 16 13 9 10 12 13 9 5 2 10
35 32 30 27 22 15 9 2 7 12 18 21 22 22 20 18 17 12 8 4 3 5 6 7 10 17 12 11 9 9 8 9 9 7 4 8 10 9 11 9 10 3 2 3 2 8 9
39 35 32 29 22 16 10 3 4 9 15 20 22 22 20 21 20 17 11 7 5 1 4 7 7 6 13 8 10 8 7 6 10 5 11 8 10 4 8 3 3 5 2 9 11 12 10

GFSGBSN_700_spd_072.txt.gz
Wind_Speed
22 25 25 24 25 27 25 25 26 26 23 24 20 21 21 20 20 19 19 22 23 23 22 18 17 11 11 6 7 8 13 17 18 33 28 28 34 29 25 31 30 32 24 25 22 29 27
25 28 24 25 26 26 26 24 25 26 26 25 22 21 22 21 21 19 17 21 22 21 19 15 16 11 8 6 6 7 8 19 19 29 28 27 33 28 26 26 27 26 22 24 28 28 34
26 31 26 26 26 26 27 25 24 25 26 26 25 21 22 22 21 18 15 18 19 19 18 12 13 9 6 5 6 9 8 16 20 29 31 30 31 32 33 25 28 16 26 21 30 32 30
32 35 30 27 27 27 26 26 25 25 25 26 26 22 21 21 21 18 13 15 17 17 15 10 9 7 4 4 7 9 12 13 21 32 35 29 32 33 26 22 29 16 26 20 24 30 26
31 36 29 27 27 26 26 26 26 25 25 26 27 22 21 21 20 17 12 11 14 14 13 13 8 4 1 4 7 9 14 14 17 30 32 28 31 35 28 23 25 20 19 30 21 26 29
28 35 28 28 27 27 27 26 27 25 25 24 25 24 21 20 20 16 10 8 11 12 11 9 6 6 2 4 8 10 14 14 12 29 31 28 33 38 30 27 31 29 21 26 21 27 26
32 32 28 28 28 28 27 27 27 27 25 24 23 24 22 20 18 15 10 7 7 10 10 10 7 6 4 5 6 9 14 15 13 25 23 30 28 31 32 25 16 23 20 19 17 22 23
29 32 24 26 28 27 29 28 27 27 26 23 21 22 24 21 19 16 10 7 6 7 11 9 5 7 8 4 6 5 13 17 17 21 30 33 28 23 24 22 15 22 22 19 13 13 16
27 35 25 30 27 26 29 29 28 28 27 23 21 21 22 21 18 15 10 8 6 5 7 13 11 5 6 3 3 9 16 12 24 11 25 27 26 28 26 25 13 22 24 20 15 15 12
29 29 25 28 27 25 27 28 29 28 28 24 20 21 21 20 16 14 9 8 6 1 3 14 14 6 11 10 14 16 11 13 16 11 16 21 13 25 26 20 15 17 20 17 15 17 10
27 27 21 23 25 25 25 27 29 28 28 24 20 19 21 18 15 14 9 8 4 3 1 5 13 13 13 16 16 12 12 16 12 20 15 20 19 23 23 20 15 11 23 16 13 13 8
30 27 20 23 26 26 24 26 29 28 28 24 20 19 19 16 13 13 10 7 3 2 3 4 8 10 9 11 16 17 5 12 20 17 16 19 22 20 19 23 12 12 20 14 10 8 7
31 26 21 26 27 25 22 25 27 26 25 22 20 17 18 17 12 12 11 6 2 3 5 4 4 5 8 10 9 8 11 10 8 15 18 17 20 15 20 24 14 16 23 7 5 6 5
25 24 20 27 25 23 22 23 25 25 22 20 19 19 18 17 11 10 9 3 3 3 5 6 7 6 7 5 3 7 13 11 14 14 27 12 13 18 25 19 16 22 19 5 6 5 5
26 25 19 23 22 22 20 21 23 23 19 19 18 18 18 15 12 10 6 3 2 5 10 8 6 4 5 2 5 6 9 11 15 24 5 10 6 19 24 21 21 21 14 5 5 3 2
25 25 21 21 21 20 19 19 20 20 17 16 17 17 14 15 11 8 4 2 3 6 8 5 3 4 4 6 7 4 3 12 20 18 10 13 10 17 23 21 18 15 15 6 3 4 4
29 27 21 20 19 17 17 16 17 16 14 14 14 17 13 13 9 5 2 2 6 7 5 3 3 3 5 11 10 7 1 14 22 11 9 17 12 15 19 19 14 16 14 11 5 3 1
33 27 21 20 19 16 15 13 13 12 11 12 13 14 14 13 8 4 2 4 6 7 4 4 6 7 6 7 10 4 6 7 14 9 8 12 9 13 15 16 20 21 14 18 11 6 5
31 27 22 20 18 16 12 10 9 9 10 11 12 14 9 9 5 2 2 5 5 6 5 6 6 6 5 7 5 4 5 8 19 12 8 7 5 8 6 14 21 24 26 22 21 15 9
32 31 22 19 18 16 10 8 5 7 9 11 12 9 10 10 6 4 5 7 6 6 5 7 8 9 6 7 3 5 5 9 16 15 11 9 7 6 10 5 12 23 31 30 26 15 21
31 26 21 20 19 16 10 8 5 6 8 10 10 9 9 9 8 6 8 7 9 8 6 7 7 11 10 8 8 3 5 8 9 14 15 11 7 8 6 4 5 5 16 24 28 30 25
30 26 21 20 20 16 12 9 7 5 8 10 10 9 8 11 10 8 9 11 11 10 8 8 6 8 12 11 8 7 5 6 5 13 14 13 6 7 7 7 8 11 13 16 20 22 25
38 35 23 22 22 17 14 10 5 4 7 9 8 6 4 6 7 8 10 10 12 12 10 9 8 8 8 10 10 8 6 8 6 9 15 14 11 8 3 5 5 11 16 20 22 23 24
38 32 25 23 22 17 15 9 5 3 6 8 7 7 4 3 5 6 7 10 13 13 12 9 8 9 10 11 10 7 8 6 8 9 9 7 11 9 5 3 4 8 9 9 12 13 15
38 38 27 23 23 19 16 10 3 2 4 8 10 9 5 1 3 6 7 9 10 11 13 13 11 10 10 13 11 7 7 6 9 10 11 10 10 5 4 8 9 13 14 8 9 12 13
42 38 30 26 24 21 17 11 4 1 6 9 12 12 7 3 2 2 5 7 9 11 12 15 14 10 12 14 16 8 6 6 6 6 17 14 13 10 7 4 4 3 3 3 6 6 6
45 37 33 30 26 23 19 13 7 4 8 10 13 14 12 8 9 6 4 4 6 9 9 12 16 16 9 11 9 8 6 7 5 5 7 15 15 14 12 8 8 11 13 10 3 2 6
45 41 35 29 28 26 21 15 9 6 9 11 12 14 12 15 15 12 9 5 1 5 7 8 11 16 14 11 10 5 7 10 9 9 6 9 9 9 11 9 9 6 4 5 4 5 8
39 41 37 33 31 27 22 16 11 6 7 9 12 14 16 17 20 19 15 10 6 2 4 7 7 8 16 13 12 9 8 9 12 5 14 7 10 5 9 6 5 6 3 4 7 11 11

GFSGBSN_700_spd_075.txt.gz
Wind_Speed
33 27 29 33 33 30 30 31 27 26 26 26 25 24 22 21 21 20 20 19 23 23 21 19 17 16 14 13 4 7 10 18 17 32 33 31 29 28 24 35 27 37 24 36 29 18 20
29 24 34 37 38 33 32 31 29 26 27 25 26 25 22 21 21 20 18 16 20 20 20 17 15 13 9 5 4 5 8 14 17 31 28 27 33 23 22 26 30 27 23 25 39 34 25
26 30 29 37 42 35 33 31 31 27 28 27 26 25 23 21 21 19 16 13 17 18 18 16 14 13 6 6 1 4 7 16 18 30 27 25 31 31 21 20 24 15 30 18 25 37 20
29 31 31 37 39 36 33 33 32 29 28 27 26 25 24 22 21 19 15 11 15 15 16 14 11 11 6 5 3 7 8 15 17 24 30 26 29 32 22 21 22 22 26 23 25 22 20
27 30 34 37 38 35 34 34 33 31 28 27 25 23 24 22 21 18 14 10 11 14 15 14 10 10 6 8 4 9 12 12 15 23 29 26 27 22 31 26 23 22 23 24 22 26 21
31 25 31 33 35 34 34 34 34 32 29 27 25 22 23 23 20 18 14 11 9 11 14 13 9 7 9 5 4 7 12 11 10 18 29 23 25 27 23 24 31 24 20 24 21 22 24
31 35 34 34 37 32 36 36 34 33 30 26 24 22 21 22 20 18 14 10 10 9 14 11 10 7 9 4 3 4 9 10 8 15 24 21 22 34 29 23 24 23 24 23 26 13 20
33 32 30 32 35 30 33 35 33 33 31 26 23 21 20 21 20 18 14 9 7 7 12 14 11 7 9 5 3 5 9 9 10 12 24 15 28 30 23 22 18 21 24 18 16 10 16
30 31 30 32 33 29 30 32 33 33 31 27 22 20 19 20 19 16 13 9 7 3 6 13 7 8 4 3 5 6 11 10 12 17 27 13 18 24 26 22 17 20 26 19 15 14 17
32 30 33 30 31 28 28 30 32 33 30 27 21 19 18 19 16 14 12 9 5 1 2 10 12 6 8 11 7 11 11 9 9 22 19 15 18 24 25 18 16 17 20 18 14 16 11
35 31 29 29 32 27 26 30 31 32 30 27 20 18 16 17 15 12 11 8 2 4 1 6 8 12 10 12 10 7 10 9 14 7 11 14 14 26 19 19 15 18 16 14 12 14 8
35 32 30 32 31 28 26 29 29 31 28 26 18 17 16 16 15 11 10 6 3 2 1 2 6 6 6 8 7 5 6 7 12 13 12 13 13 13 22 17 10 13 19 10 9 10 11
38 31 31 28 30 25 28 28 27 30 27 24 17 16 16 16 13 10 9 2 2 2 6 3 2 8 8 9 7 4 10 18 11 11 13 12 18 7 17 18 13 19 22 8 6 5 6
38 32 33 30 29 23 27 24 24 29 25 22 16 15 16 14 12 9 6 2 1 2 5 6 6 8 4 2 2 4 5 7 13 9 16 10 8 12 18 16 11 19 24 6 5 7 11
41 33 28 29 26 23 22 21 22 26 22 20 15 15 14 12 11 7 2 2 2 4 8 8 6 4 4 4 2 4 4 9 8 15 5 9 4 17 22 19 15 18 13 4 1 5 1
43 37 29 29 26 23 21 19 20 22 19 17 14 13 11 10 9 6 0 2 4 8 8 9 3 4 3 4 6 3 7 8 12 11 11 5 7 18 25 16 17 13 12 5 1 4 5
43 38 32 33 23 24 20 17 17 19 15 14 13 13 10 11 8 3 1 3 7 9 7 5 2 4 4 8 6 4 2 9 11 11 7 10 8 11 21 14 15 14 10 8 3 2 3
45 41 36 30 28 23 19 17 15 16 13 12 13 11 12 10 5 2 1 5 7 9 6 4 5 4 5 7 6 3 3 5 18 12 6 9 5 9 12 15 18 20 16 16 12 6 8
44 43 38 32 25 23 19 16 13 13 11 11 12 14 10 7 2 2 3 6 9 8 6 7 6 4 6 6 4 3 6 7 16 11 7 8 5 6 5 8 17 23 18 13 16 13 7
46 43 39 30 27 23 18 16 13 11 10 9 11 9 10 8 6 5 7 8 8 8 8 8 10 8 5 5 5 6 5 8 18 12 10 8 7 6 5 1 7 19 23 21 19 11 17
48 45 38 33 26 21 17 16 13 11 9 8 10 9 10 8 6 6 9 9 10 9 7 9 9 10 6 5 4 3 6 8 13 16 15 10 7 10 8 6 6 10 15 23 25 30 18
43 43 43 38 25 21 17 16 15 12 9 9 10 11 11 11 9 7 10 13 12 12 10 9 7 13 12 5 7 5 4 5 4 11 14 13 7 9 10 10 9 12 10 12 21 24 24
45 45 41 36 29 24 18 17 15 11 8 7 7 8 9 7 6 8 10 12 16 14 13 11 11 7 9 14 11 7 8 9 7 5 11 12 13 8 5 9 8 12 18 18 19 21 18
48 44 40 41 34 27 19 19 16 11 8 4 3 6 7 7 6 10 9 14 14 17 15 14 13 11 10 10 9 8 8 7 8 9 10 8 12 11 4 4 4 7 12 12 14 16 16
46 45 41 38 29 26 21 20 16 11 7 3 1 3 5 6 7 9 11 13 15 15 17 15 13 12 11 11 9 5 5 5 9 10 11 10 6 3 4 8 12 12 13 12 11 11 16
42 41 37 35 33 26 24 22 17 11 9 4 3 1 2 4 6 7 10 13 14 15 14 17 15 13 10 15 11 10 8 7 5 5 16 13 13 8 4 5 4 2 6 4 3 9 10
43 45 37 34 30 29 26 23 17 13 9 6 5 4 3 2 4 7 9 11 12 14 13 13 15 15 13 15 16 8 9 8 5 6 5 11 11 15 13 7 9 10 13 11 4 2 6
41 43 37 35 35 29 28 24 19 15 11 8 6 6 8 7 8 7 6 7 9 10 10 9 13 18 14 12 12 6 5 7 6 5 4 8 7 9 11 7 9 10 9 7 4 8 10
45 44 39 36 39 32 31 25 21 16 11 10 9 10 11 7 14 13 11 9 9 9 10 9 7 9 16 15 10 8 4 2 5 4 9 7 9 4 8 4 10 6 7 9 10 11 13

GFSGBSN_700_spd_078.txt.gz
Wind_Speed
28 31 29 30 35 42 43 41 39 35 33 30 29 27 27 25 24 22 22 21 18 21 22 21 20 19 16 13 15 14 6 13 26 30 31 29 30 30 31 43 24 40 32 44 30 14 33
26 29 33 33 40 39 44 45 38 36 34 31 29 27 26 26 24 21 22 20 16 20 20 20 19 17 14 7 8 9 3 15 8 30 28 29 29 28 24 22 30 30 38 29 48 22 17
29 28 28 27 34 41 41 42 37 39 36 31 29 27 24 25 23 22 21 18 14 17 18 19 17 14 12 10 8 6 3 12 14 27 25 23 35 29 18 19 29 18 18 35 26 36 27
32 29 27 33 33 39 40 42 38 40 36 32 29 26 23 23 23 21 20 18 13 14 17 18 14 13 8 11 5 3 1 8 13 25 28 18 33 32 20 20 23 27 20 25 26 28 34
32 31 32 31 33 36 39 42 37 40 37 32 29 26 23 23 23 21 20 16 12 12 16 17 11 11 3 13 4 4 4 10 7 23 23 19 22 34 22 21 25 27 18 29 20 19 17
35 33 35 34 34 35 37 41 36 37 36 32 29 26 22 22 22 19 18 15 12 11 14 14 9 8 6 12 3 3 6 4 8 14 24 12 23 29 27 23 24 25 20 22 20 22 18
38 36 36 34 32 35 37 37 35 34 34 32 29 25 20 20 19 17 16 14 10 5 11 15 12 8 11 5 1 3 8 6 8 8 12 17 16 22 38 28 17 18 24 22 19 20 20
44 39 36 34 32 34 36 35 36 34 33 31 29 23 20 19 18 14 14 12 8 7 9 16 11 7 8 3 2 3 7 6 5 9 18 16 20 22 13 22 12 18 23 19 17 20 21
44 43 38 34 34 30 34 35 35 34 33 30 28 22 19 17 15 13 12 10 8 4 3 11 9 12 6 4 1 7 8 6 6 6 12 17 9 22 20 19 12 19 17 20 19 13 18
44 47 40 35 37 34 33 36 35 33 33 29 26 19 16 15 14 11 11 9 6 1 3 6 12 7 7 7 4 8 7 6 6 7 20 12 5 19 18 16 15 14 21 28 14 15 10
47 45 43 39 37 35 32 33 35 32 33 27 25 17 15 13 13 10 9 6 2 2 1 3 6 10 11 11 8 6 6 7 8 12 15 3 8 21 18 19 13 10 10 22 16 12 1
48 45 46 42 40 37 27 32 33 32 32 26 23 15 13 12 10 8 7 3 1 2 2 2 3 7 7 4 3 8 7 8 16 21 14 7 11 13 17 13 11 11 17 14 11 9 3
51 52 48 45 43 37 31 30 26 32 29 24 20 14 12 10 8 6 6 1 2 1 5 4 2 8 6 5 1 2 14 13 7 9 21 14 6 15 19 15 13 15 19 6 2 2 3
54 46 51 46 46 36 28 27 26 28 25 21 17 11 10 8 7 5 3 3 2 2 4 6 4 6 3 2 3 7 6 12 8 8 14 7 3 18 21 12 7 19 17 5 4 3 4
58 55 49 46 49 39 28 27 26 25 22 19 14 11 9 5 5 3 2 3 1 3 6 7 8 4 2 1 3 5 7 8 9 14 2 6 4 8 20 13 15 15 21 4 4 4 5
58 58 46 46 49 41 24 27 25 22 19 16 12 10 8 5 4 2 3 4 2 7 11 9 4 3 3 2 4 4 4 8 14 11 8 5 6 11 16 15 10 13 13 3 2 1 1
62 56 48 43 50 36 28 27 24 20 17 15 12 10 8 5 2 2 3 4 5 9 10 6 2 4 3 5 7 3 3 6 12 11 8 7 2 10 17 11 16 11 15 5 4 2 0
45 47 44 43 53 36 30 31 23 19 15 13 11 11 9 6 4 3 3 5 8 11 8 5 6 4 6 6 5 2 1 3 12 11 12 6 6 9 16 11 15 17 13 13 5 3 3
34 47 40 46 46 36 29 28 22 17 14 12 11 11 10 6 5 3 4 6 11 11 8 5 4 7 9 8 3 4 5 6 14 13 7 8 5 7 5 9 15 18 19 18 14 15 6
27 51 53 43 37 38 25 23 24 16 14 12 11 7 8 7 6 6 7 7 9 10 9 10 8 8 6 5 5 7 5 8 19 13 10 10 7 4 7 4 6 16 26 23 15 10 14
37 43 47 43 33 32 30 24 24 16 15 12 11 10 7 3 6 11 11 8 10 10 9 10 9 9 6 5 5 7 6 8 16 14 11 9 9 11 8 7 7 11 12 23 24 30 18
31 40 44 42 34 29 32 28 22 20 16 12 12 11 10 9 5 10 13 14 13 13 11 11 8 12 11 5 9 8 6 5 5 13 14 15 7 8 11 11 10 12 11 12 26 29 29
33 42 50 42 39 30 32 26 23 21 15 12 9 11 10 6 7 10 9 13 16 15 14 14 14 8 11 13 9 6 8 9 8 4 9 10 11 7 4 8 9 11 18 20 16 17 25
35 29 45 34 36 29 36 30 24 20 14 11 10 11 10 9 8 12 14 14 16 17 16 17 14 14 12 9 10 9 7 6 8 8 10 7 8 8 2 2 2 5 8 8 16 18 18
46 37 40 35 36 35 38 31 25 19 15 10 11 10 10 8 10 9 13 14 14 15 17 15 15 14 10 10 8 3 3 3 6 8 10 12 8 4 3 7 10 14 14 8 8 9 10
32 30 27 33 41 36 41 31 26 19 13 11 11 11 9 8 10 10 12 12 15 17 16 16 14 14 12 12 9 5 5 5 5 3 12 11 9 5 3 2 3 3 5 4 3 1 7
36 30 30 37 43 36 38 32 26 20 15 13 12 9 8 8 5 11 15 16 16 18 15 16 16 16 14 13 13 6 7 6 4 4 2 9 8 13 10 7 6 8 9 13 5 4 6
45 28 45 32 36 41 37 31 25 24 16 15 12 10 7 6 7 10 9 13 14 15 15 10 15 17 16 12 9 9 3 7 5 5 5 6 7 9 11 6 8 10 12 8 8 8 9
34 36 35 32 39 46 37 33 31 26 18 16 12 10 10 8 10 11 10 11 12 10 8 12 9 11 17 13 11 9 5 5 6 3 8 8 10 6 6 7 9 7 10 9 11 13 13

GFSGBSN_700_spd_081.txt.gz
Wind_Speed
23 25 28 30 29 32 36 37 44 45 41 39 35 33 31 28 26 26 23 23 21 18 19 23 24 22 18 17 16 18 12 7 21 26 27 26 29 28 32 36 35 36 38 34 25 27 31
27 26 26 28 29 29 32 35 43 43 41 42 36 33 30 28 25 25 22 21 19 16 17 22 22 19 15 15 13 13 12 2 11 28 30 32 30 27 27 31 25 39 35 27 34 18 34
28 27 28 28 30 28 32 35 40 42 42 38 35 33 29 27 24 23 22 20 17 14 16 21 20 16 13 13 11 9 9 15 10 17 29 30 27 28 23 17 31 18 27 27 35 39 23
32 29 30 29 30 33 35 37 38 38 42 39 34 32 29 26 24 22 21 18 14 12 14 21 16 16 9 14 9 5 5 10 10 26 24 25 28 28 22 23 26 24 17 34 32 18 36
33 33 31 31 29 32 34 35 39 39 40 41 35 32 29 24 22 21 19 16 12 11 13 19 11 14 8 12 7 3 3 2 6 18 19 22 27 29 22 25 24 25 22 25 21 29 15
37 35 34 33 31 32 32 32 37 37 40 39 37 32 28 22 20 20 17 13 11 8 11 13 11 9 11 12 4 3 3 2 5 18 20 14 27 28 18 25 19 25 26 22 19 24 15
40 39 37 36 34 32 31 33 38 37 37 39 37 32 26 21 19 17 14 12 9 7 9 14 13 10 11 3 4 3 4 4 5 13 22 10 15 36 24 27 12 14 25 19 18 15 22
49 42 39 40 37 33 32 30 33 34 37 39 37 32 24 20 18 15 12 10 9 9 7 13 9 11 8 5 5 6 5 3 4 8 10 7 5 29 26 21 12 15 22 12 17 14 18
51 51 42 37 42 36 33 32 31 35 36 38 35 32 23 17 16 14 10 8 7 6 4 10 8 11 8 7 5 10 7 5 4 3 10 8 3 17 22 20 11 17 21 20 20 18 18
46 52 52 39 41 38 36 34 30 35 35 37 33 31 22 15 15 13 8 7 4 3 1 4 8 7 7 4 5 5 4 4 5 5 14 8 7 13 10 11 12 12 23 18 15 20 10
57 44 55 52 35 43 36 37 29 35 33 35 32 30 20 14 13 10 7 5 1 1 1 3 4 7 10 7 4 5 4 2 5 8 12 7 11 17 17 15 11 13 16 16 14 12 10
50 55 49 55 41 39 35 42 31 38 29 29 31 28 18 13 11 9 6 2 2 1 3 2 2 3 6 6 3 3 4 5 7 14 17 8 14 14 10 16 15 12 16 18 17 12 1
47 47 49 56 49 39 39 39 35 35 31 27 29 25 16 11 9 8 6 3 1 3 4 4 1 4 6 7 5 4 6 11 10 13 12 11 9 13 16 13 12 9 21 4 2 2 4
52 50 51 58 57 42 40 34 36 33 28 27 27 21 13 10 7 8 6 6 4 4 5 4 5 6 2 3 8 6 6 13 6 8 15 4 3 15 19 12 6 16 5 5 4 3 3
43 41 44 40 61 47 42 35 34 41 23 27 26 18 12 10 7 8 7 5 1 4 7 10 10 5 2 2 6 6 7 6 10 15 2 5 1 15 19 14 14 14 10 2 3 3 5
37 34 40 38 58 44 40 34 36 42 31 27 22 16 11 9 8 9 10 6 6 7 12 10 5 6 4 5 6 6 7 10 13 11 8 8 10 18 15 13 11 11 12 6 1 1 3
41 33 35 30 30 35 39 31 40 36 30 28 20 16 10 10 10 10 9 7 8 12 13 10 4 5 5 6 7 5 5 10 15 11 6 10 4 11 14 9 11 12 13 5 3 1 3
33 35 14 26 32 19 30 34 41 26 35 25 18 16 11 10 12 12 8 7 9 15 14 9 8 8 6 10 7 2 5 6 11 11 12 6 8 9 15 9 15 11 14 8 4 3 2
36 14 10 37 37 19 38 34 40 28 29 22 18 16 12 11 11 12 8 10 11 15 12 9 11 8 12 9 5 6 5 6 12 12 8 7 5 8 5 10 13 18 16 17 12 7 4
37 14 16 27 39 18 36 34 26 27 27 22 19 12 14 13 12 11 12 12 14 14 13 12 11 8 10 10 6 7 5 7 15 13 9 9 7 3 7 4 8 15 19 19 18 13 14
31 15 15 18 41 16 30 37 23 29 25 23 20 14 10 7 14 13 14 9 16 15 12 12 10 13 9 7 7 7 4 7 15 12 13 10 8 8 5 4 5 7 8 21 27 27 22
24 17 20 25 49 26 31 28 28 33 24 24 20 14 10 8 10 18 18 15 15 16 14 14 12 13 11 10 10 11 7 6 9 16 12 11 5 8 8 9 8 10 11 13 22 31 29
19 21 20 28 37 35 28 30 32 27 25 22 18 13 8 7 12 18 17 17 19 14 14 15 15 15 14 8 7 10 8 9 8 3 12 11 8 6 4 7 8 12 17 20 19 17 28
23 20 22 35 35 32 30 23 36 30 27 17 14 13 10 9 11 15 17 18 22 18 17 16 15 13 14 12 10 8 7 6 7 6 7 9 10 9 2 4 1 5 4 5 8 16 16
18 12 13 37 32 25 29 33 31 26 25 20 18 14 12 10 12 16 17 19 20 19 17 17 15 13 11 10 10 7 8 8 7 8 11 9 8 4 3 8 8 11 9 6 7 5 10
21 9 20 28 23 33 28 34 26 29 23 20 17 15 12 10 14 15 17 17 18 19 18 16 17 16 13 13 11 6 6 6 6 6 13 12 11 8 6 3 3 1 2 3 2 6 8
21 15 24 34 19 26 32 38 31 28 23 20 17 13 12 11 8 16 18 19 19 20 18 18 18 17 16 16 15 8 6 7 7 7 9 12 10 12 10 6 6 8 4 8 5 3 8
24 16 38 26 28 27 38 40 30 28 22 19 16 12 11 10 6 13 14 16 15 15 14 16 18 19 16 15 12 7 6 11 8 6 6 7 9 9 9 6 6 4 5 6 7 11 9
19 26 22 20 24 31 41 38 31 29 19 16 13 12 13 12 11 14 14 16 14 10 11 11 11 14 17 14 10 10 8 10 11 8 10 7 9 4 5 1 2 8 6 7 8 10 11

GFSGBSN_700_spd_084.txt.gz
Wind_Speed
26 24 24 25 27 28 27 25 28 33 38 37 39 40 36 33 29 25 22 22 22 20 17 19 21 25 21 20 19 18 19 15 13 24 27 27 24 27 30 35 31 35 33 36 38 30 34
25 26 25 26 27 29 31 25 31 32 35 42 39 41 37 33 29 25 22 21 21 18 16 18 22 22 18 17 19 15 20 11 15 22 27 30 21 24 30 32 33 39 33 35 33 26 34
33 29 28 28 27 29 31 32 28 27 34 34 42 42 40 34 29 24 22 20 20 15 14 17 23 15 16 14 15 11 15 18 9 21 26 30 25 22 26 26 30 12 30 28 41 16 26
38 38 32 32 31 27 31 31 31 26 31 31 37 41 42 35 29 23 21 19 18 13 12 17 17 18 14 14 12 7 9 14 11 17 23 25 32 23 19 27 27 21 21 26 20 36 28
42 42 42 37 32 35 30 32 33 29 29 34 33 37 40 37 29 23 21 17 15 11 9 17 13 19 9 12 7 4 8 10 11 12 19 20 19 20 24 22 21 30 13 25 11 23 14
43 45 47 45 39 29 37 34 33 25 27 31 29 37 38 37 29 22 19 15 12 8 7 14 11 12 13 8 4 4 7 5 2 7 11 18 20 22 20 23 20 23 20 17 21 24 33
36 45 46 48 47 39 32 36 35 32 26 33 28 32 42 37 29 21 17 14 11 6 5 11 10 12 8 5 4 5 6 5 3 7 11 12 15 22 20 21 19 20 21 25 22 16 23
35 37 42 47 47 47 37 35 35 36 26 31 33 28 43 36 29 21 16 13 9 5 1 9 10 9 4 2 1 6 5 4 5 7 11 8 4 20 14 18 19 22 23 17 14 25 13
40 34 38 44 45 47 44 33 30 31 31 29 31 26 40 34 29 20 16 12 9 4 0 7 7 7 4 3 2 4 5 4 5 5 6 6 6 26 21 17 18 19 22 21 19 14 14
41 40 38 36 40 46 47 37 30 32 30 29 29 28 36 33 27 20 15 12 7 3 1 2 4 6 3 2 1 2 2 4 6 6 13 2 10 18 19 12 12 17 21 16 19 23 9
37 37 40 39 35 42 42 39 38 34 31 34 29 27 32 31 26 18 14 10 5 3 2 1 3 3 4 2 1 3 2 3 7 13 10 5 5 10 9 20 12 15 20 20 18 16 11
40 40 40 43 41 41 45 43 42 31 35 30 30 25 30 30 22 17 12 8 5 1 3 4 4 1 1 3 1 1 3 5 8 13 12 11 14 10 9 13 10 9 20 16 12 9 1
44 48 45 42 44 38 49 47 48 31 37 31 32 23 31 28 20 15 11 7 5 5 5 5 4 4 3 5 4 4 2 9 10 8 10 15 15 9 7 12 14 17 22 4 3 2 3
45 47 48 48 43 38 48 46 56 24 38 31 34 21 32 26 19 15 11 9 7 6 7 7 6 5 3 4 6 7 7 13 12 5 7 4 6 10 9 9 8 21 14 6 4 4 3
47 48 42 41 35 37 39 42 60 20 31 30 34 19 31 25 18 16 12 13 3 8 10 13 11 6 5 3 4 7 11 6 8 13 4 3 4 9 14 10 14 18 9 4 5 4 3
44 43 37 30 37 37 36 39 47 29 32 33 26 24 28 24 18 18 15 12 9 9 12 15 7 7 4 6 6 9 8 11 14 9 5 3 8 14 13 9 8 7 11 3 1 3 3
42 38 37 42 37 31 37 35 37 25 37 37 30 29 26 23 21 20 20 11 13 14 16 13 6 8 6 8 6 6 6 12 14 10 7 9 6 12 13 5 8 9 10 2 3 2 3
41 35 36 40 40 22 19 33 26 30 42 36 29 28 20 26 23 23 20 13 15 19 17 10 10 9 9 8 8 4 6 7 15 10 12 6 7 10 12 7 9 8 11 10 3 2 1
33 32 35 40 32 6 17 13 34 44 40 26 31 35 20 24 24 23 12 16 16 21 19 14 12 12 12 12 4 6 6 10 17 13 8 6 3 7 2 9 14 14 12 14 12 4 3
27 27 34 31 9 18 38 9 28 35 37 29 39 25 27 26 24 15 18 19 18 21 18 15 15 13 15 13 7 8 7 10 15 14 11 8 11 6 9 2 8 19 18 16 17 8 5
23 22 30 18 4 36 34 18 27 27 35 36 33 23 22 17 28 20 21 19 21 22 18 17 14 15 16 13 10 7 6 7 13 13 12 7 10 7 5 2 3 5 10 20 24 25 15
18 24 22 17 5 22 17 21 31 38 31 41 30 23 24 13 18 23 25 23 23 21 20 21 16 17 16 12 10 9 7 7 10 15 12 11 5 4 4 6 7 8 10 13 18 26 28
16 21 20 10 11 13 10 26 27 35 28 32 32 26 15 15 19 27 25 22 23 20 19 19 20 19 14 12 11 9 7 9 7 11 14 9 7 6 3 6 8 12 15 18 19 18 17
15 18 17 9 9 26 14 20 26 35 30 25 27 21 16 14 18 21 21 21 22 20 16 22 20 19 15 11 11 9 8 6 7 5 7 7 9 6 3 3 0 3 3 3 6 9 18
15 17 17 2 18 23 24 17 25 27 27 24 22 21 15 12 16 25 21 24 23 20 17 17 18 14 16 15 13 9 9 7 8 9 8 9 9 5 5 8 8 7 5 5 4 5 6
14 12 13 7 14 19 21 27 32 25 21 22 21 19 16 11 18 24 22 23 25 23 20 20 18 17 16 15 13 7 7 8 8 7 13 13 11 10 8 3 4 1 4 2 2 6 7
10 15 10 17 24 15 14 21 26 27 18 22 21 16 16 13 14 22 23 24 22 23 21 21 22 20 17 16 16 8 6 9 7 9 13 14 13 15 10 5 5 7 9 9 7 8 9
10 17 9 16 19 19 22 27 33 22 22 23 21 16 16 14 11 19 20 22 20 21 21 22 21 23 19 16 14 9 8 12 8 8 8 13 12 11 11 7 10 12 12 11 8 8 8
14 12 11 30 27 10 40 23 29 26 22 20 18 15 15 14 8 17 19 19 18 18 19 15 18 16 18 17 14 12 9 14 12 9 12 10 9 6 7 6 9 8 9 10 9 9 9

GFSGBSN_700_spd_087.txt.gz
Wind_Speed
35 34 34 31 26 24 26 28 30 32 34 30 30 28 34 36 39 39 34 27 25 22 19 18 20 22 24 19 19 21 23 21 21 15 19 26 29 26 26 27 30 31 26 45 33 32 35
38 37 37 35 35 30 27 27 30 29 35 28 31 29 31 36 39 39 37 27 24 21 18 18 18 24 19 18 17 20 21 17 23 18 24 26 28 25 23 26 32 19 25 27 29 35 32
41 41 41 41 39 39 33 32 28 28 33 31 34 27 33 30 32 37 34 28 24 20 16 16 19 18 19 12 16 15 18 19 8 12 25 25 27 26 21 23 27 9 31 35 29 34 23
43 43 43 43 43 43 41 39 31 29 30 37 31 27 32 29 30 32 32 28 24 18 15 14 19 18 12 13 12 10 11 18 12 8 16 22 29 20 15 22 16 21 19 32 30 27 25
42 43 43 45 44 44 45 41 34 33 33 34 38 30 33 31 28 28 30 27 23 17 14 13 14 14 12 10 7 7 9 11 8 7 16 17 21 17 12 25 18 20 13 24 10 34 30
42 42 42 40 44 44 44 42 36 32 32 29 34 37 30 31 30 24 32 25 23 16 12 11 9 8 8 8 5 4 7 8 5 4 14 15 15 15 19 23 17 21 19 18 9 18 29
43 42 43 42 39 44 45 42 37 33 30 31 32 38 33 31 28 26 26 23 22 15 11 9 8 3 5 6 4 3 6 7 5 2 4 4 11 4 23 21 13 23 21 18 15 10 15
44 44 43 42 39 39 39 44 43 35 31 30 31 34 34 33 30 24 20 22 20 14 8 8 4 3 4 5 3 1 4 4 4 3 6 5 6 6 10 21 12 15 22 16 7 9 6
41 42 42 42 41 39 42 34 35 36 33 32 34 30 34 33 33 24 19 19 18 13 7 7 2 2 2 4 4 1 3 5 5 4 7 6 5 9 5 16 15 16 20 17 15 14 14
42 42 41 39 37 38 37 45 36 33 36 37 36 31 32 33 28 20 17 18 16 11 6 5 3 1 1 2 2 2 3 2 4 8 7 5 7 12 11 11 16 21 16 17 13 14 5
50 45 37 33 32 31 33 37 45 37 37 42 38 34 34 32 31 19 16 15 14 6 3 5 4 2 3 1 2 2 3 2 5 10 8 1 16 12 9 7 16 12 14 15 15 11 8
44 41 40 40 40 40 34 36 43 47 35 47 35 31 34 35 32 16 12 12 12 2 5 5 5 1 4 2 4 4 3 4 10 8 10 8 9 7 11 9 6 13 15 12 15 15 3
41 42 43 47 46 43 48 47 44 53 40 47 38 32 33 40 24 16 8 10 5 5 5 6 6 4 6 5 3 4 4 9 9 7 10 10 3 5 7 12 9 21 20 4 2 2 1
44 46 48 52 36 40 39 35 32 40 37 39 32 24 30 37 24 15 9 11 5 6 7 7 9 8 6 4 7 7 10 10 11 11 12 5 3 4 7 11 7 19 11 5 3 2 3
45 47 44 47 40 36 34 32 27 30 26 20 15 29 26 35 16 15 12 12 4 8 11 11 12 9 7 3 3 8 8 9 8 9 3 6 3 4 7 8 19 16 7 4 7 5 2
46 44 40 39 39 30 29 35 29 27 21 22 18 33 30 32 17 16 16 18 10 9 12 15 7 7 7 7 6 8 4 6 13 8 5 7 9 7 12 11 9 10 11 3 3 3 2
47 42 39 36 27 26 31 23 18 23 27 29 26 37 34 26 21 18 22 18 15 14 13 17 7 10 9 9 6 7 6 13 9 6 6 10 7 9 10 5 9 12 6 2 2 2 3
41 38 36 28 25 29 31 32 28 18 34 23 38 40 34 29 23 25 23 17 15 17 19 15 10 12 10 9 8 4 6 7 9 5 7 4 9 10 8 7 9 10 11 6 2 3 3
39 38 33 25 25 30 29 27 9 29 26 36 45 39 29 27 25 25 18 17 17 22 21 15 14 13 13 12 7 7 7 8 13 8 6 2 4 8 3 6 10 13 12 12 9 3 2
33 35 29 24 25 29 31 11 26 32 31 29 45 29 31 28 26 19 16 18 19 22 22 17 14 14 15 14 5 9 8 10 15 11 7 4 5 3 5 3 5 9 13 11 11 5 5
30 31 23 22 24 21 6 10 37 41 26 30 48 28 28 24 30 19 19 19 19 23 22 17 16 16 18 15 11 9 9 11 14 14 11 7 5 4 5 2 1 3 8 13 16 16 7
31 26 18 16 21 11 11 18 28 24 40 38 49 13 28 16 14 23 24 22 23 24 25 23 14 18 18 14 12 10 8 11 10 18 14 10 8 6 4 4 4 4 5 7 13 19 19
26 20 13 14 10 1 18 26 12 30 21 44 34 26 17 19 14 27 28 23 24 23 21 20 15 18 16 12 9 7 5 8 6 15 14 11 7 7 4 5 5 9 11 13 14 13 13
16 12 13 16 10 9 13 19 26 28 40 46 26 23 13 13 16 22 19 20 24 21 16 21 19 17 15 12 11 7 7 7 8 8 12 9 10 5 1 2 1 3 5 4 5 9 14
9 9 13 18 17 7 7 15 25 33 39 35 26 20 16 10 14 24 24 21 24 21 13 22 21 17 17 14 12 8 7 6 8 7 6 7 7 2 1 4 7 7 7 7 7 9 9
5 9 9 11 3 10 4 15 29 31 32 29 28 20 14 11 18 25 24 21 25 24 19 22 20 18 18 17 14 6 6 6 6 5 11 8 7 6 2 1 4 3 6 5 4 11 8
8 11 8 7 7 8 7 20 27 25 24 25 23 23 17 12 18 26 22 25 24 24 22 23 22 19 19 19 15 8 6 8 5 6 8 12 10 11 8 6 7 9 8 7 5 5 6
10 10 9 5 10 6 15 21 24 20 29 23 20 18 17 13 17 24 19 24 23 24 22 24 22 24 22 17 12 7 7 11 7 6 5 14 10 10 12 6 9 7 13 13 8 9 9
7 10 5 2 4 10 22 24 23 28 28 20 18 14 16 14 14 21 22 21 21 20 22 18 19 20 19 18 13 11 7 12 12 7 10 8 8 4 8 7 8 5 10 11 11 11 12

GFSGBSN_700_spd_090.txt.gz
Wind_Speed
40 40 40 40 40 38 37 37 35 34 33 29 30 32 32 32 32 35 31 28 22 23 23 23 23 20 23 23 24 21 24 21 20 18 16 17 20 24 26 26 32 31 36 41 32 30 53
41 41 43 43 42 42 39 39 39 37 36 33 30 34 33 34 33 32 28 29 23 20 21 21 22 20 23 22 17 20 18 15 18 15 17 21 21 24 23 26 21 29 27 34 32 30 48
43 43 44 46 46 46 44 42 41 38 38 31 30 34 34 35 36 34 27 24 23 17 17 19 21 21 20 16 15 13 15 15 16 20 16 19 19 23 23 18 17 20 15 22 30 25 34
43 44 44 44 42 43 45 43 40 38 37 33 30 33 32 39 35 36 30 22 22 15 15 18 19 18 16 13 10 9 12 13 16 10 3 12 17 23 28 14 15 21 11 22 21 37 21
45 45 46 47 46 44 40 45 42 38 37 34 29 30 31 32 36 36 30 19 21 16 12 16 17 16 9 9 8 8 10 10 8 7 1 9 13 23 21 14 12 23 8 13 20 41 23
47 47 47 47 47 46 45 39 41 41 35 34 34 32 32 33 33 37 37 21 18 16 11 13 14 11 10 6 6 6 9 9 3 5 3 6 11 22 15 18 12 18 10 10 12 25 25
47 46 46 46 46 45 45 44 40 38 36 34 37 32 33 33 30 37 38 28 16 16 12 12 14 11 7 5 4 4 8 7 2 1 1 5 13 5 12 19 6 17 16 9 12 12 15
46 44 43 43 45 46 45 41 41 37 33 30 36 38 32 31 27 33 38 27 13 13 13 13 11 10 7 5 2 3 6 6 3 3 4 3 2 6 19 16 9 16 14 13 4 10 4
43 41 41 42 43 43 41 40 39 38 33 27 32 37 35 32 30 29 39 15 12 9 11 13 11 9 7 4 0 1 4 5 2 5 4 6 5 4 10 12 10 10 15 14 12 3 8
40 41 40 37 34 36 35 34 35 36 38 27 26 32 38 30 29 32 35 11 7 8 7 6 8 7 5 4 1 1 2 3 2 5 3 4 2 7 6 11 11 13 9 10 10 7 2
43 42 41 38 37 32 29 30 34 36 35 36 29 25 32 37 29 28 31 6 4 5 3 3 7 4 2 2 1 2 0 2 2 3 4 4 6 5 3 10 13 11 14 11 12 9 5
41 39 39 40 40 39 43 41 38 34 37 41 41 32 28 36 30 29 22 2 5 4 5 5 5 2 1 4 2 2 3 2 5 5 8 8 11 6 2 7 11 14 15 16 13 10 1
42 40 40 41 42 40 40 30 28 35 33 41 47 39 34 36 28 24 19 9 6 8 5 5 5 4 3 3 4 5 5 8 4 6 5 5 6 10 5 5 7 12 16 5 4 3 2
41 39 42 42 41 39 36 28 30 29 30 32 37 35 36 37 26 27 10 16 9 6 8 8 8 8 4 5 7 4 8 8 5 6 7 3 6 5 9 6 5 12 4 2 4 3 2
40 40 42 42 39 34 37 30 21 19 17 21 22 20 27 35 23 25 19 17 4 9 10 11 13 9 6 5 5 6 10 10 9 4 2 3 4 4 11 8 10 13 5 6 7 9 4
39 41 44 47 31 31 25 17 14 17 18 13 17 10 20 28 26 21 24 18 9 10 8 11 8 7 7 10 9 7 6 8 5 6 4 5 4 4 13 13 10 11 7 3 5 2 4
41 43 45 36 32 23 19 17 18 13 7 12 18 8 19 23 22 28 28 25 13 10 10 14 9 10 9 11 9 8 4 12 6 3 8 7 2 8 8 8 15 13 5 3 6 4 3
42 41 41 33 30 22 19 19 24 21 19 19 27 17 16 23 29 34 31 23 11 16 15 15 10 9 12 12 8 4 7 8 8 7 5 4 7 6 9 10 11 11 6 3 3 3 4
43 43 32 27 25 21 23 25 23 24 14 14 26 20 15 22 34 32 25 22 15 19 18 17 12 11 12 12 5 6 9 10 11 7 3 4 4 6 2 1 6 6 7 6 3 5 4
41 30 27 25 24 20 24 22 15 13 31 13 33 23 27 36 33 29 23 12 17 20 20 16 15 13 14 14 5 8 8 9 12 8 3 2 5 2 5 3 6 8 10 8 5 3 4
42 30 24 21 19 19 19 10 6 28 37 41 39 31 38 43 40 27 16 11 21 23 20 17 14 14 15 14 8 7 7 9 12 8 4 1 3 5 7 6 5 5 9 12 10 9 4
30 22 14 12 15 12 6 10 11 22 39 25 36 30 33 11 29 26 19 19 21 22 26 23 14 15 15 14 9 6 7 8 8 13 10 5 4 6 4 2 2 2 3 8 11 14 14
24 13 9 13 19 14 4 7 34 30 35 19 32 25 26 26 11 23 27 21 20 20 23 20 13 16 14 10 7 8 7 8 6 11 11 8 2 2 1 1 2 4 8 9 9 9 9
18 14 14 15 14 6 6 2 17 18 24 11 26 30 18 10 17 19 23 20 19 20 17 19 13 15 14 12 10 7 7 6 6 9 10 6 4 2 2 2 2 2 2 3 5 9 12
16 16 18 17 12 22 2 8 16 18 27 13 26 21 12 3 10 18 21 20 22 20 13 18 16 15 15 13 11 8 8 7 6 6 7 8 6 3 1 3 6 5 5 5 6 6 7
17 21 19 13 13 24 5 7 16 19 23 18 28 15 5 5 12 16 22 20 23 23 16 20 19 15 16 16 10 5 5 5 5 5 8 6 6 4 3 1 1 3 2 4 5 5 6
16 17 15 11 12 18 7 16 22 19 20 22 21 14 8 5 14 17 21 22 23 23 19 22 21 18 16 16 12 5 5 7 4 5 7 8 6 7 6 4 5 3 4 6 2 2 5
13 10 10 12 9 10 12 20 24 23 23 27 21 17 10 6 13 18 19 20 22 22 21 23 21 23 20 15 9 6 5 8 6 5 5 12 9 7 9 5 6 3 7 9 5 6 9
9 12 13 13 11 8 13 21 21 20 16 23 20 13 10 6 11 20 18 20 18 19 18 17 17 17 17 16 11 9 7 9 11 6 10 8 9 6 8 5 5 3 5 8 9 10 10

GFSGBSN_700_spd_093.txt.gz
Wind_Speed
43 44 45 45 44 44 44 42 39 37 37 38 36 32 31 33 32 33 32 32 37 24 23 22 20 14 16 21 23 23 21 18 18 19 17 15 18 17 26 27 23 29 32 35 33 30 33
46 46 45 44 43 43 44 44 43 40 37 37 37 35 32 30 28 31 32 34 36 25 22 22 20 14 15 21 19 18 13 14 16 16 20 19 16 18 22 23 23 26 29 29 24 34 33
46 47 47 48 48 46 43 42 41 41 38 36 35 36 34 27 31 27 33 35 35 36 22 20 18 14 15 17 15 12 13 13 14 14 14 6 15 11 17 15 21 22 21 25 24 32 26
46 46 47 48 49 49 48 46 43 36 39 38 34 33 37 25 27 30 28 32 34 38 17 20 20 13 15 13 11 8 11 11 12 11 11 4 11 11 17 20 13 17 13 14 22 24 26
48 48 49 49 49 48 48 46 43 39 32 35 36 31 32 31 25 29 32 33 31 29 15 19 19 12 12 9 8 7 8 10 7 7 5 5 3 12 13 20 19 12 5 11 11 20 23
49 49 50 50 48 46 44 43 43 44 39 33 35 31 28 31 26 24 27 29 37 27 11 17 17 10 8 9 7 5 7 10 5 4 2 0 6 8 14 19 10 18 9 8 11 18 19
50 50 48 49 47 46 45 46 45 44 41 34 31 30 28 29 35 27 24 31 34 21 10 13 16 12 11 8 6 5 5 8 6 2 2 3 10 15 14 16 2 11 15 11 11 9 11
50 50 50 49 46 44 43 41 40 39 37 33 32 27 26 25 28 24 26 29 30 18 11 13 15 13 9 6 6 5 3 5 6 4 1 2 3 9 7 15 8 11 14 12 7 7 8
48 46 45 45 42 40 37 35 35 35 33 33 31 24 23 17 21 30 22 27 25 7 8 15 13 12 8 6 4 3 3 3 3 4 3 4 4 8 11 13 9 13 13 14 13 16 15
46 45 42 39 36 33 33 33 31 31 34 29 29 24 21 15 16 23 26 25 19 3 5 6 8 10 6 4 4 3 2 2 1 4 0 3 5 4 6 12 11 12 14 8 5 4 3
47 43 41 38 37 37 37 33 31 31 30 33 33 31 26 19 13 18 24 23 15 4 2 4 8 7 3 3 2 4 1 4 3 1 2 5 6 4 6 8 11 10 13 11 14 8 5
48 43 40 38 37 37 37 36 34 31 27 27 32 30 30 24 14 17 20 21 5 4 4 7 8 5 4 2 3 3 2 3 4 7 6 8 6 5 7 6 9 14 16 17 11 10 4
47 41 39 38 37 39 40 34 38 23 26 23 29 31 32 28 20 18 15 15 6 5 4 6 8 8 6 3 7 5 5 5 5 4 4 7 6 8 4 6 11 14 17 4 3 2 3
43 40 40 38 39 40 42 29 23 22 23 23 21 26 19 22 22 16 17 13 6 4 7 8 12 11 5 6 6 7 9 7 4 5 5 2 5 4 3 2 8 10 10 3 4 3 4
40 43 40 40 39 35 33 19 15 12 11 13 16 17 14 17 22 14 18 13 5 4 9 13 16 9 7 5 7 8 9 6 8 2 2 2 4 5 6 5 6 6 9 9 10 11 7
42 42 40 39 31 31 23 15 9 5 9 14 14 11 13 17 12 18 20 17 10 6 8 14 5 6 7 11 10 8 5 6 4 4 5 5 2 11 9 12 11 9 6 4 4 3 4
47 45 40 33 31 27 19 12 11 7 6 8 12 13 6 21 16 21 29 18 14 7 9 13 5 10 10 14 9 6 3 8 4 3 7 5 5 7 8 6 11 6 5 8 7 4 3
46 41 33 21 30 17 16 13 13 11 10 16 14 7 8 19 24 29 30 22 7 10 13 9 6 10 12 11 7 3 7 4 7 8 5 5 6 8 11 9 7 6 9 9 4 2 8
49 38 27 19 18 18 16 14 15 9 11 17 7 9 8 17 24 25 24 22 8 12 15 10 8 12 13 12 5 6 8 10 7 4 4 5 6 5 5 5 5 2 3 8 11 8 7
38 31 25 15 15 15 13 15 9 8 9 12 9 14 15 19 23 22 24 11 11 11 16 12 12 13 14 11 5 7 7 10 7 5 6 6 7 6 7 5 4 3 4 3 2 4 6
35 30 27 21 16 14 11 11 13 7 12 20 14 19 21 27 28 20 18 9 12 10 15 15 15 12 13 10 7 8 5 8 8 5 4 6 7 9 11 8 6 5 6 6 3 4 4
30 25 24 24 20 12 2 12 6 18 30 31 23 20 23 3 26 20 12 16 15 15 17 18 14 14 12 9 7 6 5 7 6 8 4 3 6 7 6 6 6 5 2 5 4 3 4
24 25 29 29 19 6 4 15 17 26 15 21 16 19 13 20 9 24 18 8 12 16 16 17 12 13 11 9 5 5 5 6 4 4 6 4 5 4 2 3 2 0 3 4 4 2 2
21 23 21 21 21 13 5 10 21 25 17 4 13 17 14 15 18 13 21 13 14 11 15 18 11 13 13 10 7 7 6 5 2 5 8 6 6 4 2 2 2 3 3 2 2 3 5
22 23 20 12 16 20 0 10 13 10 14 9 14 16 5 7 9 12 14 21 16 12 11 17 12 13 14 12 11 9 6 5 5 6 7 7 6 2 1 2 1 3 3 4 3 3 3
19 20 16 15 23 23 7 13 14 15 14 6 11 9 7 4 6 14 21 19 21 17 18 17 15 13 15 15 9 5 5 5 5 6 7 6 6 4 2 2 3 3 4 3 3 2 2
19 17 15 19 29 21 9 11 6 14 12 10 13 5 6 1 8 16 21 23 23 19 19 20 18 16 16 15 10 5 5 8 6 7 10 8 4 6 4 2 4 7 5 5 3 5 2
13 9 15 20 23 17 10 12 14 16 16 20 14 5 5 6 9 12 15 20 21 19 19 21 20 20 18 13 8 6 5 9 8 8 10 12 9 8 9 5 5 8 8 8 5 6 5
7 7 14 15 15 12 9 12 17 18 17 18 11 7 2 4 5 13 14 15 17 17 15 17 14 15 15 13 9 7 5 7 9 6 11 10 10 5 8 4 5 5 3 4 6 7 6

GFSGBSN_700_spd_096.txt.gz
Wind_Speed
38 38 40 41 40 39 39 39 40 40 37 37 36 34 33 34 32 30 30 28 27 24 29 29 30 26 24 20 19 18 16 14 14 16 17 19 19 17 20 19 17 26 27 25 30 31 30
41 42 42 42 42 41 40 41 41 38 37 37 36 34 31 32 31 27 28 29 26 25 28 29 27 21 21 18 18 14 12 12 13 16 15 20 20 19 19 20 21 13 20 26 25 26 27
43 44 44 44 44 44 44 43 41 39 35 34 34 32 30 29 28 25 25 23 29 26 29 28 17 18 17 17 15 10 9 11 13 14 12 14 12 13 8 10 18 19 21 22 26 29 24
44 43 43 42 43 44 44 43 45 41 35 29 29 32 29 26 25 25 27 20 28 24 28 29 17 18 15 17 11 8 9 10 12 9 6 6 8 8 9 11 15 17 20 21 20 26 25
44 45 45 44 44 45 45 42 37 41 41 36 29 31 30 26 23 21 23 27 25 26 25 26 11 13 13 9 8 7 9 8 9 3 4 5 3 6 9 11 13 18 18 18 14 22 22
46 46 47 47 45 42 38 32 33 28 25 34 25 26 28 23 22 20 28 24 24 25 28 24 14 12 8 11 7 7 8 8 5 3 1 2 4 6 9 12 10 9 12 5 7 18 23
46 45 45 44 38 32 32 32 33 31 30 32 26 23 23 19 19 19 24 30 23 25 31 15 10 10 12 9 7 8 8 7 2 6 4 6 9 12 9 12 14 10 10 3 3 10 16
48 46 44 44 44 38 33 33 32 32 34 33 29 19 18 17 15 14 19 27 23 21 20 16 11 12 9 8 7 8 8 5 2 5 4 6 9 11 15 15 8 5 10 7 7 13 7
48 46 44 44 44 37 32 32 34 33 30 28 29 19 14 12 7 11 13 19 15 19 13 9 9 9 10 8 8 8 7 4 1 6 5 5 5 1 4 10 8 9 14 10 15 14 12
47 46 43 42 41 36 32 33 32 29 28 25 27 24 18 10 9 12 14 9 19 13 6 3 1 5 10 8 8 9 5 3 3 6 4 3 4 2 6 7 10 10 15 12 9 3 4
50 51 47 42 36 37 32 36 35 32 29 23 24 21 24 15 8 8 8 8 13 11 3 4 4 6 7 9 6 8 3 1 4 4 2 3 3 2 4 9 11 6 14 7 4 4 4
59 60 48 38 37 38 35 35 30 32 29 29 24 20 17 12 6 7 7 4 2 3 2 6 8 8 9 7 6 5 4 4 5 4 3 3 3 1 2 4 6 11 14 12 6 4 2
61 61 42 38 39 38 34 30 29 17 15 11 15 18 13 9 4 8 2 6 6 3 7 6 10 9 7 5 7 8 8 6 4 3 6 3 2 2 2 4 10 18 16 5 3 3 3
70 51 45 43 42 38 28 22 21 11 11 11 13 15 10 8 10 7 7 15 3 9 9 8 12 13 6 8 11 11 8 5 1 3 3 2 1 4 1 2 9 17 3 3 4 4 5
61 49 46 38 34 30 26 16 10 5 4 5 6 13 8 6 7 13 13 12 3 13 9 11 16 11 7 5 7 7 7 4 5 2 0 1 0 3 3 5 3 8 2 6 12 10 8
53 49 43 33 25 25 20 9 3 2 5 3 4 6 8 7 12 18 16 11 6 8 9 15 5 7 6 10 7 9 3 5 3 3 3 1 0 6 6 6 9 7 5 2 3 4 5
46 43 39 30 17 22 18 12 6 5 5 3 5 7 8 14 19 23 18 13 11 8 9 13 2 7 10 10 11 7 4 5 3 4 5 5 4 4 7 6 7 9 5 5 6 4 4
41 39 34 24 18 16 15 13 9 7 7 3 5 2 9 21 29 25 19 15 11 8 10 7 3 5 13 10 8 5 8 3 10 8 8 7 7 8 10 7 10 15 18 10 4 5 7
35 33 33 27 23 20 17 9 11 5 2 2 3 4 11 26 17 23 14 14 8 10 11 7 4 6 14 9 5 10 8 11 8 7 4 5 4 4 3 4 5 7 11 15 14 10 8
31 30 29 25 23 19 18 14 4 1 5 1 5 8 13 22 12 16 15 7 8 9 12 8 8 10 14 8 8 12 12 8 7 8 8 7 8 5 5 5 4 5 7 9 11 11 13
29 30 31 33 23 18 14 13 12 3 2 8 11 10 14 16 18 7 6 7 9 10 11 10 10 11 11 7 9 12 7 10 8 7 8 7 9 11 12 10 7 7 6 8 12 12 11
28 30 30 26 18 12 10 13 13 11 17 18 17 15 12 15 15 6 4 9 11 11 13 9 10 12 9 7 5 10 7 10 5 5 4 5 7 10 9 9 9 10 7 6 7 10 16
27 30 31 23 19 11 22 20 23 20 10 24 15 11 5 2 2 9 6 6 12 11 13 10 12 10 9 6 6 8 6 8 6 5 4 4 5 5 3 4 5 5 5 7 7 7 8
23 28 27 15 14 16 20 20 23 26 21 14 11 8 2 3 3 2 8 11 12 10 12 13 13 10 10 8 7 7 5 4 3 5 6 6 6 4 3 3 2 4 5 6 6 6 6
23 22 16 14 8 16 17 21 20 25 21 19 14 8 3 2 9 6 12 13 13 15 15 15 12 11 12 9 9 6 5 4 4 6 7 7 6 3 2 2 5 6 6 6 7 6 6
17 16 14 19 21 20 17 15 16 15 19 20 15 7 5 7 2 5 13 17 17 11 16 16 14 13 14 12 7 3 3 4 4 5 7 7 7 5 4 3 4 5 10 10 9 7 8
13 13 17 25 22 22 18 11 7 8 9 11 6 3 3 6 4 7 17 19 18 12 16 16 16 15 13 11 6 2 2 5 3 5 7 6 4 5 5 3 4 9 9 10 6 5 10
8 10 14 19 22 17 13 8 7 3 1 2 4 6 5 5 9 8 14 20 18 12 17 16 15 15 13 10 4 4 3 7 5 6 8 9 6 6 7 5 5 12 12 10 6 10 8
10 7 8 14 19 16 15 13 10 10 9 9 2 1 4 6 6 8 11 14 16 12 14 14 9 8 11 11 7 5 5 4 9 3 12 7 10 4 8 6 5 11 10 9 9 9 9

GFSGBSN_700_spd_099.txt.gz
Wind_Speed
37 39 40 41 41 41 41 40 37 36 36 35 34 34 32 32 31 31 30 31 33 27 24 26 23 24 22 17 19 19 20 19 17 12 13 16 20 18 22 17 16 26 26 26 28 27 29
40 42 43 42 41 42 44 44 43 42 36 30 29 29 29 28 28 27 26 29 29 26 27 23 24 22 18 16 18 18 16 15 12 11 13 17 20 18 22 23 22 17 16 22 28 29 27
42 45 45 43 42 41 41 41 39 37 35 33 28 28 27 25 24 23 22 28 22 28 22 24 22 19 21 17 16 15 13 12 11 12 13 15 18 22 17 13 13 17 21 25 28 26 30
43 43 42 43 43 43 40 38 34 27 27 31 25 22 25 26 23 20 20 26 25 23 23 21 23 15 17 15 14 13 11 11 11 10 9 9 11 11 16 11 11 15 19 21 24 28 29
43 43 42 43 44 40 33 34 32 31 30 28 25 23 20 22 20 17 14 20 23 26 21 19 18 19 16 14 12 11 10 10 9 8 6 4 5 8 9 11 11 14 19 21 26 21 24
45 45 46 44 44 42 36 35 34 33 30 30 28 26 19 18 15 14 13 22 28 24 19 19 20 18 12 11 12 10 10 9 7 7 5 8 8 12 10 13 12 10 13 20 21 12 25
46 44 45 48 45 41 35 36 39 36 33 30 28 26 18 16 13 14 15 25 18 22 16 15 21 13 9 10 10 10 10 7 5 6 10 11 15 19 11 15 20 19 18 19 16 16 22
44 51 50 51 46 49 38 38 35 31 30 29 30 26 19 15 10 13 17 20 26 21 19 16 20 16 13 12 8 9 9 6 6 9 10 13 18 9 15 19 18 15 14 16 10 7 15
43 47 50 48 67 42 36 36 32 31 31 29 27 23 16 13 8 7 11 11 16 15 14 12 12 12 12 11 9 9 7 6 8 10 12 17 13 10 9 7 12 13 15 15 9 9 6
51 44 53 69 51 41 38 34 31 30 31 27 23 21 13 11 6 12 9 14 2 13 6 6 9 7 13 10 7 7 7 7 8 6 10 13 10 6 6 6 10 16 14 9 8 6 3
45 49 60 57 44 42 40 35 30 31 28 21 15 18 12 7 5 8 7 3 4 10 4 6 8 10 11 11 3 7 6 7 4 7 8 5 6 5 4 10 12 9 4 9 8 11 5
53 47 57 47 42 35 34 31 27 22 19 14 10 12 8 6 8 9 10 5 10 5 3 7 8 8 8 7 6 7 8 6 3 6 9 7 7 4 4 8 11 5 9 9 11 14 1
45 50 47 45 39 31 28 22 17 11 6 6 0 9 7 4 8 8 9 9 6 5 8 7 7 9 9 5 5 8 6 4 4 5 4 3 6 6 4 9 4 9 13 4 4 2 3
49 42 42 37 29 32 27 20 11 9 8 2 2 3 4 4 8 10 10 9 5 4 7 9 8 10 4 7 5 6 4 5 4 5 6 2 3 5 5 5 6 7 3 6 2 1 1
40 38 32 31 25 29 26 18 12 12 14 10 6 6 11 7 11 11 9 7 5 7 7 8 13 5 4 5 5 6 6 3 1 3 4 3 1 3 3 10 10 3 5 5 2 7 6
35 34 31 25 26 24 23 18 13 10 13 8 9 12 9 7 11 15 10 2 4 9 9 14 4 2 4 7 6 6 5 4 1 1 2 4 3 1 1 10 11 5 4 4 3 1 5
31 31 36 23 22 20 16 16 12 6 9 7 7 6 9 11 13 18 9 2 2 9 11 4 4 4 5 9 3 2 1 4 1 4 5 4 3 6 10 8 8 6 5 4 2 4 2
29 30 35 34 21 21 21 17 13 6 6 7 14 11 15 15 19 15 7 5 5 7 11 6 4 6 6 7 4 2 3 1 7 8 7 9 9 9 7 9 10 12 9 4 1 5 13
27 30 34 33 23 20 19 16 10 10 11 8 16 18 21 21 9 14 4 4 7 10 9 4 3 4 8 4 2 5 7 9 9 8 4 6 4 0 3 5 11 8 15 12 11 9 4
27 31 33 31 27 19 13 15 14 14 15 13 18 23 17 15 8 7 8 1 6 8 8 4 6 7 6 4 5 6 9 6 8 10 8 9 9 8 9 4 5 8 15 15 13 13 13
28 33 34 28 25 19 13 6 5 11 15 18 22 24 20 14 7 5 5 7 7 10 6 5 6 6 4 4 7 5 4 7 7 9 9 8 10 12 11 8 8 9 12 13 16 10 14
31 34 28 21 22 25 23 19 21 22 18 19 20 14 10 15 8 7 8 8 9 9 9 6 6 6 5 4 3 3 4 2 2 4 8 6 7 10 9 9 9 9 9 11 16 17 18
27 25 16 24 28 29 27 31 30 30 22 18 14 17 15 8 4 6 7 7 11 12 7 8 10 4 5 6 5 5 3 5 2 1 2 4 4 5 3 5 4 4 4 7 9 12 12
24 23 10 27 33 34 30 27 28 27 21 16 13 11 12 10 7 7 7 13 13 13 13 7 10 6 7 5 4 3 3 1 1 3 3 2 2 3 2 3 1 2 5 6 7 9 10
19 17 11 24 28 28 27 23 21 21 18 18 16 17 12 8 6 7 10 14 13 13 14 9 9 6 8 7 4 3 4 4 4 1 4 6 2 1 1 1 1 3 5 6 7 6 9
13 10 7 23 25 25 24 22 21 21 16 16 17 14 12 11 6 4 14 13 13 11 13 9 9 9 9 7 2 0 1 1 3 4 5 5 4 2 2 1 3 3 7 7 5 4 8
10 7 6 11 17 18 18 16 15 12 10 13 13 12 13 9 5 6 13 18 17 14 13 10 9 10 9 2 1 1 2 2 2 3 3 3 2 6 6 4 5 8 9 9 4 3 8
7 6 1 11 14 13 11 14 10 10 9 9 9 9 10 7 5 6 9 18 17 16 12 11 10 12 9 4 2 3 2 4 3 6 2 4 3 4 5 5 6 8 13 11 9 6 9
5 3 3 7 12 14 12 13 12 10 7 7 5 4 7 8 4 6 10 16 15 14 13 14 8 6 10 7 6 3 4 5 5 4 7 4 8 5 7 6 11 8 16 13 11 10 12

GFSGBSN_700_spd_102.txt.gz
Wind_Speed
39 39 39 40 41 41 41 41 42 42 39 38 35 33 30 28 27 27 27 29 28 33 37 28 26 24 20 18 17 13 17 17 15 15 15 14 14 17 16 16 15 23 27 26 25 28 31
41 42 43 43 44 44 45 45 45 41 36 30 29 28 28 27 25 23 23 23 26 27 28 25 28 25 20 19 17 17 17 15 14 12 12 14 15 15 19 18 19 21 19 21 22 26 30
42 42 43 44 44 41 38 39 40 40 34 28 26 29 27 21 22 20 20 20 21 28 28 26 24 22 23 17 19 16 16 14 11 10 11 12 14 16 18 11 8 12 20 23 26 29 33
41 44 44 41 36 38 40 37 38 37 34 32 30 26 20 20 19 16 17 18 20 28 27 15 24 15 16 14 17 13 14 12 10 9 10 9 11 14 9 8 13 13 19 29 19 13 23
43 41 42 43 47 42 44 39 55 42 30 32 28 24 21 16 19 13 10 13 15 22 29 21 26 21 15 14 15 14 12 9 8 8 8 8 8 7 7 8 13 12 22 19 25 18 24
40 44 44 44 44 45 39 62 40 33 33 29 28 24 15 9 16 11 14 12 21 23 21 18 17 9 12 9 9 9 9 7 7 7 7 7 8 9 9 9 14 13 16 23 28 26 16
46 49 49 46 49 42 56 47 37 39 27 26 20 21 17 15 14 13 16 22 13 12 18 15 6 7 9 9 12 11 9 7 7 8 5 9 10 14 12 16 23 23 26 27 27 21 19
49 50 43 51 46 63 49 40 36 34 24 17 17 21 19 15 13 13 17 18 19 8 3 12 12 13 16 12 9 9 8 7 7 8 5 14 15 10 14 17 25 25 26 27 22 14 13
49 50 52 45 57 52 42 34 31 27 22 20 18 20 19 12 8 8 10 18 13 21 8 11 11 13 16 10 9 8 8 9 8 8 9 13 14 18 14 14 16 14 20 21 22 15 14
47 47 46 43 38 33 30 31 28 23 20 18 20 18 8 1 4 8 7 19 10 14 5 3 7 8 9 11 8 8 8 8 5 4 5 10 9 12 10 14 11 14 10 19 22 9 7
51 52 41 42 29 30 33 25 25 17 21 11 7 4 5 6 4 3 4 2 3 9 4 7 8 6 11 12 4 7 8 7 4 4 5 5 6 10 12 12 13 16 15 10 18 18 17
53 45 38 38 29 33 31 20 24 20 16 8 5 13 10 10 3 5 5 8 9 5 2 7 7 11 13 10 6 7 7 2 1 5 9 10 10 8 8 12 12 15 13 10 15 19 4
50 38 34 36 30 30 30 21 19 19 16 14 14 11 6 11 6 5 7 10 7 3 10 10 9 14 10 6 6 3 2 2 3 3 3 2 5 10 10 13 12 10 8 4 3 1 2
44 35 35 35 28 27 24 20 18 19 18 13 14 16 13 9 7 4 8 11 1 11 13 11 14 13 6 7 3 4 2 1 3 5 8 3 4 5 7 10 3 7 9 5 4 3 3
39 33 37 30 27 25 21 18 20 22 17 16 18 14 10 8 8 7 9 4 7 9 14 16 14 9 8 3 4 4 3 3 1 2 6 5 1 7 5 1 3 2 6 13 6 5 2
32 31 34 30 27 25 18 18 14 17 20 13 16 13 11 7 7 13 9 12 13 15 19 8 6 6 7 4 4 3 3 2 1 2 4 4 4 3 0 9 5 5 10 5 5 5 4
30 31 32 28 27 23 21 19 15 13 14 11 13 15 13 9 9 13 16 11 14 16 10 9 12 8 9 7 2 2 3 4 1 2 5 1 1 6 15 7 10 13 12 8 9 3 2
31 30 29 25 22 21 22 24 24 21 17 15 15 17 15 13 13 10 12 12 12 16 13 13 11 11 7 5 5 4 4 4 3 4 11 12 9 7 7 15 13 17 15 10 5 7 20
35 33 29 21 16 15 21 26 23 20 19 17 19 18 19 15 11 11 10 13 12 13 8 12 8 7 9 3 4 5 6 8 9 11 6 6 6 4 3 6 12 13 18 5 8 5 8
33 32 24 18 17 17 18 21 21 19 19 20 24 19 16 12 10 8 10 10 12 10 12 12 11 11 9 8 6 5 5 7 11 11 9 8 9 10 7 5 10 13 19 12 15 15 22
27 26 14 16 19 20 21 21 16 18 16 14 17 14 11 10 6 6 9 10 8 9 10 12 11 6 8 5 8 5 7 10 12 12 10 8 12 14 11 9 10 13 19 19 18 15 23
23 11 9 15 18 21 20 23 24 18 19 11 12 13 9 10 10 12 13 11 6 9 10 11 9 8 7 7 10 3 5 3 3 9 9 7 5 9 10 9 11 12 13 21 24 22 25
15 6 6 15 20 19 19 21 23 22 19 17 15 12 9 7 9 11 9 11 12 11 9 10 10 6 4 7 7 4 3 1 3 5 5 5 5 5 4 6 5 4 8 12 17 18 15
12 3 9 12 19 22 20 21 18 17 14 14 10 12 13 9 9 10 8 13 15 11 11 10 7 6 6 4 8 4 5 4 5 3 3 5 7 6 3 6 3 3 2 5 11 14 10
12 3 7 10 16 20 20 18 18 17 15 14 15 14 11 7 7 12 11 13 16 11 10 9 6 5 5 3 8 6 8 8 9 3 2 1 5 3 3 5 4 1 3 5 8 8 9
11 7 4 9 11 13 17 17 18 17 14 13 14 14 13 8 7 12 14 15 15 13 11 9 7 6 5 2 5 3 3 3 4 9 5 2 2 2 3 1 2 4 3 5 4 2 7
10 7 3 9 8 8 10 14 13 14 13 12 13 15 14 9 6 11 14 15 16 17 14 9 8 7 6 3 2 1 1 5 2 2 5 2 2 5 4 3 5 8 6 8 5 2 4
11 10 7 8 12 8 7 7 7 10 11 11 11 12 12 9 7 9 11 15 16 15 12 9 8 8 5 3 1 3 2 4 4 7 6 3 3 5 6 5 7 4 9 11 8 5 5
11 10 10 7 12 13 13 11 7 6 6 8 7 7 7 6 6 7 14 16 15 15 11 11 7 8 7 7 5 4 4 6 6 4 6 5 10 5 8 7 8 8 10 14 12 8 8

GFSGBSN_700_spd_105.txt.gz
Wind_Speed
42 40 40 42 42 42 41 38 31 32 32 34 31 30 29 30 30 24 24 25 26 26 23 27 30 22 16 20 20 16 16 15 13 14 14 14 14 17 17 13 17 22 20 22 23 25 28
40 39 39 42 41 37 37 35 35 34 29 38 33 29 29 28 26 22 21 22 23 24 27 25 23 32 23 22 21 16 14 15 12 13 13 13 13 15 15 13 15 17 18 19 20 21 23
36 38 40 43 44 44 45 43 33 34 38 47 36 31 29 27 23 22 16 21 20 21 25 30 23 24 22 23 22 15 15 12 11 12 11 12 11 12 13 11 10 10 15 14 15 14 21
40 39 43 46 47 47 41 47 39 51 39 32 32 31 28 23 19 18 14 18 17 20 24 28 11 19 23 14 20 16 14 11 11 10 9 10 10 11 10 7 9 13 15 15 9 13 14
42 44 50 45 43 40 51 43 50 45 34 32 34 31 26 24 18 12 10 7 13 18 19 15 11 8 10 14 14 11 12 11 11 10 8 7 8 8 7 8 9 7 12 16 21 15 22
44 48 46 47 43 42 45 46 35 33 28 28 31 16 11 12 8 6 11 11 12 17 17 15 19 8 9 11 9 10 12 12 10 7 6 6 7 10 9 10 6 11 17 26 26 27 26
45 42 51 50 42 40 36 34 31 25 26 19 8 6 5 3 5 4 13 17 5 23 17 16 3 11 6 9 12 12 11 10 9 9 6 7 10 9 6 11 14 17 21 25 28 22 31
50 49 55 41 39 41 30 34 27 21 19 13 10 8 8 4 5 5 9 12 17 3 13 13 12 9 8 11 10 10 11 11 10 11 6 11 13 5 6 12 15 15 24 30 27 18 27
47 55 47 39 44 36 36 32 23 15 12 9 5 3 7 7 5 4 7 12 8 7 3 6 6 11 10 9 9 9 10 10 8 5 5 12 6 12 15 16 15 14 17 17 22 26 29
58 50 41 39 41 32 32 22 23 17 13 7 9 3 5 5 7 3 4 8 17 9 6 5 6 5 10 7 6 9 11 9 8 3 5 8 3 8 8 11 12 19 12 14 19 17 6
48 41 42 42 31 31 29 26 23 20 19 15 9 18 12 10 12 7 7 12 11 16 4 4 8 7 11 11 7 8 9 8 6 6 6 4 5 8 10 10 10 20 18 20 20 20 20
39 39 40 34 26 27 24 28 27 23 19 25 20 15 15 13 12 9 7 10 17 5 4 6 8 11 17 9 7 9 8 5 4 5 9 8 10 12 6 10 14 18 18 16 16 17 7
36 37 38 31 26 23 21 26 23 21 20 19 14 13 12 12 12 9 9 12 6 4 8 10 12 16 11 9 6 6 4 4 3 3 3 4 5 9 13 15 8 7 10 4 4 5 2
36 35 34 30 24 21 17 24 25 18 13 15 14 15 13 13 14 11 15 8 8 20 16 18 16 13 13 10 7 5 5 3 1 2 9 5 4 5 8 12 8 5 8 4 4 4 2
37 33 29 27 25 19 16 17 23 20 12 11 12 12 12 17 20 16 9 14 8 14 20 20 17 15 10 7 6 6 3 4 3 1 5 4 3 9 6 7 2 3 6 14 6 9 2
39 31 23 22 21 19 16 15 18 17 13 12 11 13 16 21 18 16 24 20 15 19 19 11 7 5 11 9 4 2 1 1 1 4 5 5 5 6 3 6 6 7 10 3 5 3 4
40 34 18 16 17 18 18 18 17 15 14 13 11 16 16 20 18 22 28 24 21 19 23 20 15 11 11 6 4 4 3 3 2 4 2 4 2 6 8 9 15 13 14 7 7 1 1
40 33 19 9 13 14 17 17 16 15 15 14 13 16 16 18 19 24 20 22 21 20 18 19 16 13 11 6 10 6 5 3 5 12 9 10 6 7 11 10 11 19 16 9 4 7 13
35 32 18 6 7 12 14 16 18 16 16 14 15 19 18 15 20 21 20 20 19 17 16 15 14 13 12 10 6 7 10 14 14 12 10 9 7 4 3 5 16 24 16 8 5 6 16
22 23 14 6 3 9 14 14 13 15 16 17 18 18 19 16 19 19 20 19 17 18 18 19 15 13 14 14 10 8 9 13 14 10 10 8 12 13 7 6 13 16 18 10 3 10 25
17 8 7 4 3 6 10 12 10 11 13 12 12 11 11 14 16 15 15 17 16 18 17 16 11 11 8 8 11 11 10 10 14 15 8 9 13 13 11 9 10 16 19 16 24 29 21
16 11 5 1 3 5 8 12 14 10 8 8 11 14 15 21 18 16 16 16 13 16 14 13 11 11 6 11 11 6 7 8 10 11 9 8 6 9 10 10 12 16 21 23 22 25 26
17 12 7 3 1 6 12 13 13 13 13 11 8 9 8 13 14 15 17 15 14 13 13 12 8 7 6 7 7 8 7 6 5 6 6 7 6 3 3 4 3 6 12 18 20 18 17
15 14 8 6 3 2 5 6 6 8 11 9 8 9 8 8 12 16 15 15 13 9 11 10 7 6 8 6 6 8 8 6 7 5 4 3 4 4 1 2 2 2 6 12 16 16 9
16 12 9 6 5 2 1 2 0 3 7 8 8 8 6 7 9 14 16 16 14 11 10 9 6 7 6 4 3 3 4 4 5 4 2 2 2 2 2 3 1 3 6 8 13 11 9
18 9 8 7 4 7 3 2 1 2 4 6 7 7 7 6 10 14 17 16 16 12 11 11 8 7 6 4 3 1 1 4 2 4 4 2 3 2 1 0 3 3 4 7 9 9 13
18 11 7 10 9 5 6 6 2 5 5 7 7 4 4 6 7 13 15 16 16 14 12 10 9 8 7 4 3 2 3 4 4 4 3 3 5 6 5 4 5 9 7 9 8 4 12
16 16 7 7 15 13 8 9 9 6 5 8 9 8 5 3 6 10 11 14 14 14 11 9 9 10 7 7 3 3 4 4 6 7 7 5 4 6 7 6 8 9 11 13 9 8 7
15 15 11 9 10 15 15 13 11 10 10 10 7 9 10 4 3 9 11 14 15 14 12 10 7 6 8 7 6 5 7 7 7 5 9 6 11 6 10 6 8 9 7 10 13 9 7

GFSGBSN_700_spd_108.txt.gz
Wind_Speed
36 38 39 40 40 45 44 37 36 30 34 28 25 25 29 28 25 23 22 20 26 24 25 29 29 26 23 25 20 16 14 13 15 12 12 13 13 15 14 12 18 22 21 24 23 24 26
37 38 41 42 42 44 41 34 32 31 37 30 33 34 30 27 26 24 23 20 18 23 24 20 33 29 29 18 19 17 16 13 11 12 13 12 14 14 13 12 16 17 19 16 17 17 18
36 41 43 42 45 42 40 32 33 37 37 42 36 37 30 28 24 24 19 17 20 20 22 29 25 23 22 19 16 15 16 13 11 11 12 11 12 11 11 12 15 13 12 12 11 6 11
41 46 46 43 55 39 32 30 33 31 29 29 30 26 27 22 26 22 18 15 16 20 24 27 23 34 18 17 15 20 15 12 12 10 12 11 9 9 10 10 12 11 12 10 8 12 10
38 51 55 49 36 36 35 33 28 28 26 23 27 24 21 33 22 15 16 14 15 22 23 24 22 21 19 18 16 21 15 12 12 11 10 9 8 9 9 9 10 7 10 15 17 9 15
47 54 51 40 36 40 33 30 33 26 22 20 21 12 3 8 14 16 14 14 20 19 28 21 20 10 10 14 12 10 13 13 11 10 8 8 9 10 8 11 4 9 17 23 25 21 27
49 51 43 43 40 34 33 31 25 18 16 13 11 15 14 7 11 10 5 3 22 23 31 19 13 9 7 10 14 14 14 12 12 9 6 7 10 7 4 9 11 14 18 24 25 19 25
48 45 43 38 36 34 30 27 28 18 10 11 6 8 10 8 5 6 4 17 18 18 17 12 10 15 11 9 13 14 12 11 10 8 6 10 10 3 5 10 14 15 20 22 17 14 23
45 42 40 34 32 30 33 31 26 22 10 7 6 5 5 7 5 5 7 9 10 20 16 22 17 16 14 12 12 10 11 11 8 6 6 8 2 6 11 14 15 16 19 21 22 23 28
43 42 39 32 30 28 30 30 29 21 14 16 8 12 17 15 10 10 10 16 15 17 12 12 10 10 9 8 11 12 13 9 6 1 3 8 3 6 10 13 11 21 14 12 16 17 11
45 41 37 30 28 26 27 28 26 26 22 22 20 20 16 14 13 10 13 14 11 8 5 5 7 8 11 8 13 11 10 7 6 6 5 4 5 8 11 12 8 15 15 18 21 25 26
49 41 36 29 26 23 26 25 24 22 24 21 18 19 16 16 17 17 17 16 13 5 4 5 8 16 13 10 8 11 10 6 5 7 12 9 11 14 10 10 13 19 21 17 15 15 7
52 44 34 28 23 17 22 22 21 19 18 20 19 18 15 15 16 18 20 18 7 8 7 8 16 17 13 12 11 8 6 4 2 2 3 6 7 9 11 13 9 8 8 5 3 3 3
48 48 32 27 20 18 18 20 17 17 17 21 24 22 19 18 25 24 12 11 10 13 17 21 18 15 12 10 8 7 6 2 2 3 8 4 2 4 6 11 8 10 7 4 4 3 3
45 40 33 24 18 18 16 17 15 16 18 21 23 23 23 14 10 15 20 26 12 16 19 20 17 13 8 7 6 5 3 2 1 2 3 4 4 7 7 5 3 5 7 13 6 11 3
41 33 28 21 16 14 14 12 13 14 16 18 20 18 15 15 19 20 32 26 22 25 17 10 7 7 11 8 4 3 2 2 3 4 7 5 6 7 6 8 6 6 11 5 5 3 2
33 31 21 17 14 12 12 13 12 13 15 18 17 17 16 19 23 29 34 25 23 20 17 11 12 13 9 8 4 2 2 1 4 6 2 2 2 3 8 6 10 11 8 6 4 2 2
28 29 24 18 12 11 11 12 13 13 15 14 12 14 15 19 26 28 29 25 22 21 20 16 15 11 8 7 7 6 14 9 10 13 12 7 6 5 8 12 9 11 11 8 2 4 7
25 24 23 20 14 8 8 9 10 9 11 12 13 14 14 18 21 22 22 22 20 18 17 13 9 10 9 5 7 11 15 13 14 14 9 8 4 3 2 3 8 9 9 4 6 6 10
23 20 20 19 17 12 7 7 7 8 10 10 9 10 14 17 19 19 22 21 21 19 18 14 12 13 14 13 9 11 12 14 14 11 9 7 11 10 6 5 12 12 11 2 3 14 22
24 18 17 15 16 15 11 5 3 4 6 4 4 6 6 16 17 15 12 18 21 18 14 11 10 10 10 8 11 11 11 10 12 11 10 8 9 10 9 9 12 14 20 15 25 18 16
25 18 13 14 12 13 13 10 7 3 2 7 9 9 10 14 15 16 14 15 15 13 11 10 10 8 7 8 10 8 9 9 9 8 6 4 3 6 8 11 12 14 13 12 18 23 24
23 18 12 9 11 11 12 13 11 7 3 2 7 9 8 11 13 13 13 11 11 9 7 8 7 8 6 6 6 7 7 8 5 5 4 4 2 3 3 4 4 5 8 11 13 12 15
21 21 14 7 7 8 10 13 14 13 9 5 1 8 9 8 8 12 14 13 11 8 7 6 5 6 6 4 2 3 3 3 4 2 2 2 2 2 0 3 2 3 7 7 7 10 5
22 18 15 9 7 6 6 8 12 12 15 13 9 4 6 8 8 11 14 14 11 9 9 8 5 5 4 4 2 4 5 3 3 3 2 2 1 1 2 1 3 6 10 11 11 10 7
20 17 17 11 8 8 7 5 6 14 15 16 15 12 5 6 10 13 15 15 13 9 9 9 7 7 6 4 3 2 2 4 4 4 5 5 6 5 3 3 6 7 10 11 12 15 16
17 16 16 13 10 10 8 6 5 4 9 13 16 14 11 9 8 12 14 14 14 11 9 9 9 9 9 7 6 5 5 5 4 4 4 5 7 11 9 7 6 12 13 13 12 4 12
17 14 15 14 11 11 13 13 9 8 5 7 12 16 14 10 7 10 13 14 15 13 10 7 8 10 9 9 5 5 5 5 7 8 7 5 5 6 9 8 9 14 19 19 13 10 9
20 14 15 15 12 11 12 16 15 11 11 8 6 11 13 11 8 6 9 12 15 15 14 11 9 5 6 5 6 6 9 8 9 6 7 7 10 4 10 6 8 8 14 13 18 11 12

GFSGBSN_700_spd_111.txt.gz
Wind_Speed
31 37 39 47 46 45 43 40 35 32 24 21 20 22 22 25 21 19 18 15 14 18 24 29 37 24 23 32 20 10 10 8 10 14 15 15 14 13 13 13 16 21 21 22 24 26 27
37 41 44 54 44 36 30 28 25 23 29 24 29 32 27 29 26 23 19 17 17 16 28 25 30 40 29 22 25 23 14 12 12 16 14 13 13 11 12 13 16 18 20 19 21 21 26
43 42 48 44 42 38 34 30 22 21 23 22 21 22 22 24 21 21 20 20 18 14 17 26 32 32 27 25 26 23 20 14 12 12 11 10 10 11 10 12 15 15 19 18 14 15 15
43 47 46 43 38 37 33 29 25 20 23 21 19 23 25 20 19 19 20 19 15 14 19 22 29 32 34 26 26 9 10 13 11 10 11 9 10 10 10 12 12 12 14 13 10 12 16
49 48 47 39 37 37 34 27 25 21 16 18 19 24 15 11 8 14 17 17 12 15 19 23 23 17 21 21 20 17 14 12 12 11 11 10 9 9 10 9 7 6 8 13 17 14 18
50 49 45 38 35 36 35 30 29 17 15 16 14 17 14 9 4 6 10 13 12 23 21 32 11 13 16 17 16 14 18 14 11 10 11 8 8 9 8 7 1 6 14 18 22 19 26
54 52 45 37 33 35 35 33 30 20 16 15 12 16 17 13 7 8 11 20 27 21 18 12 16 9 17 22 16 17 18 13 11 10 6 6 8 4 3 5 5 9 14 20 21 18 21
58 56 48 37 31 35 36 33 27 25 17 14 12 12 13 12 12 7 5 10 17 22 26 20 17 15 14 16 17 14 14 12 9 6 6 7 6 5 5 6 10 12 18 22 22 7 26
56 57 48 35 29 34 32 32 30 31 25 19 18 14 13 11 13 11 15 14 21 31 32 28 21 21 18 13 12 12 11 7 7 6 6 7 3 5 7 9 13 14 18 22 22 23 24
51 50 46 34 28 30 29 29 31 30 27 22 21 21 17 14 13 15 19 26 26 22 17 14 14 14 15 13 12 11 10 7 4 4 4 7 5 4 7 8 8 17 12 15 18 17 12
47 44 40 35 27 27 27 27 26 25 25 23 21 20 18 16 17 20 21 23 18 7 6 6 10 12 12 8 14 12 11 7 4 4 4 2 3 4 8 8 9 13 16 22 26 28 29
46 39 34 32 27 26 25 25 26 27 26 25 22 21 20 17 20 17 16 13 9 6 6 5 10 13 11 14 8 12 10 5 4 6 9 7 8 11 9 9 12 16 19 20 14 13 7
45 39 33 28 24 25 23 23 25 23 22 21 21 22 19 19 17 18 16 10 10 10 6 7 15 14 12 10 11 7 5 2 1 1 3 5 6 8 9 12 9 9 13 6 3 1 4
42 41 33 28 23 22 21 20 22 20 21 24 27 26 21 19 19 17 8 13 13 7 11 19 15 13 12 11 9 7 6 3 1 2 6 6 4 5 5 9 7 11 8 4 4 2 4
38 39 34 29 24 19 18 18 17 17 18 18 21 20 14 9 5 7 14 20 11 14 19 18 15 9 7 8 7 5 4 3 1 0 2 3 6 7 9 7 5 4 6 10 6 8 4
38 34 36 28 26 20 17 16 14 13 14 14 19 19 20 19 18 21 29 27 20 22 17 8 6 7 10 9 4 3 2 1 4 4 4 4 7 4 3 4 3 9 11 4 4 4 2
36 31 31 30 24 23 17 15 13 11 13 15 14 17 18 22 19 23 36 26 18 13 11 7 10 8 7 3 2 4 2 3 2 5 3 3 1 2 2 4 7 8 4 4 5 4 2
35 30 27 29 25 21 20 15 14 12 13 13 13 18 17 17 13 25 24 21 20 17 16 14 9 8 5 7 11 7 10 5 9 9 6 2 2 3 3 5 9 12 14 7 1 2 4
31 28 23 23 25 23 19 16 14 14 11 10 14 16 11 7 14 20 19 20 17 15 9 7 6 6 3 3 6 10 10 11 11 6 4 2 2 5 4 2 7 4 12 1 6 1 5
29 27 22 19 20 23 20 17 13 11 9 7 6 10 10 6 12 14 14 13 15 12 11 8 8 9 8 7 6 6 6 8 9 7 5 5 7 7 3 3 9 14 5 8 6 2 10
27 26 22 16 17 19 21 19 14 11 11 6 5 9 5 9 11 8 6 10 9 9 8 7 6 7 6 5 8 8 6 8 8 6 5 4 3 5 6 7 9 13 14 12 18 19 10
26 23 21 15 13 16 18 19 18 13 11 9 4 4 12 10 8 8 9 8 4 4 5 7 5 6 5 3 6 5 6 6 5 4 3 1 1 2 2 2 6 8 5 4 12 16 20
25 22 20 16 10 11 12 15 17 16 13 9 6 2 7 10 9 8 7 8 6 2 1 2 3 2 2 2 3 3 4 4 3 2 1 1 2 2 3 2 3 3 5 9 11 10 11
26 22 19 15 12 7 8 10 12 15 15 13 7 5 7 8 11 10 10 8 8 5 3 3 3 2 2 4 5 6 6 5 3 2 1 1 2 3 3 4 1 3 7 7 8 10 9
27 21 18 16 13 9 6 6 8 11 13 14 11 7 4 8 10 12 12 12 10 8 6 6 5 6 7 8 10 9 8 6 5 6 4 5 5 4 3 5 10 8 11 9 9 11 9
23 25 19 16 12 10 7 7 7 7 9 10 11 11 7 6 7 12 14 13 14 11 10 8 8 8 10 11 10 6 5 7 4 5 7 7 8 7 3 2 4 3 7 9 7 17 12
21 22 22 17 15 12 9 8 7 7 6 6 9 10 9 8 4 7 11 14 14 14 11 10 10 10 11 10 11 7 6 9 5 7 6 9 9 12 11 7 9 10 11 11 8 2 4
19 22 20 20 15 14 12 13 14 11 10 8 8 7 8 8 6 5 7 10 13 15 15 12 9 10 10 7 5 4 7 7 8 11 12 7 6 4 5 7 7 7 14 17 10 12 10
20 18 20 19 20 15 15 14 15 16 14 13 13 11 9 6 5 4 4 6 8 11 13 15 14 11 6 5 5 4 10 12 14 10 10 5 5 9 8 7 9 11 12 16 19 21 14

GFSGBSN_700_spd_114.txt.gz
Wind_Speed
50 45 46 43 41 41 38 31 28 27 20 23 20 14 14 13 19 17 16 12 12 11 11 26 26 39 37 26 13 7 14 17 15 17 18 17 17 16 16 16 18 21 21 21 22 21 24
55 53 47 41 39 38 37 30 25 21 16 17 17 14 19 17 17 23 19 16 14 11 8 24 28 27 35 42 25 15 12 10 11 12 12 13 14 13 13 14 17 19 19 19 20 19 26
57 54 45 38 38 40 40 35 28 20 18 16 15 16 17 17 16 16 19 18 17 11 9 26 37 21 19 14 14 23 21 17 12 10 12 12 12 12 13 13 16 18 20 19 19 17 19
58 58 45 36 40 41 41 33 28 20 18 18 20 25 23 11 17 14 16 17 17 12 9 28 34 31 21 17 17 20 25 19 10 10 9 9 10 10 11 12 13 15 17 13 11 11 14
56 55 45 37 41 43 42 32 28 23 20 19 21 23 19 9 6 10 14 14 13 10 14 23 31 30 16 17 22 17 15 10 10 9 7 7 8 9 10 9 10 9 11 12 13 13 19
53 52 45 39 40 41 41 35 30 23 22 22 22 25 24 18 10 8 11 10 7 10 16 15 26 23 14 21 21 20 16 14 9 7 6 5 5 7 6 5 4 7 12 15 15 13 22
49 48 46 42 39 39 39 39 30 25 23 19 18 20 24 14 11 8 8 9 10 13 20 9 19 10 21 30 21 14 16 14 10 7 3 3 3 2 2 4 5 11 13 18 18 17 25
45 43 44 43 41 39 40 39 30 27 26 23 17 18 18 18 13 9 12 13 11 19 19 15 14 17 25 26 16 14 16 11 7 4 3 1 0 3 3 4 7 12 17 19 21 10 25
43 40 40 40 40 37 38 36 32 27 26 24 23 20 18 17 20 19 20 28 30 30 34 27 24 25 23 18 15 15 13 8 7 4 3 1 2 2 4 7 11 14 18 17 19 22 25
42 39 38 36 37 35 37 33 30 26 26 26 25 23 19 17 19 24 26 31 34 25 19 18 16 18 17 19 16 13 12 8 6 4 0 1 4 4 6 6 9 17 8 12 16 18 12
41 38 38 34 32 33 34 33 31 27 24 22 24 26 25 24 29 31 28 20 10 6 6 8 16 15 15 6 13 11 10 6 5 3 1 1 2 4 6 5 11 12 14 20 23 26 27
40 38 36 34 30 29 32 33 30 33 35 29 22 25 26 19 19 21 17 12 9 8 7 7 9 11 12 12 9 12 9 5 2 1 3 2 6 8 7 10 12 15 18 19 13 10 5
38 38 34 35 31 27 27 26 24 28 35 29 26 21 18 18 13 11 10 8 10 11 7 9 13 13 10 12 11 8 6 5 3 2 4 4 4 8 9 9 8 6 10 5 4 1 5
38 36 35 32 33 29 25 23 23 26 31 29 20 15 13 11 9 8 9 9 18 8 11 16 14 14 15 13 10 7 6 4 2 4 4 5 2 3 4 5 5 7 7 3 3 2 6
41 33 34 31 30 29 27 23 21 23 27 24 20 15 12 11 9 7 14 28 8 14 17 15 13 10 7 6 6 4 3 2 1 1 2 2 4 5 6 7 6 3 5 7 6 9 5
41 34 30 33 29 28 27 26 26 25 25 20 14 13 16 15 14 14 30 27 19 20 13 7 5 6 5 6 2 0 1 1 2 5 4 5 7 2 1 4 4 7 7 3 3 3 3
41 36 28 28 30 28 26 25 24 23 23 17 12 18 18 15 15 21 34 25 17 11 11 12 13 7 5 3 3 1 3 2 5 4 6 7 4 2 4 2 8 5 3 2 3 3 2
38 36 27 25 28 27 25 22 20 18 19 15 9 16 17 12 10 27 24 19 17 15 14 11 9 11 13 11 11 5 5 4 5 4 4 4 4 5 1 5 10 10 8 4 3 1 2
36 33 28 22 23 26 25 21 18 14 13 11 7 13 13 10 14 20 20 18 15 12 11 10 7 6 6 7 6 8 7 7 6 5 5 6 5 8 1 2 6 9 13 9 4 2 1
34 32 27 20 19 21 22 22 17 13 9 7 5 6 11 7 13 13 13 13 12 11 11 11 9 8 8 8 6 5 4 6 6 6 6 5 7 5 1 4 10 14 10 5 6 2 4
33 31 27 21 15 16 19 19 17 13 10 8 4 4 5 6 7 5 6 9 8 8 7 6 5 5 5 4 5 5 4 5 6 6 6 6 6 6 5 7 11 10 10 3 5 15 6
32 30 26 21 14 13 14 14 15 14 9 6 6 5 2 2 2 4 5 5 5 6 5 6 4 4 4 4 5 6 5 4 4 3 4 5 5 10 8 6 8 7 5 4 8 3 17
30 31 26 21 15 9 10 11 13 13 11 6 4 3 1 3 3 3 4 4 2 0 3 1 1 1 3 3 4 5 5 5 4 4 4 4 6 7 6 9 11 9 5 3 6 10 11
27 29 28 22 18 10 8 8 9 10 11 10 5 1 3 5 7 7 6 7 6 5 4 4 4 3 4 7 9 10 10 10 9 7 7 7 7 6 7 7 1 2 6 7 7 8 10
25 26 26 24 18 13 8 8 6 7 8 8 8 5 2 5 8 10 11 10 10 10 9 9 8 8 9 9 10 7 7 5 5 8 10 9 8 6 5 7 13 11 10 9 10 10 10
26 23 25 21 18 15 10 10 8 7 8 8 6 5 3 4 6 9 12 14 14 13 13 13 12 12 11 10 9 3 3 6 4 5 7 10 11 9 6 4 5 3 5 9 9 14 12
30 23 24 25 17 14 13 10 12 11 9 9 9 8 6 5 3 7 9 12 15 15 15 13 15 14 13 12 10 5 4 5 4 5 6 9 9 14 14 9 10 12 8 9 7 3 2
30 26 18 23 22 16 14 12 13 17 16 13 12 12 11 9 7 6 8 10 13 15 14 13 11 10 10 8 5 4 5 5 8 10 11 6 5 6 5 8 8 6 9 14 8 8 8
26 25 19 20 23 19 16 16 14 16 17 18 17 15 15 14 12 11 10 12 12 14 15 15 13 11 7 6 6 7 10 13 13 7 10 7 5 7 8 7 13 15 15 13 16 19 19

GFSGBSN_700_spd_117.txt.gz
Wind_Speed
51 46 43 39 43 45 41 33 30 24 22 21 19 17 14 3 6 11 9 8 10 7 7 12 33 38 30 22 35 17 22 20 18 19 19 17 17 17 17 16 18 19 18 18 18 19 23
47 47 45 44 47 47 43 35 27 25 22 22 21 17 14 13 10 9 12 11 10 9 8 9 27 34 31 20 16 17 18 18 18 18 18 17 16 15 14 16 16 16 14 17 18 19 24
45 47 47 47 49 48 45 36 29 27 24 22 22 21 14 10 12 10 12 15 10 10 9 14 21 29 31 27 24 16 15 15 13 12 12 12 12 13 13 12 15 16 16 18 19 18 21
43 45 46 47 48 48 46 34 31 27 22 21 24 26 22 5 12 12 8 15 12 11 9 15 21 19 22 32 32 25 20 15 12 9 9 10 10 10 10 11 12 13 15 14 14 14 18
41 41 45 44 46 47 41 36 34 31 25 25 25 24 25 17 7 11 11 11 13 12 7 12 25 18 18 15 24 16 17 14 13 11 7 7 6 7 7 8 10 10 10 13 13 15 18
41 39 41 43 43 43 41 37 35 35 33 26 25 27 21 21 15 12 11 10 12 8 4 13 27 16 15 26 24 16 15 13 15 10 10 8 6 6 6 7 6 7 10 12 12 13 20
42 38 38 40 42 41 41 38 35 34 31 28 24 23 20 18 18 15 17 13 16 11 7 11 18 11 20 26 19 22 14 10 9 7 6 6 4 5 5 6 7 8 11 14 14 15 25
39 39 36 37 39 42 40 37 36 34 32 30 26 26 24 16 18 20 17 15 22 23 28 18 22 14 23 24 19 15 15 13 10 8 7 5 3 3 3 4 5 8 13 14 14 11 22
38 39 36 36 37 39 39 40 37 34 32 31 28 25 27 21 17 24 20 27 34 38 37 29 26 27 27 17 15 13 15 13 10 7 5 4 4 3 4 4 7 10 13 11 14 18 21
39 36 36 36 35 34 34 38 40 38 31 30 29 27 29 28 28 31 36 33 27 24 20 19 16 20 20 19 17 17 14 12 8 6 5 3 4 5 5 4 7 10 7 11 15 14 10
38 37 36 34 34 31 30 33 35 37 31 24 28 31 32 33 32 22 13 10 8 7 6 8 20 19 13 8 16 12 12 8 6 5 3 3 3 4 4 3 7 8 11 17 19 19 17
37 37 35 35 33 32 29 32 34 33 28 23 18 17 18 17 14 8 7 7 10 9 9 8 10 14 13 11 12 13 10 8 5 3 1 3 5 6 4 6 10 11 12 12 3 3 5
41 34 36 33 33 32 33 32 31 30 29 22 18 15 11 9 12 10 8 8 9 12 6 9 13 11 13 14 12 9 7 6 5 3 2 2 5 5 6 6 5 4 10 5 3 2 5
41 33 34 33 31 33 33 33 31 29 25 26 27 23 16 10 9 7 7 13 18 11 17 15 14 13 13 12 9 8 6 4 4 4 5 5 0 2 3 6 3 3 7 2 3 2 5
40 35 30 33 29 31 31 31 28 25 24 25 25 25 22 19 18 20 22 35 9 14 17 14 11 8 7 9 6 4 5 5 4 4 4 4 2 4 4 4 6 3 3 6 6 9 5
40 36 28 29 29 27 28 26 24 21 21 24 23 25 28 25 22 20 35 32 20 17 14 12 9 9 6 6 4 3 3 2 3 4 4 4 6 2 3 6 5 7 7 4 4 4 4
39 35 29 24 27 25 24 22 21 18 17 20 20 24 20 18 14 22 37 29 22 18 16 12 11 7 6 4 2 3 3 3 3 3 3 3 4 4 6 3 8 6 4 4 5 4 2
37 36 31 22 22 24 21 19 17 16 15 15 18 19 17 14 8 25 26 23 18 14 13 13 13 13 12 10 13 6 9 7 7 6 4 4 4 7 3 5 7 9 6 6 3 2 3
34 36 32 25 19 21 21 18 15 13 13 13 15 15 14 13 16 18 18 17 17 14 11 11 7 8 9 9 5 8 7 7 6 5 5 6 4 7 2 2 3 6 10 10 9 8 6
34 33 34 27 17 17 19 19 14 12 12 10 9 8 12 10 13 13 12 12 11 10 11 11 10 10 9 9 7 4 4 4 5 5 6 5 4 4 3 5 8 8 9 5 10 5 3
35 32 31 30 22 13 15 17 16 11 8 8 7 8 7 6 7 8 7 7 8 6 6 5 6 5 6 4 4 4 4 3 3 5 6 7 5 9 10 9 9 10 9 5 11 7 3
34 31 29 29 24 16 11 12 14 14 8 4 3 3 2 3 4 3 4 4 3 3 3 4 3 3 4 5 4 5 5 4 2 5 7 7 6 15 13 7 11 13 10 5 8 11 9
30 33 28 27 27 19 12 9 10 12 12 7 3 1 1 2 3 1 3 2 2 1 1 2 2 3 4 4 5 7 6 5 6 7 6 6 8 13 5 9 15 14 12 8 9 8 10
30 37 30 26 23 23 15 9 8 8 10 10 7 6 4 4 5 6 5 5 7 6 6 6 7 6 6 7 9 11 13 13 14 13 10 9 9 8 10 13 2 3 4 10 10 10 10
39 32 31 28 25 23 18 11 10 9 6 7 8 8 7 7 8 9 10 10 9 10 11 11 10 11 12 13 15 10 9 10 8 10 12 11 9 6 5 7 18 16 14 13 12 13 13
39 31 31 28 28 22 21 13 11 12 11 9 8 7 9 9 8 10 12 12 13 12 14 13 13 13 14 14 12 6 4 5 4 5 9 11 11 10 5 4 5 3 4 7 11 16 12
40 35 29 27 26 24 19 18 12 13 14 13 13 13 10 11 9 12 12 14 16 15 15 14 14 14 14 13 13 7 6 7 5 5 7 11 11 18 17 10 11 15 12 8 8 5 6
37 31 26 27 24 24 21 19 17 13 14 16 18 18 17 13 14 11 12 14 16 17 17 13 11 12 12 10 6 7 7 8 8 10 8 7 6 7 9 10 7 2 7 10 9 8 10
35 29 25 26 24 23 23 20 18 19 15 15 16 19 20 19 16 17 15 15 16 17 18 19 18 10 7 7 8 7 10 10 12 7 8 8 12 6 9 7 11 14 16 18 16 16 16